[[{"header":{"parameterUnit":"m.s-1","parameterCategory":1,"la1":30.6,"la2":28.766,"lo1":-90.7593,"lo2":-88.6598,"dy":0.0162,"dx":0.0183,"nx":116,"ny":114,"refTime":"2023-05-25T18:00:00:Z","depth":0,"parameterNumber":2,"parameterNumberName":"U-component_of_WINDS"},"data":[0.0,0.0,0.0,0.0,0.0,0.0,0.0,0.0,0.0,0.0,0.0,0.0,0.0,0.0,0.0,0.0,0.0,0.0,0.0,0.0,0.0,0.0,0.0,0.0,0.0,0.0,0.0,0.0,0.0,0.0,0.0,0.0,0.0,0.0,0.0,0.0,0.0,0.0,0.0,0.0,0.0,0.0,0.0,0.0,0.0,0.0,0.0,0.0,0.0,0.0,0.0,0.0,0.0,0.0,0.0,0.0,0.0,0.0,0.0,0.0,0.0,0.0,0.0,0.0,0.0,0.0,0.0,0.0,0.0,0.0,0.0,0.0,0.0,0.0,0.0,0.0,0.0,0.0,0.0,0.0,0.0,0.0,0.0,0.0,0.0,0.0,0.0,0.0,0.0,0.0,0.0,0.0,0.0,0.0,0.0,0.0,0.0,0.0,0.0,0.0,0.0,0.0,0.0,0.0,0.0,0.0,0.0,0.0,0.0,0.0,0.0,0.0,0.0,0.0,0.0,0.0,0.0,0.0,0.0,0.0,0.0,0.0,0.0,0.0,0.0,0.0,0.0,0.0,0.0,0.0,0.0,0.0,0.0,0.0,0.0,0.0,0.0,0.0,0.0,0.0,0.0,0.0,0.0,0.0,0.0,0.0,0.0,0.0,0.0,0.0,0.0,0.0,0.0,0.0,0.0,0.0,0.0,0.0,0.0,0.0,0.0,0.0,0.0,0.0,0.0,0.0,0.0,0.0,0.0,0.0,0.0,0.0,0.0,0.0,0.0,0.0,0.0,0.0,0.0,0.0,0.0,0.0,0.0,0.0,0.0,0.0,0.0,0.0,0.0,0.0,0.0,0.0,0.0,0.0,0.0,0.0,0.0,0.0,0.0,0.0,0.0,0.0,0.0,0.0,0.0,0.0,0.0,0.0,0.0,0.0,0.0,0.0,0.0,0.0,0.0,0.0,0.0,0.0,0.0,0.0,0.0,0.0,0.0,0.0,0.0,0.0,0.0,0.0,0.0,0.0,0.0,0.0,0.0,0.0,0.0,0.0,0.0,0.0,0.0,0.0,0.0,0.0,0.0,0.0,0.0,0.0,0.0,0.0,0.0,0.0,0.0,0.0,0.0,0.0,0.0,0.0,0.0,0.0,0.0,0.0,0.0,0.0,0.0,0.0,0.0,0.0,0.0,0.0,0.0,0.0,0.0,0.0,0.0,0.0,0.0,0.0,0.0,0.0,0.0,0.0,0.0,0.0,0.0,0.0,0.0,0.0,0.0,0.0,0.0,0.0,0.0,0.0,0.0,0.0,0.0,0.0,0.0,0.0,0.0,0.0,0.0,0.0,0.0,0.0,0.0,0.0,0.0,0.0,0.0,0.0,0.0,0.0,0.0,0.0,0.0,0.0,0.0,0.0,0.0,0.0,0.0,0.0,0.0,0.0,0.0,0.0,0.0,0.0,0.0,0.0,0.0,0.0,0.0,0.0,0.0,0.0,0.0,0.0,0.0,0.0,0.0,0.0,0.0,0.0,0.0,0.0,0.0,0.0,0.0,0.0,0.0,0.0,0.0,0.0,0.0,0.0,0.0,0.0,0.0,0.0,0.0,0.0,0.0,0.0,0.0,0.0,0.0,0.0,0.0,0.0,0.0,0.0,0.0,0.0,0.0,0.0,0.0,0.0,0.0,0.0,0.0,0.0,0.0,0.0,0.0,0.0,0.0,0.0,0.0,0.0,0.0,0.0,0.0,0.0,0.0,0.0,0.0,0.0,0.0,0.0,0.0,0.0,0.0,0.0,0.0,0.0,0.0,0.0,0.0,0.0,0.0,0.0,0.0,0.0,0.0,0.0,0.0,0.0,0.0,0.0,0.0,0.0,0.0,0.0,0.0,0.0,0.0,0.0,0.0,0.0,0.0,0.0,0.0,0.0,0.0,0.0,0.0,0.0,0.0,0.0,0.0,0.0,0.0,0.0,0.0,0.0,0.0,0.0,0.0,0.0,0.0,0.0,0.0,0.0,0.0,0.0,0.0,0.0,0.0,0.0,0.0,0.0,0.0,0.0,0.0,0.0,0.0,0.0,0.0,0.0,0.0,0.0,0.0,0.0,0.0,0.0,0.0,0.0,0.0,0.0,0.0,0.0,0.0,0.0,0.0,0.0,0.0,0.0,0.0,0.0,0.0,0.0,0.0,0.0,0.0,0.0,0.0,0.0,0.0,0.0,0.0,0.0,0.0,0.0,0.0,0.0,0.0,0.0,0.0,0.0,0.0,0.0,0.0,0.0,0.0,0.0,0.0,0.0,0.0,0.0,0.0,0.0,0.0,0.0,0.0,0.0,0.0,0.0,0.0,0.0,0.0,0.0,0.0,0.0,0.0,0.0,0.0,0.0,0.0,0.0,0.0,0.0,0.0,0.0,0.0,0.0,0.0,0.0,0.0,0.0,0.0,0.0,0.0,0.0,0.0,0.0,0.0,0.0,0.0,0.0,0.0,0.0,0.0,0.0,0.0,0.0,0.0,0.0,0.0,0.0,0.0,0.0,0.0,0.0,0.0,0.0,0.0,0.0,0.0,0.0,0.0,0.0,0.0,0.0,0.0,0.0,0.0,0.0,0.0,0.0,0.0,0.0,0.0,0.0,0.0,0.0,0.0,0.0,0.0,0.0,0.0,0.0,0.0,0.0,0.0,0.0,0.0,0.0,0.0,0.0,0.0,0.0,0.0,0.0,0.0,0.0,0.0,0.0,0.0,0.0,0.0,0.0,0.0,0.0,0.0,0.0,0.0,0.0,0.0,0.0,0.0,0.0,0.0,0.0,0.0,0.0,0.0,0.0,0.0,0.0,0.0,0.0,0.0,0.0,0.0,0.0,0.0,0.0,0.0,0.0,0.0,0.0,0.0,0.0,0.0,0.0,0.0,0.0,0.0,0.0,0.0,0.0,0.0,0.0,0.0,0.0,0.0,0.0,0.0,0.0,0.0,0.0,0.0,0.0,0.0,0.0,0.0,0.0,0.0,0.0,0.0,0.0,0.0,0.0,0.0,0.0,0.0,0.0,0.0,0.0,0.0,0.0,0.0,0.0,0.0,0.0,0.0,0.0,0.0,0.0,0.0,0.0,0.0,0.0,0.0,0.0,0.0,0.0,0.0,0.0,0.0,0.0,0.0,0.0,0.0,0.0,0.0,0.0,0.0,0.0,0.0,0.0,0.0,0.0,0.0,0.0,0.0,0.0,0.0,0.0,0.0,0.0,0.0,0.0,0.0,0.0,0.0,0.0,0.0,0.0,0.0,0.0,0.0,0.0,0.0,0.0,0.0,0.0,0.0,0.0,0.0,0.0,0.0,0.0,0.0,0.0,0.0,0.0,0.0,0.0,0.0,0.0,0.0,0.0,0.0,0.0,0.0,0.0,0.0,0.0,0.0,0.0,0.0,0.0,0.0,0.0,0.0,0.0,0.0,0.0,0.0,0.0,0.0,0.0,0.0,0.0,0.0,0.0,0.0,0.0,0.0,0.0,0.0,0.0,0.0,0.0,0.0,0.0,0.0,0.0,0.0,0.0,0.0,0.0,0.0,0.0,0.0,0.0,0.0,0.0,0.0,0.0,0.0,0.0,0.0,0.0,0.0,0.0,0.0,0.0,0.0,0.0,0.0,0.0,0.0,0.0,0.0,0.0,0.0,0.0,0.0,0.0,0.0,0.0,0.0,0.0,0.0,0.0,0.0,0.0,0.0,0.0,0.0,0.0,0.0,0.0,0.0,0.0,0.0,0.0,0.0,0.0,0.0,0.0,0.0,0.0,0.0,0.0,0.0,0.0,0.0,0.0,0.0,0.0,0.0,0.0,0.0,0.0,0.0,0.0,0.0,0.0,0.0,0.0,0.0,0.0,0.0,0.0,0.0,0.0,0.0,0.0,0.0,0.0,0.0,0.0,0.0,0.0,0.0,0.0,0.0,0.0,0.0,0.0,0.0,0.0,0.0,0.0,0.0,0.0,0.0,0.0,0.0,0.0,0.0,0.0,0.0,0.0,0.0,0.0,0.0,0.0,0.0,0.0,0.0,0.0,0.0,0.0,0.0,0.0,0.0,0.0,0.0,0.0,0.0,0.0,0.0,0.0,0.0,0.0,0.0,0.0,0.0,0.0,0.0,0.0,0.0,0.0,0.0,0.0,0.0,0.0,0.0,0.0,0.0,0.0,0.0,0.0,0.0,0.0,0.0,0.0,0.0,0.0,0.0,0.0,0.0,0.0,0.0,0.0,0.0,0.0,0.0,0.0,0.0,0.0,0.0,0.0,0.0,0.0,0.0,0.0,0.0,0.0,0.0,0.0,0.0,0.0,0.0,0.0,0.0,0.0,0.0,0.0,0.0,0.0,0.0,0.0,0.0,0.0,0.0,0.0,0.0,0.0,0.0,0.0,0.0,0.0,0.0,0.0,0.0,0.0,0.0,0.0,0.0,0.0,0.0,0.0,0.0,0.0,0.0,0.0,0.0,0.0,0.0,0.0,0.0,0.0,0.0,0.0,0.0,0.0,0.0,0.0,0.0,0.0,0.0,0.0,0.0,0.0,0.0,0.0,0.0,0.0,0.0,0.0,0.0,0.0,0.0,0.0,0.0,0.0,0.0,0.0,0.0,0.0,0.0,0.0,0.0,0.0,0.0,0.0,0.0,0.0,0.0,0.0,0.0,0.0,0.0,0.0,0.0,0.0,0.0,0.0,0.0,0.0,0.0,0.0,0.0,0.0,0.0,0.0,0.0,0.0,0.0,0.0,0.0,0.0,0.0,0.0,0.0,0.0,0.0,0.0,0.0,0.0,0.0,0.0,0.0,0.0,0.0,0.0,0.0,0.0,0.0,0.0,0.0,0.0,0.0,0.0,0.0,0.0,0.0,0.0,0.0,0.0,0.0,0.0,0.0,0.0,0.0,0.0,0.0,0.0,0.0,0.0,0.0,0.0,0.0,0.0,0.0,0.0,0.0,0.0,0.0,0.0,0.0,0.0,0.0,0.0,0.0,0.0,0.0,0.0,0.0,0.0,0.0,0.0,0.0,0.0,0.0,0.0,0.0,0.0,0.0,0.0,0.0,0.0,0.0,0.0,0.0,0.0,0.0,0.0,0.0,0.0,0.0,0.0,0.0,0.0,0.0,0.0,0.0,0.0,0.0,0.0,0.0,0.0,0.0,0.0,0.0,0.0,0.0,0.0,0.0,0.0,0.0,0.0,0.0,0.0,0.0,0.0,0.0,0.0,0.0,0.0,0.0,0.0,0.0,0.0,0.0,0.0,0.0,0.0,0.0,0.0,0.0,0.0,0.0,0.0,0.0,0.0,0.0,0.0,0.0,0.0,0.0,0.0,0.0,0.0,0.0,0.0,0.0,0.0,0.0,0.0,0.0,0.0,0.0,0.0,0.0,0.0,0.0,0.0,0.0,0.0,0.0,0.0,0.0,0.0,0.0,0.0,0.0,0.0,0.0,0.0,0.0,0.0,0.0,0.0,0.0,0.0,0.0,0.0,0.0,0.0,0.0,0.0,0.0,0.0,0.0,0.0,0.0,0.0,0.0,0.0,0.0,0.0,0.0,0.0,0.0,0.0,0.0,0.0,0.0,0.0,0.0,0.0,0.0,0.0,0.0,0.0,0.0,0.0,0.0,0.0,0.0,0.0,0.0,0.0,0.0,0.0,0.0,0.0,0.0,0.0,0.0,0.0,0.0,0.0,0.0,0.0,0.0,0.0,0.0,0.0,0.0,0.0,0.0,0.0,0.0,0.0,0.0,0.0,0.0,0.0,0.0,0.0,0.0,0.0,0.0,0.0,0.0,0.0,0.0,0.0,0.0,0.0,0.0,0.0,0.0,0.0,0.0,0.0,0.0,0.0,0.0,0.0,0.0,0.0,0.0,0.0,0.0,0.0,0.0,0.0,0.0,0.0,0.0,0.0,0.0,0.0,0.0,0.0,0.0,0.0,0.0,0.0,0.0,0.0,0.0,0.0,0.0,0.0,0.0,0.0,0.0,0.0,0.0,0.0,0.0,0.0,0.0,0.0,0.0,0.0,0.0,0.0,0.0,0.0,0.0,0.0,0.0,0.0,0.0,0.0,0.0,0.0,0.0,0.0,-2.4558,0.0,0.0,0.0,0.0,0.0,0.0,0.0,0.0,0.0,0.0,0.0,0.0,0.0,0.0,0.0,0.0,0.0,0.0,0.0,0.0,0.0,0.0,0.0,0.0,0.0,0.0,0.0,0.0,0.0,0.0,0.0,0.0,0.0,0.0,0.0,0.0,0.0,0.0,-1.2603,-1.2691,-1.3008,-1.3486,-1.4172,-1.5059,-1.612,0.0,0.0,0.0,0.0,0.0,0.0,0.0,0.0,0.0,0.0,0.0,0.0,0.0,0.0,0.0,0.0,0.0,0.0,0.0,0.0,0.0,0.0,0.0,0.0,0.0,0.0,0.0,0.0,0.0,0.0,0.0,0.0,0.0,0.0,0.0,0.0,0.0,0.0,0.0,0.0,0.0,0.0,0.0,0.0,0.0,0.0,0.0,0.0,0.0,0.0,0.0,0.0,0.0,0.0,0.0,0.0,0.0,0.0,0.0,0.0,0.0,0.0,0.0,0.0,0.0,0.0,0.0,0.0,0.0,0.0,0.0,-2.5569,0.0,0.0,0.0,0.0,0.0,0.0,0.0,0.0,0.0,0.0,0.0,0.0,0.0,0.0,0.0,0.0,0.0,0.0,0.0,0.0,0.0,0.0,0.0,-0.984,-1.0379,-1.0812,-1.1116,-1.1267,0.0,0.0,0.0,0.0,0.0,0.0,-1.2725,-1.2725,-1.2759,-1.2783,-1.3003,-1.3691,-1.4824,-1.549,-1.6551,-1.7863,-1.7932,0.0,0.0,0.0,0.0,0.0,0.0,0.0,0.0,0.0,0.0,0.0,0.0,0.0,0.0,0.0,0.0,0.0,0.0,0.0,0.0,0.0,0.0,0.0,0.0,0.0,0.0,0.0,0.0,0.0,0.0,0.0,0.0,0.0,0.0,0.0,0.0,0.0,0.0,0.0,0.0,0.0,0.0,0.0,0.0,0.0,0.0,0.0,0.0,0.0,0.0,0.0,0.0,0.0,0.0,0.0,0.0,0.0,0.0,0.0,0.0,0.0,0.0,0.0,-3.2704,-3.3242,-3.3063,-3.3457,-3.3202,-3.2366,-2.9952,-2.8226,-2.7011,-2.6027,0.0,0.0,0.0,0.0,0.0,0.0,0.0,0.0,0.0,0.0,0.0,0.0,0.0,0.0,0.0,0.0,0.0,0.0,0.0,0.0,0.0,-0.9126,-0.9614,-0.9769,-1.0138,-1.0633,-1.1251,0.0,0.0,0.0,0.0,0.0,-1.2881,-1.2881,-1.2929,-1.3061,-1.416,-1.5564,-1.7268,-1.8218,-1.944,-2.0699,-1.7855,-1.6928,-1.7496,0.0,0.0,0.0,0.0,0.0,0.0,0.0,0.0,0.0,0.0,0.0,0.0,0.0,0.0,0.0,0.0,0.0,0.0,0.0,0.0,0.0,0.0,0.0,0.0,0.0,0.0,0.0,0.0,0.0,0.0,0.0,0.0,0.0,0.0,0.0,0.0,0.0,0.0,0.0,0.0,0.0,-2.4537,-2.4323,0.0,0.0,0.0,0.0,0.0,0.0,0.0,0.0,0.0,0.0,0.0,0.0,0.0,-3.0707,-3.1264,-3.2963,-3.3592,-3.3173,-3.4802,-3.5317,-3.4881,-3.5435,-3.5693,-3.5618,-3.4343,0.0,-2.8245,-2.7858,0.0,0.0,0.0,0.0,0.0,0.0,0.0,0.0,0.0,0.0,0.0,0.0,0.0,0.0,0.0,0.0,0.0,0.0,0.0,0.0,0.0,-0.9152,-0.9678,-1.0059,-1.088,-1.1426,-1.1532,-1.2053,0.0,0.0,0.0,-1.2652,-1.2783,-1.2929,-1.3482,-1.4463,-1.6106,-1.7626,-1.9032,-2.0317,-2.1373,-2.2067,-2.0717,-1.9582,-1.8626,-1.8081,0.0,0.0,0.0,0.0,0.0,0.0,0.0,0.0,0.0,0.0,0.0,0.0,0.0,0.0,0.0,0.0,0.0,0.0,0.0,0.0,0.0,0.0,0.0,0.0,0.0,0.0,0.0,0.0,0.0,0.0,0.0,0.0,0.0,0.0,0.0,0.0,0.0,0.0,0.0,-2.5076,-2.5753,-2.4941,-2.5989,-2.6168,0.0,0.0,0.0,0.0,0.0,0.0,0.0,0.0,0.0,-3.1261,-3.2303,-3.303,-3.3402,-3.4964,-3.5819,-3.5983,-3.7319,-3.7997,-3.8071,-3.8195,-3.8138,-3.7895,-3.7018,-3.4895,-3.1816,-2.971,-2.7616,-2.5658,0.0,0.0,0.0,0.0,-2.2706,-2.2501,0.0,0.0,0.0,0.0,0.0,0.0,0.0,0.0,0.0,0.0,0.0,0.0,-0.8822,-0.939,-1.0024,-1.0703,-1.1563,-1.2008,-1.1851,-1.2225,-1.2395,-1.2302,-1.2431,-1.2554,-1.27,-1.3278,-1.4286,-1.5713,-1.7579,-1.9175,-2.052,-2.1725,-2.2819,-2.3737,-2.3548,-2.2328,-2.038,-1.9945,-1.8734,-1.7126,0.0,0.0,0.0,0.0,0.0,0.0,0.0,0.0,0.0,0.0,0.0,0.0,0.0,0.0,0.0,0.0,0.0,0.0,0.0,0.0,0.0,0.0,0.0,0.0,0.0,0.0,0.0,0.0,0.0,0.0,0.0,0.0,0.0,0.0,0.0,0.0,0.0,-2.6185,-2.6958,-2.558,-2.7689,-2.8265,0.0,0.0,0.0,0.0,0.0,0.0,-3.1335,-3.2827,-3.3911,-3.4469,-3.5172,-3.569,-3.5926,-3.7083,-3.7929,-3.8529,-3.931,-3.9929,-4.0345,-4.012,-3.9815,-3.9438,-3.8704,-3.7206,-3.5035,-3.1995,-2.9521,-2.7518,-2.6339,-2.5323,-2.4564,-2.4662,-2.4285,-2.3736,0.0,0.0,0.0,0.0,0.0,0.0,0.0,0.0,0.0,0.0,0.0,-0.8578,-0.9125,-0.9722,-1.0455,-1.1358,-1.145,-1.1665,-1.2239,-1.1931,-1.1913,-1.2274,-1.2431,-1.2554,-1.27,-1.4152,-1.5355,-1.6247,-1.7954,-1.982,-2.1796,-2.2143,-2.3798,-2.6428,-2.5028,-2.3867,-2.2802,-2.1138,-2.0118,-1.9484,-1.7848,0.0,0.0,0.0,0.0,0.0,0.0,0.0,0.0,0.0,0.0,0.0,0.0,0.0,0.0,0.0,0.0,0.0,0.0,0.0,0.0,0.0,0.0,0.0,0.0,0.0,0.0,0.0,0.0,0.0,0.0,0.0,0.0,0.0,0.0,0.0,0.0,0.0,0.0,-2.6173,-3.0312,0.0,0.0,0.0,0.0,-3.1023,-3.1946,-3.2957,-3.3969,-3.4755,-3.5944,-3.7611,-3.8379,-3.9106,-3.9808,-3.9893,-4.001,-4.0186,-4.022,-4.0353,-4.0485,-4.0353,-4.0279,-4.0203,-3.9333,-3.8129,-3.6684,-3.5064,-3.2439,-2.9334,-2.8951,-2.7859,-2.6573,-2.6636,-2.5963,-2.5044,0.0,0.0,0.0,0.0,0.0,0.0,0.0,0.0,-0.7649,-0.7696,-0.8066,-0.8633,-0.937,-0.9863,-1.0601,-1.1645,-1.2215,-1.2548,-1.2674,-1.2722,-1.2681,-1.2556,-1.2513,-1.2901,-1.3707,-1.5292,-1.6672,-1.79,-2.0028,-2.1835,-2.3343,-2.4225,-2.531,-2.6579,-2.639,-2.5912,-2.5172,-2.3484,-2.1656,-1.9876,-1.9258,-1.8286,0.0,0.0,0.0,0.0,0.0,0.0,0.0,0.0,0.0,0.0,0.0,0.0,0.0,0.0,0.0,0.0,0.0,0.0,0.0,0.0,0.0,0.0,0.0,0.0,0.0,0.0,0.0,0.0,0.0,0.0,0.0,0.0,0.0,0.0,0.0,0.0,0.0,-3.1594,-3.4532,0.0,-3.333,-3.3704,-3.4203,-3.4395,-3.5697,-3.6842,-3.7627,-3.8933,-3.9959,-4.0575,-4.0871,-4.1176,-4.1491,-4.1035,-4.0823,-4.0875,-4.0616,-4.0444,-4.0387,-4.0549,-4.05,-4.0254,-3.9474,-3.8526,-3.7462,-3.6469,-3.393,-3.0593,-2.9946,-2.8876,-2.7657,-2.7638,-2.7106,-2.6302,0.0,0.0,0.0,0.0,0.0,0.0,0.0,0.0,-0.7649,-0.7696,-0.814,-0.8744,-0.9593,-1.0284,-1.1101,-1.211,-1.286,-1.3142,-1.2879,-1.3024,-1.2923,-1.2523,-1.2917,-1.3628,-1.4661,-1.6447,-1.7915,-1.9085,-2.0973,-2.2494,-2.3647,-2.4823,-2.5851,-2.6652,-2.7155,-2.7349,-2.7241,-2.5925,-2.384,-2.1357,-2.1031,-2.0271,-1.9188,0.0,0.0,0.0,0.0,0.0,0.0,0.0,0.0,0.0,0.0,0.0,0.0,0.0,0.0,0.0,0.0,0.0,0.0,0.0,0.0,0.0,0.0,0.0,0.0,0.0,0.0,0.0,0.0,0.0,0.0,0.0,0.0,0.0,0.0,-3.1607,-3.4246,-3.4972,-3.7965,-3.9218,-3.7301,-3.7549,-3.7973,-3.8282,-3.9561,-4.0498,-4.1026,-4.216,-4.2763,-4.2763,-4.2638,-4.2557,-4.2594,-4.1668,-4.1204,-4.1187,-4.0661,-4.0353,-4.0238,-4.0451,-4.0451,-4.0204,-3.945,-3.8631,-3.7766,-3.7047,-3.4778,-3.1729,-3.1197,-3.0222,-2.9075,-2.8591,-2.7908,-2.703,0.0,0.0,0.0,0.0,0.0,0.0,0.0,-0.7413,-0.7542,-0.7696,-0.8294,-0.9023,-0.9817,-1.0975,-1.2004,-1.2748,-1.3216,-1.3284,-1.2856,-1.2734,-1.2533,-1.2199,-1.363,-1.4773,-1.5459,-1.7564,-1.8968,-1.9644,-2.0717,-2.1731,-2.2718,-2.3864,-2.5243,-2.6852,-2.7274,-2.799,-2.8825,-2.8324,-2.6603,-2.4147,-2.3204,-2.2703,-2.2242,0.0,0.0,0.0,0.0,0.0,0.0,0.0,0.0,0.0,0.0,0.0,0.0,0.0,0.0,0.0,0.0,0.0,0.0,0.0,0.0,0.0,0.0,0.0,0.0,0.0,0.0,0.0,0.0,0.0,0.0,0.0,0.0,0.0,-2.9969,-3.3579,-3.6198,-3.6111,-4.0461,-4.2442,-3.9785,-4.2038,-4.3367,-4.2655,-4.3267,-4.377,-4.3935,-4.406,-4.4131,-4.4131,-4.3648,-4.3344,-4.3205,-4.1876,-4.1212,-4.1178,-4.0443,-4.0096,-4.0096,-4.0113,-4.0096,-4.0062,-3.9309,-3.8509,-3.7638,-3.6888,-3.5067,-3.2757,-3.2724,-3.1939,-3.072,-2.9535,-2.8365,-2.7149,0.0,0.0,0.0,0.0,0.0,0.0,-0.7009,-0.7268,-0.7482,-0.7815,-0.8519,-0.9221,-0.9835,-1.0722,-1.1765,-1.2974,-1.2758,-1.2854,-1.3558,-1.2858,-1.2821,-1.3742,-1.4859,-1.6036,-1.7275,-1.9092,-2.0211,-2.0539,-2.1435,-2.2283,-2.316,-2.3754,-2.4533,-2.5408,-2.624,-2.7115,-2.7963,-2.8302,-2.81,-2.7429,-2.5671,-2.4253,-2.3094,0.0,0.0,0.0,0.0,0.0,0.0,0.0,0.0,0.0,0.0,0.0,0.0,0.0,0.0,0.0,0.0,0.0,0.0,0.0,0.0,0.0,0.0,0.0,0.0,0.0,0.0,0.0,0.0,0.0,0.0,0.0,-3.0974,-3.3301,-3.412,-3.6942,-3.9841,-4.2406,-4.4144,-4.5071,-4.4821,-4.5036,-4.5119,-4.4903,-4.5161,-4.5338,-4.5263,-4.49,-4.4677,-4.4677,-4.4065,-4.3487,-4.2936,-4.211,-4.1426,-4.0915,-4.016,-3.9893,-4.0113,-3.9986,-3.9935,-3.9901,-3.9177,-3.8472,-3.7774,-3.6842,-3.5522,-3.4011,-3.327,-3.1682,-2.9746,-2.9335,-2.8179,-2.676,0.0,0.0,0.0,0.0,0.0,0.0,-0.6756,-0.6966,-0.7214,-0.7821,-0.8608,-0.9263,-0.9697,-1.0382,-1.1185,-1.2088,-1.203,-1.2173,-1.2728,-1.275,-1.3231,-1.4354,-1.5796,-1.7172,-1.8525,-1.9873,-2.0781,-2.1135,-2.1469,-2.189,-2.2461,-2.3672,-2.4425,-2.475,-2.6475,-2.7455,-2.7896,-2.8583,-2.8787,-2.8642,-2.7828,-2.6806,-2.5608,-2.4208,-2.3816,-2.3864,-2.2394,-2.249,-2.3052,-2.1589,0.0,0.0,0.0,0.0,0.0,0.0,0.0,0.0,0.0,0.0,0.0,0.0,0.0,0.0,0.0,0.0,0.0,0.0,0.0,0.0,0.0,0.0,0.0,0.0,-3.4159,-3.6973,-3.876,-4.0117,-4.2029,-4.4934,-4.5486,-4.5943,-4.6683,-4.6157,-4.5764,-4.5764,-4.6061,-4.5832,-4.4935,-4.5039,-4.4731,-4.3859,-4.3797,-4.3293,-4.2298,-4.1903,-4.1211,-4.0282,-3.964,-3.9461,-3.9722,-3.9566,-3.9504,-3.9391,-3.8617,-3.7956,-3.7292,-3.6058,-3.4875,0.0,0.0,0.0,0.0,0.0,-2.7953,-2.6986,0.0,0.0,0.0,0.0,0.0,0.0,-0.6426,-0.6561,-0.6891,-0.7794,-0.8584,-0.9149,-0.9396,-0.9978,-1.0475,-1.066,-1.1057,-1.1272,-1.118,-1.251,-1.37,-1.4573,-1.6535,-1.8152,-1.9336,-2.0282,-2.0997,-2.1461,-2.1125,-2.1053,-2.1257,-2.3477,-2.4439,-2.4403,-2.6944,-2.8061,-2.8084,-2.8715,-2.8884,-2.8807,-2.9602,-2.9497,-2.8587,-2.6303,-2.6215,-2.6954,-2.4418,-2.3977,-2.4423,-2.3268,0.0,0.0,0.0,0.0,0.0,0.0,0.0,0.0,0.0,0.0,0.0,0.0,0.0,0.0,0.0,0.0,0.0,0.0,0.0,0.0,0.0,0.0,0.0,0.0,-3.7443,-4.0492,-4.3167,-4.2938,-4.3277,-4.5327,-4.5484,-4.5765,-4.6609,-4.612,-4.5697,-4.5697,-4.6179,-4.5674,-4.3835,-4.4706,0.0,0.0,0.0,-4.2717,-4.1342,-4.1216,-4.0566,-3.9345,-3.8872,-3.8772,-3.9028,-3.892,-3.8772,-3.8618,-3.7916,-3.7252,-3.6596,-3.5102,-3.379,-3.273,-3.2428,-3.1549,-3.0258,-2.8521,-2.7775,-2.751,0.0,0.0,0.0,0.0,0.0,0.0,-0.61,-0.629,-0.6669,-0.7762,-0.8399,-0.8806,-0.886,-0.9362,-0.9913,-1.0411,-0.9937,-1.0009,-1.0978,-1.2556,-1.4194,-1.5847,-1.7417,-1.8711,-1.9775,-2.1006,-2.1504,-2.1271,-2.1192,-2.1223,-2.1471,-2.2312,-2.2757,-2.2971,-2.4807,-2.6184,-2.7164,-2.7508,-2.8696,-3.0281,-3.0131,-2.9403,-2.8384,-2.8225,-2.777,-2.719,-2.6324,-2.6405,-2.6688,-2.5083,-2.5186,-2.5743,-2.4121,-2.2974,0.0,0.0,0.0,0.0,0.0,0.0,0.0,0.0,0.0,0.0,0.0,0.0,0.0,0.0,0.0,0.0,0.0,0.0,0.0,-3.6965,-3.988,-4.252,-4.4639,-4.4354,-4.4854,-4.7384,-4.648,-4.6099,-4.7303,-4.6391,-4.5697,-4.5697,-4.5805,-4.5477,-4.4547,-4.4154,-4.3522,-4.2563,-4.2139,-4.1167,-3.9692,-3.9752,-3.9143,-3.7825,0.0,0.0,-3.808,-3.7937,-3.7851,-3.7822,-3.7678,-3.7266,-3.6624,-3.5578,-3.4077,-3.2357,-3.0975,-3.0058,-2.9469,-2.8721,-2.8079,-2.7585,0.0,0.0,0.0,0.0,0.0,0.0,-0.5304,-0.5769,-0.6344,-0.7268,-0.8036,-0.8512,-0.8512,-0.8723,-0.8978,-0.9131,-0.9031,-0.938,-1.0387,-1.2238,-1.4088,-1.5876,-1.7376,-1.8853,-2.0382,-2.0847,-2.111,-2.119,-2.1016,-2.1055,-2.136,-2.219,-2.2754,-2.3217,-2.4669,-2.5844,-2.6726,-2.7224,-2.803,-2.8967,-2.9226,-2.8981,-2.849,-2.9395,-2.9264,-2.851,-2.7981,-2.79,-2.7792,-2.6337,-2.6166,-2.6325,-2.509,-2.4142,-2.3344,0.0,0.0,0.0,0.0,0.0,0.0,0.0,0.0,0.0,0.0,0.0,0.0,0.0,0.0,-3.0229,-3.1946,0.0,-3.679,-3.9815,-4.1735,-4.3419,-4.5065,-4.4721,-4.493,-4.6554,-4.5432,-4.4861,-4.5824,-4.5036,-4.451,-4.451,-4.4774,-4.44,-4.3137,-4.3234,-4.2739,-4.1436,-4.097,-4.0077,-3.8724,-3.8685,-3.8075,-3.6814,-3.6891,-3.7087,-3.7354,-3.7221,-3.7101,-3.7042,-3.7011,-3.6692,-3.6105,-3.4893,-3.3441,-3.1877,-3.1028,-3.0377,-2.9792,-2.8843,-2.8289,-2.7946,0.0,0.0,0.0,0.0,0.0,0.0,0.0,-0.5195,-0.5878,-0.6664,-0.7494,-0.804,-0.8096,-0.8185,-0.8115,-0.7802,-0.8446,-0.9181,-0.9903,-1.1911,-1.38,-1.5399,-1.7017,-1.868,-2.0416,-2.0351,-2.0594,-2.119,-2.0869,-2.0928,-2.1367,-2.2351,-2.315,-2.3731,-2.5034,-2.5931,-2.6573,-2.7217,-2.7532,-2.7715,-2.8241,-2.8533,-2.8754,-2.9788,-2.9949,-2.9553,-2.8976,-2.8434,-2.7885,-2.6962,-2.6456,-2.6131,-2.5651,-2.5052,-2.4304,-2.306,-2.3119,0.0,0.0,0.0,0.0,0.0,0.0,0.0,0.0,-2.6672,-2.7579,-2.9785,-3.1293,-3.297,-3.5395,-3.693,-3.8877,-4.2019,-4.3011,-4.3822,-4.5125,-4.4695,-4.4423,-4.4953,-4.3982,-4.3596,-4.4327,-4.3705,-4.325,-4.329,-4.3693,-4.3235,-4.1482,-4.2249,-4.1909,-4.0086,-3.9782,-3.9123,-3.8035,-3.7801,-3.7107,-3.6053,-3.6195,-3.6367,-3.6631,-3.6523,-3.6399,-3.6304,-3.6211,-3.5899,-3.5321,-3.4082,-3.2825,-3.1647,-3.1617,-3.1156,-3.0427,-2.925,-2.8643,-2.8319,0.0,0.0,0.0,0.0,0.0,0.0,0.0,0.0,-0.5167,-0.615,-0.6744,-0.7139,-0.7382,-0.7722,-0.7798,-0.7395,-0.8464,-0.942,-1.0051,-1.191,-1.3607,-1.4917,-1.6741,-1.8047,-1.8751,-1.9774,-2.0594,-2.119,-2.1142,-2.1387,-2.1816,-2.233,-2.2781,-2.3334,-2.4401,-2.5559,-2.6588,-2.6861,-2.7834,-2.916,-2.8397,-2.8554,-2.9176,-2.8855,-2.886,-2.8913,-2.8398,-2.7568,-2.6697,-2.6571,-2.6598,-2.6718,-2.6561,-2.6243,-2.5531,-2.3801,-2.3003,-2.2296,-2.0669,-2.1514,-2.3522,-2.6406,-2.6767,-2.7436,0.0,-3.1796,-3.1871,-3.3542,-3.4964,-3.6272,-3.7545,-3.8896,-4.0471,-4.259,-4.336,-4.4042,-4.5143,-4.4571,-4.4113,-4.4383,-4.3733,-4.3792,-4.5061,-4.3882,-4.3115,-4.329,-4.3195,-4.2628,-4.1444,-4.1346,-4.0748,-3.9526,-3.8715,-3.8043,-3.7507,-3.6761,-3.6118,-3.5602,-3.5424,-3.5442,-3.5651,-3.5651,-3.5634,-3.5587,-3.5409,-3.4969,-3.4356,-3.4078,-3.3263,-3.2184,-3.2018,-3.147,-3.0734,-3.0398,-2.9483,-2.8393,0.0,0.0,0.0,0.0,0.0,0.0,0.0,0.0,0.0,-0.5277,-0.6009,-0.6534,-0.6642,-0.7061,-0.7181,-0.6874,-0.7847,-0.869,-0.9146,-1.0884,-1.25,-1.3838,-1.5617,-1.7073,-1.8118,-1.9193,-2.014,-2.102,-2.115,-2.1541,-2.2256,-2.2432,-2.3008,-2.3906,-2.4542,-2.5365,-2.6347,-2.6736,-2.7295,-2.7945,-2.7388,-2.7729,-2.8356,-2.7263,-2.6677,-2.6425,-2.6589,-2.595,0.0,-2.4632,-2.4595,-2.469,-2.5018,-2.5019,-2.4596,-2.3182,-2.3013,-2.3349,-2.3487,-2.4462,-2.584,-2.7384,-2.9012,-3.0572,-3.2042,-3.2812,-3.3701,-3.547,-3.6897,-3.8216,-3.9447,-4.0429,-4.1553,-4.316,-4.3242,-4.3404,-4.4261,-4.3393,-4.2554,-4.2303,-4.165,-4.1954,-4.3767,-4.3384,-4.2832,-4.2396,-4.2461,-4.196,-4.0711,-4.0463,-4.001,-3.9258,-3.8053,-3.7316,-3.7104,-3.5999,-3.5333,-3.5148,-3.5082,-3.5082,-3.5148,-3.5148,-3.5148,-3.5148,-3.5082,-3.4664,-3.4058,-3.3897,-3.3115,-3.1985,-3.1787,-3.1286,-3.0644,-3.0292,-2.9468,-2.8534,0.0,0.0,0.0,0.0,0.0,0.0,0.0,0.0,0.0,0.0,-0.525,-0.5905,-0.6182,-0.6633,-0.6826,-0.6616,-0.7442,-0.8114,-0.8497,-0.9932,-1.1371,-1.2735,-1.4506,-1.6181,-1.7803,-1.868,-1.9845,-2.1318,-2.1384,-2.1814,-2.2685,-2.2685,-2.3242,-2.434,-2.4605,-2.5162,-2.6066,-2.6542,-2.6767,-2.6666,-2.648,-2.6639,-2.6821,-2.5558,-2.4465,-2.3757,-2.453,-2.3904,-2.2697,-2.233,-2.2293,-2.2548,-2.3125,-2.3414,-2.3339,-2.2372,-2.2461,-2.328,-2.5079,-2.64,-2.7594,-2.8856,-3.1391,-3.3501,-3.3176,-3.4211,-3.5589,-3.6831,-3.7868,-3.8885,-3.9982,-4.0533,-4.1268,-4.2618,-4.2493,-4.2522,-4.3293,-4.2235,-4.1209,-4.087,-4.002,-4.0064,-4.1636,-4.1932,-4.1878,-4.1479,-4.1597,-4.1187,-4.0069,-3.9837,-3.9416,-3.8794,-3.752,-3.6752,-3.663,-3.5442,-3.4868,-3.4902,-3.4868,-3.4835,-3.4835,-3.4802,-3.4769,-3.4754,-3.4578,-3.4226,-3.3721,-3.3271,-3.2449,-3.1418,-3.1231,-3.0573,-2.9709,-2.9578,-2.9117,-2.8527,0.0,0.0,0.0,0.0,0.0,0.0,0.0,0.0,0.0,0.0,0.0,0.0,0.0,-0.6605,-0.6887,-0.6888,-0.7449,-0.804,-0.8549,-0.9446,-1.0496,-1.1792,-1.3569,-1.5545,-1.7657,-1.8316,-1.987,-2.2428,-2.207,-2.2295,-2.3081,-2.3081,-2.3448,-2.4133,-2.432,-2.4947,-2.5826,-2.6315,-2.6388,-2.6222,-2.6026,-2.5373,-2.4534,-2.377,-2.2545,-2.1363,-2.24,-2.1432,-1.9662,-1.9834,-2.0302,-2.0867,-2.1421,-2.1933,-2.2246,-2.1681,-2.0953,-2.0978,-2.3928,-2.5771,-2.7696,-3.1428,-3.3947,-3.5687,-3.6321,-3.7448,-3.8245,-3.784,-3.7853,-3.8068,-3.8494,-3.8589,-3.9042,-4.0398,-4.0902,-4.1499,-4.2589,-4.1469,-4.0607,-4.0772,-3.9516,-3.8655,-3.8714,-3.9256,-3.9933,-4.0781,-4.0661,-4.0329,-3.9843,-3.9633,-3.9023,-3.7978,-3.7057,-3.6377,-3.5922,-3.5121,-3.4783,-3.4902,-3.475,-3.4698,-3.4698,-3.4515,-3.4414,-3.437,-3.3732,-3.3343,-3.3134,-3.2023,-3.1176,-3.0538,-3.0373,-2.916,-2.7575,-2.8269,-2.8454,-2.8328,0.0,0.0,0.0,0.0,0.0,0.0,0.0,0.0,0.0,0.0,0.0,0.0,0.0,0.0,0.0,0.0,-0.678,-0.7558,-0.8042,-0.9048,-0.9903,-1.0516,-1.2249,-1.3776,-1.5081,-1.6979,-1.8744,-2.0436,-2.1124,-2.1885,-2.2682,-2.2682,-2.3149,-2.3934,-2.4296,-2.4695,-2.5149,-2.5366,-2.535,-2.5182,-2.4272,-2.3971,-2.3804,-2.1675,-2.0293,-1.9371,0.0,-1.8528,-1.8363,-1.8245,-1.8353,-1.8605,-1.9133,-1.9685,-2.0136,-2.0326,-2.1241,-2.2663,-2.4896,-2.7966,-3.1114,-3.36,-3.6206,-3.8098,-3.7732,-3.8418,-3.8852,-3.7689,-3.6449,-3.5618,-3.5752,-3.5796,-3.6183,-3.7514,-3.9242,-4.071,-4.1525,-4.1208,-4.0465,-3.9229,-3.8279,-3.7397,-3.6574,-3.7952,-3.8954,-3.9069,-3.9203,-3.9138,-3.8942,-3.8762,-3.8331,-3.7703,-3.6721,-3.5925,-3.5378,-3.465,-3.4278,-3.421,-3.377,-3.3785,-3.4157,-3.3667,-3.3253,-3.2863,-3.265,-3.2075,-3.1326,-3.0814,-2.9974,-2.8983,-2.916,-2.8271,-2.6974,-2.7215,-2.6961,-2.6529,0.0,0.0,0.0,0.0,0.0,0.0,0.0,0.0,0.0,0.0,0.0,0.0,0.0,0.0,0.0,0.0,0.0,-0.6924,-0.745,-0.838,-0.9087,-0.9558,-1.0954,-1.2278,-1.3519,-1.5325,-1.6976,-1.8383,-1.9478,-2.0401,-2.1236,-2.1473,-2.2083,-2.3044,-2.3384,-2.3789,-2.4133,-2.423,-2.3965,-2.3353,-2.2583,-2.1991,-2.1355,-1.9539,-1.824,0.0,-1.6479,-1.6452,-1.6786,-1.6917,-1.71,-1.7362,-1.8005,-1.8706,-1.9472,-2.0449,-2.2119,-2.4341,-2.739,-3.0671,-3.3753,-3.5906,-3.8017,-3.9387,-3.8605,-3.8696,-3.8553,-3.7215,-3.5074,-3.347,-3.3566,-3.311,-3.3297,-3.4865,-3.678,-3.8623,-4.0191,-4.0031,-3.9523,-3.8942,-3.813,-3.7302,-3.6496,-3.739,-3.7986,-3.7883,-3.8227,-3.8396,-3.8306,-3.8051,-3.7694,-3.7288,-3.6207,-3.5324,-3.4676,-3.4228,-3.3859,-3.3591,-3.2868,-3.2761,-3.3143,-3.2583,-3.2047,-3.148,-3.1226,-3.0596,-2.9651,-2.8985,-2.8291,-2.765,-2.7478,-2.6778,-2.5826,-2.5832,-2.5288,-2.4644,0.0,0.0,0.0,0.0,0.0,0.0,0.0,0.0,0.0,0.0,0.0,0.0,0.0,0.0,0.0,0.0,0.0,0.0,-0.687,-0.7456,-0.8145,-0.8935,-0.9796,-1.1077,-1.289,-1.353,-1.4706,-1.6478,-1.7298,-1.8081,-1.8826,-1.9451,-2.0349,-2.1422,-2.1616,-2.2079,-2.2673,-2.2852,-2.206,-2.0773,-2.0835,-1.9476,-1.7451,-1.7408,-1.6444,-1.5179,-1.5334,-1.5193,-1.504,-1.5917,-1.6655,-1.7339,-1.8158,-1.9158,-2.0343,-2.2068,-2.3646,-2.5934,-3.1037,-3.3663,-3.5552,-3.8203,-3.9359,-3.9686,-3.8942,-3.8294,-3.752,-3.6331,-3.3647,-3.1549,-3.1718,-3.0617,-3.0395,-3.2501,-3.3821,-3.5691,-3.8812,-3.826,-3.8188,-3.99,-3.903,-3.826,-3.8159,-3.748,-3.7111,-3.7229,-3.7802,-3.806,-3.7891,-3.7451,-3.7053,-3.6602,-3.5474,-3.4533,-3.3779,-3.3692,-3.3415,-3.2903,-3.2137,-3.1746,-3.1706,-3.1278,-3.0787,-3.0226,-2.9579,-2.8908,-2.8169,-2.6675,-2.6302,-2.6489,-2.549,-2.473,-2.4259,-2.4236,-2.3597,-2.2911,0.0,0.0,0.0,0.0,0.0,0.0,0.0,0.0,0.0,0.0,0.0,0.0,0.0,0.0,0.0,0.0,0.0,0.0,-0.6842,-0.7333,-0.7821,-0.8366,-0.9154,-0.9953,-1.0786,-1.2295,-1.3591,-1.4666,-1.5714,-1.6732,-1.7625,-1.7696,-1.8172,-1.8935,-1.917,-1.9396,-1.9511,-1.9218,-1.8973,-1.866,-1.7843,-1.7263,-1.6799,-1.5866,-1.5126,-1.456,-1.4321,-1.4462,-1.4934,-1.6102,-1.7957,-1.9947,-2.0939,-2.2033,-2.3168,-2.4418,-2.6915,-2.9766,-3.2019,-3.528,-3.8306,-3.9479,-4.0177,-4.0208,-3.8953,-3.7925,-3.6432,-3.3556,-3.0708,-2.8329,-2.7102,-2.7726,-2.8947,-3.063,-3.4461,-3.7854,-3.9625,-4.0452,-4.0684,-4.0162,-3.9813,-3.9073,-3.768,-3.7639,-3.7295,-3.642,-3.6923,-3.7388,-3.7672,-3.6883,-3.6104,-3.5391,-3.4042,-3.2966,-3.2112,-3.1964,-3.1884,-3.1882,-3.1206,-3.0834,-3.0718,-3.017,-2.9333,-2.8283,-2.8142,-2.7468,-2.6524,-2.6099,-2.5688,-2.5247,-2.4964,-2.4499,-2.3866,-2.3309,-2.303,-2.2897,0.0,0.0,0.0,0.0,0.0,0.0,0.0,0.0,0.0,0.0,0.0,0.0,0.0,0.0,0.0,0.0,0.0,0.0,0.0,-0.7166,-0.7681,-0.8062,-0.8536,-0.8979,-0.9306,-1.0624,-1.1579,-1.2162,-1.3417,-1.451,-1.5442,-1.5714,-1.6343,-1.7181,-1.732,-1.7503,-1.7629,-1.7248,-1.6894,0.0,0.0,-1.5377,-1.5039,-1.4368,-1.3982,-1.3796,-1.3603,-1.4704,-1.6453,-1.7889,-1.9875,-2.1945,-2.3062,-2.418,-2.5451,-2.7243,-2.9421,-3.1686,-3.3991,-3.6607,-3.8809,-3.9405,-3.9201,-3.8416,-3.6864,-3.5218,-3.3234,-3.0347,-2.7658,-2.5617,-2.4856,-2.5577,-2.6946,-2.8863,-3.2587,-3.6077,-3.8355,-3.9584,-4.0379,-4.0634,-4.0363,-3.9786,-3.8706,-3.7971,-3.7252,-3.6532,-3.6701,-3.6753,-3.661,-3.5582,-3.484,-3.4478,-3.2898,-3.1767,-3.1198,-3.0585,-3.0482,-3.0846,-3.0241,-2.9859,-2.9693,-2.9114,-2.8275,-2.727,-2.7046,-2.6471,-2.5629,-2.5397,-2.5182,-2.4945,-2.4289,-2.3887,-2.3565,-2.2682,-2.2377,-2.2341,0.0,0.0,0.0,0.0,0.0,0.0,0.0,0.0,0.0,0.0,0.0,0.0,0.0,0.0,0.0,0.0,0.0,0.0,0.0,0.0,-0.7601,-0.7901,-0.8088,-0.8275,-0.8395,-0.9021,-0.9536,-0.9917,-1.1081,-1.2184,-1.3148,-1.3773,-1.4639,-1.5674,-1.5674,-1.5859,-1.6161,-1.596,-1.5358,-1.4529,-1.4414,-1.3866,-1.3075,0.0,-1.3142,-1.3109,-1.3274,-1.5322,-1.8255,-2.0206,-2.2102,-2.3835,-2.4888,-2.6113,-2.7637,-3.0098,-3.1384,-3.2763,-3.6066,-3.7498,-3.8175,-3.8729,-3.755,-3.5817,-3.401,-3.1793,-2.9462,-2.7086,-2.483,-2.3373,-2.3609,-2.3933,-2.4998,-2.7536,-3.0027,-3.2883,-3.651,-3.7676,-3.8921,-4.1052,-4.066,-4.0216,-4.0176,-3.8256,-3.6981,-3.6815,-3.6375,-3.58,-3.5144,-3.399,-3.3327,-3.3237,-3.164,-3.0696,-3.0552,-2.9537,-2.9314,-2.9845,-2.9353,-2.8964,-2.867,-2.8135,-2.746,-2.6716,-2.6201,-2.5697,-2.524,-2.4749,-2.4833,-2.5132,-2.367,-2.3263,-2.3325,-2.2221,-2.1717,-2.1496,0.0,0.0,0.0,0.0,0.0,0.0,0.0,0.0,0.0,0.0,-0.3749,-0.3694,0.0,0.0,0.0,0.0,0.0,0.0,0.0,0.0,0.0,-0.7875,-0.8088,-0.8275,-0.8395,-0.885,-0.9536,-1.0466,-1.0476,-1.1285,-1.2773,-1.2478,-1.2716,-1.3453,-1.3453,-1.3502,-1.357,-1.3518,-1.34,-1.3228,-1.3199,-1.3081,-1.2954,-1.3075,0.0,0.0,-1.3764,-1.5218,-1.7339,-2.1009,-2.4193,-2.6678,-2.7331,-2.8913,-3.0735,-3.1647,-3.3078,-3.4717,-3.6246,-3.7522,-3.8434,-3.8527,-3.7407,-3.5628,-3.3125,-3.0909,-2.8335,-2.4644,-2.2972,-2.1907,-2.1043,-2.2298,-2.452,-2.7712,-3.0488,-3.3539,-3.7221,-3.8595,-3.9565,-4.0551,-4.0251,-3.9849,-3.9521,-3.7813,-3.631,-3.5279,-3.4168,-3.3734,-3.4112,-3.2751,-3.1345,-2.9972,-2.9458,-2.9202,-2.9162,-2.8958,-2.891,-2.8988,-2.9091,-2.8768,-2.8123,-2.7588,-2.6829,-2.5944,-2.5481,0.0,-2.5111,-2.4862,-2.4909,-2.5052,-2.4164,-2.3548,-2.304,-2.19,-2.124,-2.0798,0.0,0.0,0.0,0.0,0.0,0.0,0.0,-0.3913,-0.424,-0.4964,-0.4777,-0.4492,-0.4276,-0.446,0.0,0.0,0.0,0.0,0.0,0.0,0.0,-0.8035,-0.8295,-0.8501,-0.8718,-0.9028,-0.9647,-1.0507,0.0,-1.0989,-1.2175,-1.2051,-1.2249,-1.27,-1.2832,-1.2905,-1.2905,-1.2905,-1.2905,-1.2905,-1.2905,-1.3042,-1.3203,-1.3288,0.0,0.0,-1.3912,-1.5175,-1.7103,-1.9652,-2.2731,-2.5985,-2.8575,-3.0319,-3.1612,-3.2754,-3.373,-3.478,-3.6488,-3.736,-3.7834,-3.7834,-3.6411,-3.4189,-3.0765,-2.8359,-2.5748,-2.2003,-2.0884,-2.0478,-2.0066,-2.1454,-2.3458,-2.5837,-2.8075,-3.0743,-3.4255,-3.5523,-3.6726,-3.8422,-3.8222,-3.7923,-3.7762,-3.5991,-3.4525,-3.3606,-3.2223,-3.1776,-3.2663,-3.135,-3.0017,-2.884,-2.8697,-2.8657,-2.8657,-2.8657,-2.8657,-2.8657,-2.8657,-2.8524,-2.8207,-2.7196,-2.638,-2.5695,-2.4865,-2.4299,-2.3998,-2.39,-2.39,-2.3916,-2.3189,-2.2677,-2.2199,-2.1053,-2.0424,-2.002,0.0,0.0,0.0,0.0,0.0,0.0,0.0,-0.4187,-0.4727,-0.579,-0.5892,-0.5659,-0.5022,-0.5227,-0.5455,0.0,0.0,0.0,0.0,0.0,0.0,0.0,0.0,0.0,-0.8903,0.0,0.0,-1.0446,-1.0437,0.0,0.0,0.0,0.0,0.0,-1.2783,-1.2905,-1.2905,-1.2905,-1.2905,0.0,0.0,-1.3213,-1.3516,0.0,0.0,0.0,0.0,-1.5061,-1.6729,-1.7977,-2.0372,-2.3481,-2.7397,-2.9747,-3.1286,-3.2449,-3.3301,-3.4324,-3.6295,-3.6923,-3.6973,-3.6812,-3.5132,-3.2469,-2.8499,-2.5906,-2.3362,-2.0018,-1.9316,-1.9382,-1.9604,-2.0748,-2.2212,-2.3867,-2.5405,-2.7566,-3.1025,-3.224,-3.368,-3.6098,-3.608,-3.5903,-3.5865,-3.4095,-3.2749,-3.2185,-3.0731,-3.0163,-3.0898,-2.9898,-2.8948,-2.8179,-2.8299,-2.8231,-2.7914,-2.8047,-2.8127,-2.8127,-2.7834,-2.7815,-2.7977,-2.6679,-2.5727,-2.5084,-2.42,-2.3486,-2.2883,-2.2883,-2.2894,-2.285,-2.2213,-2.1781,-2.1371,-2.0263,-1.9643,-1.9293,0.0,0.0,0.0,0.0,0.0,0.0,0.0,-0.4822,-0.5489,-0.5616,-0.651,-0.696,-0.6453,-0.643,-0.6215,0.0,0.0,0.0,0.0,0.0,0.0,0.0,0.0,0.0,0.0,0.0,0.0,-1.0568,-1.0344,0.0,0.0,0.0,0.0,0.0,0.0,-1.2905,-1.2905,-1.2905,0.0,0.0,0.0,0.0,0.0,0.0,0.0,0.0,0.0,-1.4639,-1.5603,-1.7234,-1.8437,-1.9624,-2.1522,-2.5752,-2.9828,-2.9246,-3.1372,-3.4161,-3.532,-3.6056,-3.632,-3.5572,-3.3744,-3.1211,-2.7483,-2.4951,-2.2598,-1.9634,-1.904,-1.904,-1.9066,-1.9685,-2.0937,-2.3299,-2.4228,-2.6037,-3.0042,-3.149,-3.2738,-3.45,-3.4807,-3.4736,-3.4507,-3.3033,-3.1923,-3.143,-3.0138,-2.9176,-2.8791,-2.8499,-2.7921,-2.6987,-2.7603,-2.7319,-2.608,-2.6648,-2.6946,-2.6935,-2.6318,-2.6177,-2.6382,-2.5688,-2.4626,-2.3332,-2.3534,-2.3165,0.0,-2.2467,-2.2542,-2.2692,-2.2242,-2.1742,-2.1108,-2.0046,-1.9281,-1.8657,0.0,0.0,0.0,0.0,0.0,0.0,-0.4618,-0.5203,-0.5908,-0.6756,-0.7272,-0.7467,-0.7272,-0.7488,-0.736,0.0,0.0,0.0,0.0,0.0,0.0,0.0,0.0,0.0,0.0,0.0,-1.0205,-1.095,-1.0948,0.0,0.0,0.0,0.0,0.0,0.0,-1.2905,-1.2905,-1.2905,0.0,0.0,0.0,0.0,0.0,0.0,0.0,0.0,0.0,0.0,-1.5103,-1.5912,-1.662,-1.7268,-1.7813,-2.0779,-2.4532,-2.6882,-2.9227,-3.1626,-3.435,-3.5709,-3.6254,-3.559,-3.336,-3.0421,-2.704,-2.4223,-2.1666,-1.9233,-1.8881,-1.8987,-1.8987,-1.9486,-2.0289,-2.1597,-2.2047,-2.3267,-2.624,-2.7069,-2.8477,-3.1443,-3.1992,-3.2451,-3.3318,-3.2157,-3.0839,-2.9709,-2.9023,-2.8486,-2.8174,-2.7817,-2.7336,-2.6812,-2.6712,-2.6381,-2.583,-2.6069,-2.6193,-2.6193,-2.5819,-2.5537,-2.5393,-2.4589,-2.3538,-2.2348,-2.2078,-2.1538,0.0,-2.0895,-2.0944,-2.0972,-2.0702,-2.044,-2.0139,-1.9355,-1.876,-1.8286,0.0,0.0,0.0,0.0,0.0,-0.5062,-0.5222,-0.5746,-0.6457,-0.7455,-0.7678,-0.7761,-0.7761,-0.8011,-0.799,-0.7526,0.0,0.0,0.0,0.0,0.0,0.0,0.0,0.0,0.0,0.0,-1.036,-1.1097,-1.1407,-1.1789,0.0,0.0,-1.2593,-1.2275,0.0,0.0,0.0,0.0,0.0,0.0,0.0,0.0,0.0,0.0,0.0,0.0,0.0,0.0,0.0,0.0,0.0,-1.5662,-1.5396,-1.686,-1.9468,-2.3582,-2.6572,-2.9169,-3.2106,-3.4105,-3.5193,-3.4424,-3.1962,-2.8943,-2.5969,-2.2977,-2.0328,-1.8556,-1.8348,-1.8483,-1.8483,-1.9017,-1.9544,-1.9784,-2.0264,-2.1195,-2.2953,-2.3506,-2.4907,-2.8008,-2.8706,-2.948,-3.0903,-3.0238,-2.9231,-2.8078,-2.7661,-2.7389,-2.7196,-2.6682,-2.6381,-2.6329,-2.5788,-2.5326,-2.4904,-2.5105,-2.5189,-2.5105,-2.4724,-2.4378,-2.408,-2.3253,-2.228,-2.1204,-2.0985,-2.0479,0.0,-1.9863,-1.9902,-1.9863,-1.9676,-1.9606,-1.9511,-1.89,-1.854,-1.8228,0.0,0.0,0.0,0.0,0.0,0.0,-0.5645,-0.6561,-0.7289,-0.7289,-0.7655,-0.7901,-0.7901,-0.7907,-0.7907,-0.7901,0.0,0.0,0.0,0.0,0.0,0.0,0.0,0.0,0.0,0.0,-1.0263,-1.0801,-1.1597,-1.2195,-1.2602,-1.3022,-1.2977,-1.2611,0.0,0.0,0.0,0.0,0.0,0.0,0.0,0.0,0.0,0.0,0.0,0.0,0.0,0.0,0.0,0.0,0.0,0.0,0.0,-1.4453,-1.5507,-1.8901,-2.3363,-2.7384,-2.8144,-3.0616,-3.2597,-3.1267,-2.9099,-2.6541,-2.3926,-2.1003,-1.8511,-1.7437,-1.723,-1.723,-1.723,-1.8039,-1.8542,-1.8097,-1.9208,-2.0314,-2.0941,-2.1869,-2.3045,-2.4484,-2.5115,-2.586,-2.6846,-2.6909,-2.6835,-2.6812,-2.6193,-2.5735,-2.5537,-2.4872,-2.4754,-2.52,-2.4967,-2.4155,-2.2838,-2.3507,-2.3714,-2.3497,-2.2629,-2.2243,-2.2196,-2.1749,-2.0848,-1.9685,-2.0518,-2.0401,0.0,-1.9824,-1.9902,-1.9863,-1.9676,-1.9606,-1.9511,-1.89,-1.8715,-1.8557,0.0,0.0,0.0,0.0,0.0,0.0,0.0,-0.6939,-0.7396,-0.7676,-0.7815,-0.7901,-0.7901,-0.7901,-0.7901,-0.7901,0.0,0.0,0.0,0.0,0.0,0.0,0.0,0.0,0.0,0.0,-1.0325,-1.1558,-1.153,-1.2028,-1.3012,-1.3087,-1.2949,-1.2629,-1.309,-1.307,0.0,0.0,0.0,0.0,0.0,0.0,-1.5147,0.0,0.0,0.0,0.0,0.0,0.0,0.0,0.0,0.0,0.0,0.0,0.0,-1.6412,-1.95,-2.2855,-2.4602,-2.6304,-2.7366,-2.6604,-2.4723,-2.274,-2.1296,-1.9291,-1.7556,-1.7026,-1.7062,-1.7202,-1.7202,-1.7755,-1.8247,-1.8262,-1.9018,-1.9768,-2.0129,-2.1099,-2.2429,-2.4266,-2.6097,-2.7121,-2.6735,-2.6699,-2.6506,-2.6133,-2.5777,-2.5579,-2.5484,-2.4744,-2.4284,-2.4231,-2.3734,-2.3135,-2.253,-2.274,-2.2674,-2.2318,-2.2064,-2.1583,-2.0888,-2.0754,-2.0219,-1.9429,-1.9696,-1.9657,-1.939,-1.946,-1.9254,-1.8916,-1.9122,-1.8958,-1.8605,-1.8837,-1.835,-1.7601,0.0,0.0,0.0,0.0,0.0,0.0,0.0,-0.7321,-0.7622,-0.7875,-0.7901,-0.7901,-0.7901,-0.7901,-0.7937,-0.8039,0.0,0.0,0.0,0.0,0.0,0.0,0.0,0.0,0.0,-0.9765,-1.0456,-1.148,-1.1886,-1.2494,-1.3271,-1.3531,-1.3441,-1.3094,-1.3216,-1.3009,0.0,0.0,0.0,0.0,0.0,0.0,-1.4704,0.0,0.0,0.0,0.0,0.0,0.0,0.0,0.0,0.0,0.0,0.0,0.0,0.0,-1.6819,-1.8874,-2.1152,-2.2903,-2.3962,-2.3423,-2.1901,-2.0347,-1.9511,-1.7856,-1.6472,-1.6312,-1.6397,-1.651,-1.6454,-1.683,-1.7174,-1.711,-1.7874,-1.8466,-1.856,-1.9671,-2.1178,-2.2946,-2.5047,-2.6055,-2.5462,-2.5562,-2.5509,-2.5084,-2.4691,-2.4435,-2.4349,-2.38,-2.343,-2.3159,-2.2828,-2.253,-2.2309,-2.2264,-2.2014,-2.1558,-2.1494,-2.0988,-2.0138,-1.9972,-1.9586,-1.8964,-1.9119,-1.8979,0.0,-1.8783,-1.8533,-1.8085,-1.8133,-1.7965,-1.7757,-1.7912,-1.7542,-1.6931,0.0,0.0,0.0,0.0,0.0,0.0,0.0,-0.7649,-0.7901,-0.7901,-0.7901,-0.7901,-0.7901,-0.7901,-0.8003,-0.8267,0.0,0.0,0.0,0.0,0.0,0.0,0.0,0.0,0.0,-1.0219,-1.0639,-1.0883,-1.249,-1.3339,-1.3428,-1.4121,-1.4238,-1.3837,-1.3249,-1.2833,0.0,0.0,0.0,0.0,0.0,0.0,0.0,0.0,0.0,0.0,0.0,0.0,0.0,0.0,0.0,0.0,0.0,0.0,0.0,0.0,0.0,0.0,0.0,-2.011,-2.1754,-2.1283,-2.0154,-1.9005,-1.8298,-1.6698,0.0,-1.5381,-1.5381,-1.5342,-1.5244,-1.5522,-1.5586,-1.5142,-1.6081,-1.6792,-1.661,-1.8081,-1.9673,-2.0994,-2.251,-2.3399,-2.3326,-2.3781,-2.3983,-2.3757,-2.3125,-2.2662,-2.2388,-2.2397,-2.2264,-2.2097,-2.2264,-2.2255,-2.2006,-2.2006,-2.1695,-2.0973,-2.087,-2.044,-1.9798,-1.9408,-1.8888,0.0,-1.8719,-1.8351,-1.7565,-1.7826,-1.7717,-1.7345,-1.6809,-1.6728,-1.6857,-1.6435,-1.6389,-1.6409,0.0,0.0,0.0,0.0,0.0,0.0,0.0,0.0,0.0,0.0,-0.7901,-0.7901,-0.7901,-0.7901,-0.8003,0.0,0.0,0.0,0.0,0.0,0.0,0.0,0.0,0.0,0.0,-0.983,-1.0542,-1.1791,-1.1965,-1.2591,-1.372,-1.3876,-1.3855,-1.3662,-1.3767,-1.3364,0.0,0.0,0.0,0.0,0.0,0.0,0.0,0.0,0.0,0.0,-1.3421,-1.3626,0.0,0.0,0.0,0.0,0.0,0.0,0.0,0.0,-1.4872,-1.5155,-1.5711,0.0,-1.6734,-1.6696,-1.6395,-1.6006,0.0,-1.5437,-1.5088,-1.5088,-1.5088,-1.5183,-1.5478,-1.5324,-1.5292,-1.5635,-1.6059,-1.6575,-1.7168,-1.9551,-2.1302,-2.1617,-2.2846,-2.3381,-2.2549,-2.2875,-2.3091,-2.3047,-2.2706,-2.2485,-2.2397,-2.2264,-2.2043,-2.1785,-2.182,-2.1673,-2.1351,-2.1351,-2.0854,-1.9942,-1.9934,-1.9566,-1.8977,-1.8565,-1.8285,-1.8148,-1.7513,-1.7132,-1.6863,-1.6483,-1.6035,-1.5554,-1.5723,-1.5524,-1.5232,-1.5795,-1.5526,-1.4844,0.0,0.0,0.0,0.0,0.0,0.0,0.0,0.0,0.0,0.0,0.0,0.0,0.0,0.0,0.0,0.0,0.0,0.0,0.0,0.0,0.0,0.0,0.0,-0.9549,-0.9883,-1.0158,-1.0733,-1.1584,-1.1885,-1.2446,-1.3313,-1.3741,-1.3755,-1.3441,-1.3144,-1.2543,0.0,0.0,0.0,0.0,-1.2127,0.0,0.0,0.0,0.0,0.0,-1.2617,-1.2874,0.0,-1.342,-1.3631,-1.3761,0.0,0.0,0.0,0.0,-1.4369,-1.4458,-1.4517,-1.4894,-1.5284,-1.5374,-1.5314,-1.5284,-1.5284,-1.5133,-1.497,-1.4813,-1.4872,-1.4977,-1.4953,-1.4973,-1.5128,-1.5479,-1.5974,-1.6769,-1.808,-1.9516,-2.0705,-2.1461,-2.2188,-2.2524,-2.2293,-2.2494,-2.2583,-2.2495,-2.2353,-2.2185,-2.1963,-2.183,-2.1651,-2.141,-2.1042,-2.0935,-2.1031,-2.0982,-2.0549,-1.9692,-1.9206,-1.8664,-1.8052,-1.7513,-1.6982,-1.6471,-1.6248,-1.5861,-1.5346,-1.5281,-1.4959,-1.4524,-1.4456,-1.4418,-1.4377,-1.4496,-1.424,-1.3818,0.0,0.0,0.0,0.0,0.0,0.0,0.0,0.0,0.0,0.0,0.0,0.0,0.0,0.0,0.0,0.0,0.0,0.0,0.0,0.0,0.0,0.0,0.0,-1.009,-1.018,-1.0627,-1.0941,-1.109,-1.1994,-1.2528,-1.2691,-1.3596,-1.3734,-1.3171,-1.222,-1.1508,0.0,0.0,0.0,0.0,-1.1751,0.0,0.0,0.0,0.0,0.0,0.0,0.0,0.0,-1.2559,-1.2896,-1.3199,-1.3132,0.0,0.0,0.0,0.0,0.0,-1.3731,-1.4558,-1.5346,-1.5315,-1.5345,-1.5343,-1.5287,-1.5006,-1.4695,-1.441,-1.4567,-1.4654,-1.43,-1.4579,-1.4898,-1.5058,-1.5964,-1.7234,-1.8953,-1.9164,-1.9608,-2.094,-2.1249,-2.1542,-2.2105,-2.2227,-2.2176,-2.2008,-2.1874,-2.1597,-2.1203,-2.1024,-2.0826,-2.0628,-1.998,-1.9901,-2.0496,-2.0386,-1.9972,-1.9287,-1.838,-1.762,-1.7027,-1.6354,-1.5505,-1.4583,0.0,0.0,-1.3637,-1.403,-1.3977,-1.3688,-1.3156,-1.329,-1.3645,-1.3041,-1.2894,-1.2988,0.0,0.0,0.0,0.0,0.0,0.0,0.0,0.0,0.0,0.0,0.0,0.0,0.0,0.0,0.0,0.0,0.0,0.0,0.0,0.0,0.0,-0.9706,-0.9738,-1.0002,-1.0508,-1.0343,-1.0629,-1.1411,-1.1868,-1.2242,-1.2538,-1.3249,-1.3325,-1.2841,-1.2333,-1.1959,-1.166,0.0,0.0,0.0,-1.1226,0.0,0.0,0.0,0.0,0.0,0.0,0.0,0.0,-1.1011,-1.1436,-1.185,-1.1564,0.0,0.0,0.0,0.0,0.0,-1.2726,-1.3461,-1.4222,-1.4092,-1.4153,-1.4178,-1.3887,-1.3757,-1.3722,-1.3662,-1.3692,-1.3857,-1.4272,-1.424,-1.4308,-1.4851,-1.6298,-1.791,-1.949,-2.0442,-2.0878,-2.0566,-2.1381,-2.1729,-2.1105,-2.1362,-2.1526,-2.1526,-2.0727,-2.0212,-2.013,-1.9301,-1.885,-1.8796,-1.8472,-1.8232,-1.8096,-1.8169,-1.775,-1.6922,-1.6483,-1.6133,-1.5849,-1.5165,-1.4652,-1.4313,0.0,-1.3094,-1.2746,-1.2308,-1.2109,-1.2077,-1.1966,-1.1981,-1.2091,-1.2241,-1.2208,-1.1961,0.0,0.0,0.0,0.0,0.0,0.0,0.0,0.0,0.0,0.0,0.0,0.0,0.0,0.0,0.0,0.0,0.0,0.0,0.0,0.0,0.0,-1.0021,-1.0155,-1.0357,-1.0659,-1.0591,-1.1021,-1.1942,-1.1921,-1.2184,-1.2646,-1.2579,-1.2457,-1.2335,-1.1739,-1.1344,-1.1153,-1.109,0.0,0.0,0.0,0.0,0.0,0.0,0.0,0.0,0.0,0.0,0.0,0.0,-1.0951,-1.1313,-1.1138,0.0,0.0,0.0,0.0,0.0,-1.2004,-1.2483,-1.2963,-1.2846,-1.3525,-1.4144,-1.3844,-1.3491,-1.3181,-1.3002,-1.2964,-1.3032,-1.3306,-1.3887,-1.4835,-1.6466,-1.7492,-1.843,-1.9359,-1.9707,-1.9934,-2.0066,-2.0539,-2.0693,-2.034,-2.0349,-2.0198,-1.9743,-1.914,-1.8766,-1.8588,-1.8142,-1.7874,-1.7739,-1.7235,-1.681,-1.6499,-1.6162,-1.6069,-1.627,-1.5551,-1.4999,-1.4563,-1.3794,-1.3271,-1.2858,0.0,-1.215,-1.1929,-1.1781,-1.1706,-1.1706,-1.1706,-1.1808,-1.1967,-1.1903,-1.1721,-1.1391,0.0,0.0,0.0,0.0,0.0,0.0,0.0,0.0,0.0,0.0,0.0,0.0,0.0,0.0,0.0,0.0,0.0,0.0,0.0,0.0,-1.0042,-1.0042,-1.0459,-1.0755,-1.0927,-1.1029,-1.149,-1.2305,-1.2078,-1.2234,-1.2663,-1.2055,-1.1806,-1.1819,-1.1149,-1.0749,-1.0593,-1.0593,-1.0593,0.0,0.0,0.0,0.0,0.0,0.0,0.0,0.0,0.0,0.0,0.0,0.0,0.0,0.0,0.0,0.0,-1.1373,-1.1373,-1.1373,-1.1373,-1.1628,-1.1908,-1.1797,-1.2814,-1.3859,-1.3836,-1.3398,-1.2945,-1.2822,-1.2806,-1.2752,-1.2563,-1.3529,-1.5073,-1.7261,-1.7929,-1.8327,-1.8871,-1.8733,-1.8768,-1.9315,-1.9427,-1.9431,-1.9356,-1.9203,-1.8774,-1.8108,-1.7678,-1.7406,-1.7188,-1.7012,-1.6837,-1.6705,-1.6066,-1.5573,-1.5255,-1.46,-1.4747,-1.558,-1.4631,-1.3912,-1.3379,-1.2647,-1.208,-1.1632,-1.1632,-1.1484,-1.126,-1.1446,-1.1484,-1.1484,-1.1484,-1.1659,-1.1821,-1.1304,-1.0958,-1.065,0.0,0.0,0.0,0.0,0.0,0.0,0.0,0.0,0.0,0.0,0.0,0.0,0.0,0.0,0.0,0.0,0.0,0.0,0.0,0.0,-0.9546,-0.9546,-1.0245,-1.0906,-1.1514,-1.1433,-1.169,-1.2305,-1.2278,-1.2291,-1.2325,-1.2027,-1.1725,-1.1444,-1.1136,-1.0841,-1.0593,-1.0593,-1.0593,-1.0593,0.0,0.0,0.0,0.0,0.0,0.0,0.0,0.0,0.0,0.0,0.0,0.0,0.0,0.0,-1.0688,-1.0688,-1.0688,-1.0688,-1.0688,-1.1067,-1.1397,-1.1128,-1.1669,-1.2472,-1.3164,-1.3134,-1.3061,-1.3586,-1.3724,-1.3514,-1.2813,-1.3232,-1.4074,-1.5313,-1.6251,-1.7143,-1.8064,-1.831,-1.8356,-1.8234,-1.841,-1.8301,-1.7817,-1.7771,-1.7617,-1.7285,-1.6632,-1.6227,-1.6183,-1.5531,-1.5181,-1.5143,-1.4828,-1.4495,-1.4206,-1.3841,-1.3694,-1.379,-1.3253,-1.2877,-1.2568,-1.2016,-1.1614,-1.1409,-1.1409,-1.1186,-1.085,-1.085,-1.085,-1.085,-1.085,-1.0862,-1.0804,-1.004,-0.9625,-0.9357,0.0,0.0,0.0,0.0,0.0,0.0,0.0,0.0,0.0,0.0,0.0,0.0,0.0,0.0,0.0,0.0,0.0,0.0,0.0,-0.9269,-0.9588,-0.9751,-1.0211,-1.0684,-1.1137,-1.1383,-1.1883,-1.2616,-1.2616,-1.2485,-1.2291,-1.1817,-1.153,-1.1369,-1.0935,-1.0693,-1.0593,-1.0339,-1.0168,-1.0066,-0.9881,0.0,0.0,0.0,0.0,0.0,0.0,0.0,0.0,0.0,-0.9549,-0.9888,-0.9756,-0.9958,-1.0244,-1.0364,-1.0396,-1.0428,-1.0561,-1.0888,-1.1129,-1.1022,-1.1219,-1.1674,-1.2737,-1.2751,-1.2654,-1.3075,-1.3324,-1.3467,-1.3628,-1.4032,-1.4744,-1.5933,-1.6779,-1.7462,-1.8018,-1.8172,-1.8095,-1.7842,-1.7857,-1.7583,-1.6758,-1.6315,-1.5899,-1.5312,-1.4657,-1.4317,-1.4317,-1.4034,-1.3874,-1.3874,-1.3768,-1.3654,-1.354,-1.3306,-1.3081,-1.291,-1.2759,-1.2434,-1.1985,-1.1646,-1.1409,-1.1223,-1.1074,-1.085,-1.0588,-1.0207,-1.0051,-1.0013,-0.9642,-0.949,-0.9453,-0.9031,-0.8846,-0.8794,0.0,0.0,0.0,0.0,0.0,0.0,0.0,0.0,0.0,0.0,0.0,0.0,0.0,0.0,0.0,0.0,0.0,0.0,-0.8566,-0.9011,-0.9378,-0.9642,-1.0042,-1.0388,-1.0678,-1.1144,-1.182,-1.2643,-1.2667,-1.2514,-1.2158,-1.1574,-1.1205,-1.1095,-1.0548,-1.0238,-1.0168,-0.9823,-0.9626,-0.9518,-0.93,-0.9113,0.0,0.0,0.0,0.0,0.0,0.0,0.0,0.0,-0.9139,-0.9326,-0.9326,-0.9498,-0.9728,-0.9977,-1.004,-1.0104,-1.0434,-1.0573,-1.0751,-1.0936,-1.1029,-1.1394,-1.2739,-1.2799,-1.2779,-1.3487,-1.3387,-1.3352,-1.3903,-1.4182,-1.4627,-1.567,-1.6367,-1.6904,-1.7182,-1.7191,-1.7044,-1.6816,-1.6794,-1.6446,-1.5544,-1.5113,-1.458,-1.3862,-1.3434,-1.3174,-1.3094,-1.3094,-1.3088,-1.3008,-1.2969,-1.2883,-1.2792,-1.2589,-1.2291,-1.1942,-1.1783,-1.1639,-1.1484,-1.1298,-1.1111,-1.0887,-1.0775,-1.0475,-1.0094,-0.9674,-0.941,-0.9178,-0.877,-0.8618,-0.8542,-0.8161,-0.8086,-0.8122,0.0,0.0,0.0,0.0,0.0,0.0,0.0,0.0,0.0,0.0,0.0,0.0,0.0,0.0,0.0,0.0,0.0,0.0,-0.8273,-0.856,-0.8824,-0.9083,-0.9618,-1.0001,-1.0201,-1.0728,-1.142,-1.2298,-1.2423,-1.2271,-1.1864,-1.1257,-1.0822,-1.0475,-0.9862,-0.9477,-0.9292,-0.9087,-0.8985,-0.8985,-0.8985,-0.8985,0.0,0.0,0.0,0.0,0.0,0.0,0.0,0.0,-0.8985,-0.8985,-0.8985,-0.8985,-0.9049,-0.939,-0.9486,-0.9614,-1.0142,-1.0149,-1.0149,-1.0824,-1.1088,-1.1617,-1.3234,-1.338,-1.3627,-1.509,-1.4235,-1.3307,-1.356,-1.3373,-1.3407,-1.3995,-1.462,-1.5109,-1.5351,-1.5189,-1.5008,-1.5001,-1.5001,-1.4767,-1.4135,-1.4075,-1.3834,-1.3247,-1.32,-1.3081,-1.2876,-1.2876,-1.2803,-1.2605,-1.2399,-1.2143,-1.1895,-1.1703,-1.1333,-1.0775,-1.0164,-1.0314,-1.1074,-1.0887,-1.0663,-1.0475,-1.0475,-1.0024,-0.9296,-0.9296,-0.8912,-0.838,-0.838,-0.838,-0.8271,-0.7484,-0.7285,-0.7333,0.0,0.0,0.0,0.0,0.0,0.0,0.0,0.0,0.0,0.0,0.0,0.0,0.0,0.0,0.0,0.0,0.0,0.0,-0.8273,-0.856,-0.8824,-0.9083,-0.9748,-0.9949,-0.9592,-0.9821,-1.0387,-1.1245,-1.1144,-1.0966,-1.0686,-1.0406,-1.0158,-0.9936,-0.9551,-0.9285,-0.9054,-0.8528,-0.8204,-0.8032,-0.7587,-0.7293,0.0,0.0,0.0,0.0,0.0,0.0,0.0,0.0,0.0,0.0,-0.7944,-0.8274,-0.8705,-0.8926,-0.9022,-0.9055,-0.9306,-0.9565,-0.9907,-1.0378,-1.0939,-1.1702,-1.3121,-1.3241,-1.3364,-1.4652,-1.4329,-1.3873,-1.3989,-1.3937,-1.384,-1.3844,-1.4273,-1.4756,-1.505,-1.5062,-1.4854,-1.4439,-1.4392,-1.4115,-1.3527,-1.3313,-1.2986,-1.2454,-1.2383,-1.2104,-1.1607,-1.174,-1.1733,-1.1543,-1.1505,-1.143,-1.1345,-1.0729,-1.0311,-1.0158,-0.941,-0.9415,-1.0013,-0.9528,-0.9226,-0.9026,-0.9026,-0.8799,-0.8423,-0.8012,-0.748,-0.6907,-0.6907,-0.6907,-0.6907,-0.6644,-0.6576,-0.66,0.0,0.0,0.0,0.0,0.0,0.0,0.0,0.0,0.0,0.0,0.0,0.0,0.0,0.0,0.0,0.0,0.0,0.0,0.0,-0.8381,-0.8668,-0.8933,-0.9328,-0.9444,-0.9132,-0.9147,-0.9369,-0.9845,-1.0054,-1.0079,-0.993,-0.9787,-0.9482,-0.9019,-0.8845,-0.8485,-0.8065,-0.7559,-0.7297,-0.7162,-0.6741,-0.6515,-0.6387,0.0,0.0,0.0,0.0,0.0,0.0,0.0,0.0,0.0,-0.7068,-0.733,-0.7727,-0.7982,-0.8144,-0.8306,-0.8463,-0.8832,-0.9341,-1.0077,-1.0501,-1.0993,-1.1963,-1.2899,-1.3841,-1.4708,-1.4218,-1.3788,-1.4152,-1.3741,-1.3435,-1.3611,-1.3647,-1.3754,-1.4081,-1.402,-1.3796,-1.345,-1.3446,-1.3303,-1.2759,-1.2446,-1.2078,-1.161,-1.1285,-1.09,-1.0349,-1.0362,-1.0396,-1.0438,-1.01,-1.0107,-1.0395,-0.9593,-0.9175,-0.909,-0.8346,-0.8155,-0.8444,-0.8501,-0.843,-0.8266,-0.8046,-0.7859,-0.7706,-0.7103,-0.6644,-0.63,-0.63,-0.6219,-0.6141,-0.6141,-0.6089,-0.5999,0.0,0.0,0.0,0.0,0.0,0.0,0.0,0.0,0.0,0.0,-0.7901,0.0,0.0,0.0,0.0,0.0,0.0,0.0,0.0,0.0,-0.8429,-0.8639,-0.8615,-0.8681,-0.8888,-0.8632,-0.8404,-0.8251,-0.9026,-0.9365,-0.9304,-0.914,-0.8654,-0.7885,-0.7827,-0.7386,-0.6673,-0.6452,-0.6354,-0.6354,-0.6321,-0.6321,-0.6321,-0.6321,0.0,0.0,0.0,0.0,0.0,0.0,0.0,0.0,-0.6354,-0.6383,-0.6449,-0.6765,-0.7129,-0.7428,-0.7568,-0.7938,-0.8572,-0.975,-0.9913,-0.9904,-1.0286,-1.2434,-1.443,-1.4727,-1.3958,-1.3349,-1.4,-1.3145,-1.2608,-1.3262,-1.2802,-1.248,-1.2693,-1.2433,-1.22,-1.2135,-1.2249,-1.2164,-1.1698,-1.1408,-1.1071,-1.0605,-1.0013,-0.9512,-0.9168,-0.8903,-0.8895,-0.9233,-0.8553,-0.8505,-0.9183,-0.8405,-0.7932,-0.7807,-0.7122,-0.6737,-0.6662,-0.7565,-0.7979,-0.7893,-0.7369,-0.7107,-0.7069,-0.6532,-0.63,-0.6261,-0.6261,-0.6099,-0.5864,-0.5864,-0.5677,-0.5433,0.0,0.0,0.0,0.0,0.0,0.0,0.0,0.0,0.0,0.0,0.0,0.0,0.0,0.0,0.0,0.0,0.0,0.0,0.0,0.0,-0.8533,-0.8328,-0.8345,-0.8469,-0.8718,-0.7974,-0.7468,-0.7235,-0.7701,-0.7861,-0.7701,-0.7553,-0.7296,-0.697,-0.6963,-0.6776,-0.644,-0.6135,-0.6024,-0.5987,-0.5727,-0.5627,-0.5627,-0.5627,0.0,0.0,0.0,0.0,0.0,0.0,0.0,0.0,-0.6024,-0.6185,-0.6416,-0.6482,-0.6581,-0.6676,-0.681,-0.7116,-0.7635,-0.8672,-0.976,-1.0617,-1.0796,-1.124,-1.1806,-1.2445,-1.3194,-1.3649,-1.3447,-1.3149,-1.2788,-1.2409,-1.2349,-1.2346,-1.2182,-1.1699,-1.1272,-1.1014,-1.06,-1.0164,-0.9733,-0.9647,-0.9371,-0.8713,-0.8733,-0.8529,-0.7907,-0.8184,-0.8277,-0.8213,-0.8173,-0.8192,-0.8347,-0.7559,-0.7137,-0.7101,-0.6379,-0.6014,-0.6022,-0.6324,-0.6561,-0.6679,-0.6567,-0.6493,-0.6493,-0.6338,-0.618,-0.598,-0.598,-0.5747,-0.5437,-0.5437,-0.5244,-0.495,0.0,0.0,0.0,0.0,0.0,0.0,0.0,0.0,0.0,0.0,0.0,0.0,0.0,0.0,0.0,0.0,0.0,0.0,0.0,0.0,-0.8347,-0.8129,-0.8232,-0.8146,-0.786,-0.7475,-0.7101,-0.6651,-0.6706,-0.6772,-0.6815,-0.6836,-0.6654,-0.6321,-0.6425,-0.6274,-0.5925,-0.5723,-0.566,-0.566,-0.5462,-0.5395,-0.5395,-0.5395,0.0,0.0,-0.5395,0.0,0.0,0.0,0.0,0.0,0.0,0.0,-0.5925,-0.5925,-0.602,-0.6139,-0.6056,-0.6482,-0.7148,-0.792,-0.9029,-0.9871,-0.9527,-0.9702,-1.0031,-1.0347,-1.1245,-1.1909,-1.1823,-1.1442,-1.1043,-1.0805,-1.0619,-1.0428,-1.0301,-1.0027,-0.9715,-0.9483,-0.9268,-0.8951,-0.8584,-0.8426,-0.8204,-0.7743,-0.7582,-0.7359,-0.6988,-0.696,-0.711,-0.7393,-0.7142,-0.7182,-0.7534,-0.6813,-0.6397,-0.628,-0.588,-0.5701,-0.5705,-0.585,-0.5928,-0.5986,-0.6088,-0.6149,-0.6156,-0.6034,-0.587,-0.575,-0.555,-0.5121,-0.4574,-0.4574,-0.4182,-0.3552,0.0,0.0,0.0,0.0,0.0,0.0,0.0,0.0,0.0,0.0,0.0,0.0,0.0,0.0,0.0,0.0,0.0,0.0,0.0,0.0,0.0,-0.7957,-0.8081,-0.7721,-0.69,-0.7013,-0.6865,-0.6321,-0.5987,-0.5984,-0.6309,-0.6421,-0.6251,-0.583,-0.5992,-0.5809,-0.5395,-0.5395,-0.5395,-0.5395,-0.5395,-0.5395,-0.5395,-0.5395,-0.5395,-0.5395,-0.5395,-0.5395,-0.5395,-0.5395,0.0,0.0,0.0,0.0,-0.5359,-0.5395,-0.5573,-0.5727,-0.5486,-0.6093,-0.6849,-0.7375,-0.8128,-0.8548,-0.788,-0.8284,-0.8728,-0.8525,-0.9192,-0.9856,-1.0147,-0.9522,-0.9077,-0.9251,-0.8774,-0.837,-0.8335,-0.8231,-0.8083,-0.8005,-0.8025,-0.7884,-0.7544,-0.735,-0.718,-0.6975,-0.6499,-0.6226,-0.6226,-0.5838,-0.5948,-0.6681,-0.6146,-0.612,-0.673,-0.6198,-0.583,-0.5589,-0.5562,-0.5552,-0.5518,-0.5601,-0.5617,-0.564,-0.5812,-0.5895,-0.5891,-0.5593,-0.5461,-0.5404,-0.4965,-0.4338,-0.3675,-0.3558,-0.2935,-0.2117,0.0,0.0,0.0,0.0,0.0,0.0,0.0,0.0,0.0,0.0,-0.8368,-0.8348,0.0,0.0,0.0,0.0,0.0,0.0,0.0,0.0,0.0,-0.7822,-0.7589,-0.7214,-0.6746,-0.6493,-0.6218,-0.5958,-0.5624,-0.5596,-0.5877,-0.5671,-0.5545,-0.5462,-0.5482,-0.5479,-0.5395,-0.5395,-0.5395,-0.5395,-0.5395,-0.5395,-0.5395,-0.5395,-0.5395,-0.5395,-0.5395,-0.5395,-0.5395,-0.5395,-0.5292,0.0,0.0,0.0,-0.519,-0.5359,-0.53,-0.5252,-0.5521,-0.603,-0.6616,-0.6922,-0.7317,-0.7569,-0.7477,-0.7626,-0.7686,-0.7393,-0.8559,-0.9655,-0.9678,-0.9309,-0.8943,-0.8808,-0.8564,-0.8321,-0.8146,-0.7547,-0.7088,-0.7068,-0.6528,-0.6094,-0.5908,-0.5876,-0.5805,-0.5666,-0.5593,-0.5526,-0.5526,-0.5703,-0.5825,-0.5938,-0.5975,-0.6006,-0.6101,-0.5812,-0.563,-0.5589,-0.5487,-0.5322,-0.5152,-0.5007,-0.5239,-0.5776,-0.5492,-0.5432,-0.547,-0.5115,-0.492,-0.4779,-0.4185,-0.3638,-0.313,-0.2624,-0.2195,-0.1843,0.0,0.0,0.0,0.0,0.0,0.0,0.0,0.0,0.0,0.0,0.0,-0.8421,0.0,0.0,0.0,0.0,0.0,0.0,0.0,0.0,0.0,-0.7294,-0.6969,-0.6634,-0.6261,-0.6093,-0.5892,-0.5627,-0.5462,-0.5545,-0.5796,-0.5671,-0.5654,-0.5732,-0.5647,-0.5597,-0.5518,-0.5433,-0.5395,-0.5395,-0.5163,-0.5126,-0.519,-0.4891,-0.4858,-0.4927,-0.4694,-0.4628,-0.4595,-0.4525,-0.4459,-0.4389,-0.4492,0.0,0.0,0.0,-0.4452,-0.4494,-0.5101,-0.553,-0.5979,-0.664,-0.6963,-0.7146,-0.7224,-0.7363,-0.7411,-0.7142,-0.7679,-0.8217,-0.8217,-0.7943,-0.7693,-0.7612,-0.7385,-0.7153,-0.6935,-0.663,-0.6334,-0.6194,-0.5902,-0.5627,-0.5511,-0.5494,-0.5467,-0.5399,-0.5474,-0.5559,-0.5603,-0.5732,-0.5881,-0.6091,-0.5956,-0.5901,-0.5901,-0.5772,-0.5632,-0.5448,-0.5429,-0.5255,-0.4869,-0.4455,-0.462,-0.5188,-0.5015,-0.4789,-0.449,-0.4177,-0.384,-0.3404,-0.2935,-0.239,-0.1844,-0.1569,-0.1216,-0.0785,0.0,0.0,0.0,0.0,0.0,0.0,0.0,0.0,0.0,0.0,0.0,0.0,0.0,0.0,0.0,0.0,0.0,0.0,0.0,0.0,0.0,-0.6642,-0.642,-0.6123,-0.5789,-0.576,-0.566,-0.5395,-0.5395,-0.5586,-0.5918,-0.5878,-0.5979,-0.6151,-0.5962,-0.5759,-0.5583,-0.54,-0.5316,-0.5279,-0.4909,-0.4758,-0.4722,-0.4356,-0.4223,-0.4189,-0.3856,-0.3723,-0.3689,-0.3553,-0.3487,-0.3456,-0.3487,-0.3487,0.0,0.0,0.0,-0.3648,-0.4223,-0.4518,-0.4913,-0.5913,-0.6254,-0.645,-0.6843,-0.7061,-0.7132,-0.7051,-0.7011,-0.6997,-0.7034,-0.6875,-0.6702,-0.6702,-0.6494,-0.6245,-0.6013,-0.5959,-0.5878,-0.562,-0.5589,-0.5532,-0.5409,-0.5429,-0.5453,-0.5453,-0.5559,-0.5637,-0.5742,-0.5783,-0.5891,-0.6122,-0.5867,-0.5713,-0.5674,-0.5639,-0.5371,-0.4919,-0.5021,-0.4749,-0.4089,-0.3639,-0.3657,-0.403,-0.4018,-0.3796,-0.3405,-0.3111,-0.2727,-0.2309,-0.1842,-0.1334,-0.0864,-0.0746,-0.0393,0.0,0.0,0.0,0.0,0.0,0.0,0.0,0.0,0.0,0.0,0.0,0.0,0.0,0.0,-0.8096,-0.7903,-0.7616,0.0,0.0,0.0,0.0,0.0,-0.5987,-0.5921,0.0,-0.5428,-0.5428,-0.5428,-0.5395,-0.5395,-0.5696,-0.6272,-0.6088,-0.6251,-0.6644,-0.6172,-0.5857,-0.5589,-0.5262,-0.5117,-0.507,-0.4742,-0.4325,-0.3892,-0.3992,-0.3723,-0.3251,-0.3047,-0.2947,-0.2947,-0.2811,-0.2648,-0.2515,-0.2713,-0.2614,-0.2515,0.0,0.0,0.0,-0.2637,-0.2825,-0.3276,-0.4349,-0.4728,-0.5111,-0.6278,-0.6552,-0.66,-0.6839,-0.6824,-0.6766,-0.6869,-0.681,-0.6702,-0.6702,-0.6494,-0.6245,-0.6013,-0.5905,-0.5755,-0.5606,-0.5589,-0.5532,-0.5409,-0.5528,-0.5579,-0.5579,-0.5586,-0.5593,-0.5599,-0.5728,-0.5745,-0.563,-0.561,-0.5527,-0.5316,-0.5149,-0.4653,-0.3869,-0.3946,-0.3468,-0.2497,-0.2297,-0.2192,-0.214,-0.2219,-0.2277,-0.2338,-0.1948,-0.1842,-0.1882,-0.1217,-0.0943,-0.0825,-0.0275,-0.0039,0.0,0.0,0.0,0.0,0.0,0.0,0.0,0.0,0.0,0.0,0.0,0.0,0.0,0.0,-0.8144,-0.7968,-0.7555,-0.7129,0.0,0.0,0.0,0.0,-0.5925,-0.5693,-0.5528,-0.5395,-0.5395,-0.5395,-0.5395,-0.5395,-0.5603,-0.5962,-0.5908,-0.5858,-0.5781,-0.572,-0.5588,-0.5361,-0.4831,-0.4588,-0.4552,-0.394,-0.3658,-0.3556,-0.3025,-0.2686,-0.2447,-0.2181,-0.1981,-0.1846,-0.1712,-0.1611,0.0,0.0,-0.1611,-0.1578,-0.1644,-0.1745,-0.1842,-0.2054,-0.2246,-0.2568,-0.3303,-0.3824,-0.434,-0.4991,-0.555,-0.5984,-0.6204,-0.6299,-0.6341,-0.6396,-0.6493,-0.6556,-0.6556,-0.6429,-0.6211,-0.5918,-0.5837,-0.5711,-0.5504,-0.5426,-0.5428,-0.5511,-0.5539,-0.5587,-0.5725,-0.5725,-0.5657,-0.5554,-0.5565,-0.5574,-0.5544,-0.5421,-0.509,-0.4588,-0.4113,-0.356,-0.3044,-0.3154,-0.284,-0.2121,-0.1744,-0.1464,-0.1285,-0.0927,-0.1008,-0.1377,-0.1235,-0.0974,-0.0667,-0.0432,-0.0314,-0.0314,-0.0079,0.0,0.0,0.0,0.0,0.0,0.0,0.0,0.0,0.0,0.0,0.0,0.0,0.0,0.0,0.0,0.0,-0.7649,-0.7173,-0.6768,-0.6447,-0.6243,-0.6024,-0.5859,-0.5723,-0.5528,-0.5395,-0.5395,-0.5344,-0.5344,-0.5395,-0.5344,-0.546,-0.58,-0.5606,-0.5457,-0.5371,-0.5115,-0.4993,-0.5006,-0.4451,-0.4113,-0.3936,-0.337,-0.3023,-0.2822,-0.231,-0.1909,-0.1634,-0.1363,-0.1125,-0.0953,-0.0776,-0.074,0.0,0.0,-0.074,-0.074,-0.074,-0.0807,-0.0908,-0.1176,-0.1344,-0.1551,-0.2194,-0.2686,-0.3167,-0.3764,-0.4302,-0.4745,-0.4975,-0.5074,-0.5114,-0.5233,-0.5505,-0.5838,-0.6254,-0.6156,-0.5962,-0.5627,-0.563,-0.5555,-0.5305,-0.53,-0.5287,-0.5138,-0.5147,-0.5149,-0.5143,-0.507,-0.5,-0.4927,-0.4857,-0.4764,-0.4654,-0.4468,-0.4096,-0.361,-0.3119,-0.2642,-0.2112,-0.2226,-0.1971,-0.13,-0.1008,-0.0749,-0.0575,-0.0192,-0.0231,-0.0582,-0.0587,-0.0353,0.0,0.0,0.0,0.0,0.0,0.0,0.0,0.0,0.0,0.0,0.0,0.0,0.0,0.0,0.0,0.0,-0.8716,0.0,0.0,0.0,0.0,0.0,-0.6445,-0.6395,-0.6259,-0.5925,-0.5888,-0.5723,-0.5428,0.0,0.0,-0.5395,-0.5213,-0.5209,-0.5395,-0.5177,-0.5329,-0.575,-0.5218,-0.5157,-0.5405,-0.443,-0.4156,-0.4429,-0.4087,-0.3737,-0.3346,-0.3057,-0.2421,-0.1621,-0.1803,-0.1436,-0.077,-0.063,-0.0455,-0.0244,-0.0068,0.0,0.0,0.0,0.0,0.0,0.0,0.0,0.0,0.0,0.0,0.0,-0.104,-0.1273,-0.1553,-0.2598,-0.286,-0.296,-0.3224,-0.3177,-0.3188,-0.3496,-0.3904,-0.4515,-0.561,-0.5671,-0.546,-0.5198,-0.527,-0.5255,-0.4967,-0.5159,-0.5038,-0.4261,-0.4353,-0.4267,-0.3847,-0.3624,-0.3584,-0.3768,-0.3584,-0.3323,-0.2983,-0.2764,-0.2583,-0.2363,-0.2278,-0.1853,-0.1058,-0.1209,-0.0804,0.0,0.0,0.0,0.0,0.0,0.0,0.0,0.0,0.0,0.0,0.0,0.0,0.0,0.0,0.0,0.0039,0.0,0.0,0.0,0.0,0.0,0.0,-0.9464,-0.9241,-0.8962,0.0,0.0,0.0,-0.8091,-0.754,-0.702,-0.6633,-0.6339,-0.5985,-0.5568,-0.5528,-0.5495,-0.5395,-0.5395,-0.5395,-0.5395,-0.5351,-0.5351,-0.5395,-0.5055,-0.4964,-0.5073,-0.4692,-0.4408,-0.4232,-0.366,-0.3328,-0.3191,-0.3089,-0.2989,-0.2827,-0.2242,-0.1871,-0.1661,-0.1402,-0.0998,-0.0595,-0.0525,-0.035,-0.007,-0.0035,0.0,0.0,0.0,0.0,0.0,0.0,0.0,0.0,0.0,0.0,0.0,0.0,0.0,0.0,-0.1492,-0.1965,-0.2356,-0.2551,-0.2625,-0.2689,-0.2782,-0.288,-0.3064,-0.3407,-0.4202,-0.4591,-0.4043,-0.3994,-0.3946,-0.3781,-0.3674,-0.3611,-0.3694,-0.3552,-0.3563,-0.3793,-0.3621,-0.3436,-0.3244,-0.2832,-0.2598,-0.2506,-0.2092,-0.1804,-0.1612,-0.1122,-0.0661,-0.0311,-0.0343,-0.023,0.0,0.0,0.0,0.0,0.0,0.0078,0.0195,0.0078,0.0,0.0,0.0,0.0079,0.0236,0.0236,0.0314,0.055,0.0,0.0,0.0,0.0,0.0,-1.0232,-0.9923,-0.9768,-0.9406,0.0,0.0,0.0,-0.7513,-0.7177,-0.6803,-0.6283,-0.6035,-0.5764,-0.5439,-0.5395,-0.5395,-0.5395,-0.5395,-0.5395,-0.5395,-0.533,-0.5232,-0.5163,-0.4871,-0.4674,-0.4592,-0.4256,-0.3889,-0.3525,-0.3157,-0.2788,-0.2487,-0.2318,-0.2238,-0.22,-0.1759,-0.1528,-0.1411,-0.12,-0.0898,-0.063,-0.056,-0.0353,-0.0107,-0.0035,0.0,0.0,0.0,0.0,0.0,0.0,0.0,0.0,0.0,0.0,0.0,0.0,0.0,0.0,-0.0605,-0.0953,-0.1243,-0.1327,-0.1418,-0.147,-0.1575,-0.1755,-0.1862,-0.1719,-0.2537,-0.3147,-0.3001,-0.3063,-0.3018,-0.2907,-0.2788,-0.2724,-0.2716,-0.2563,-0.2506,-0.2584,-0.2397,-0.2187,-0.1995,-0.1727,-0.1536,-0.1459,-0.1207,-0.098,-0.0745,-0.0353,-0.0118,0.0,0.0,0.0,0.0,0.0077,0.0116,0.0118,0.0196,0.0314,0.0432,0.0589,0.051,0.0275,0.0549,0.0746,0.0902,0.1216,0.1412,0.1607,0.0,0.0,-1.1389,-1.1389,-1.16,-1.1459,-1.0481,-1.0346,-0.9927,0.0,-0.8235,-0.7616,-0.6841,-0.6754,-0.6493,-0.5755,-0.5682,-0.5566,-0.5433,-0.5419,-0.5412,-0.5395,-0.5395,-0.5395,-0.5395,-0.5194,-0.4964,-0.4797,-0.4608,-0.4413,-0.422,-0.3856,-0.3491,-0.3125,-0.2755,-0.242,-0.212,-0.1715,-0.1547,-0.1547,-0.1547,-0.1381,-0.1083,-0.1107,-0.0978,-0.077,-0.0665,-0.0498,-0.0252,-0.0069,0.0,0.0,0.0,0.0,0.0,0.0,0.0,0.0,0.0,0.0,0.0,0.0,0.0,0.0,0.0,0.0,0.0,0.0,0.0,-0.0069,-0.0242,-0.0658,-0.0868,-0.059,-0.094,-0.1433,-0.2036,-0.2217,-0.2252,-0.2118,-0.2194,-0.2055,-0.1525,-0.145,-0.1294,-0.0904,-0.0668,-0.055,-0.055,-0.055,-0.0432,-0.0275,-0.0275,-0.0196,0.0,0.0,0.0,0.0,0.0,0.0,0.0,0.0196,0.0314,0.0314,0.051,0.0628,0.0667,0.1372,0.1255,0.0785,0.1451,0.1763,0.1842,0.2582,0.2895,0.2973,0.0,-1.1229,-1.1389,-1.1389,-1.1138,-1.0844,-1.0653,-1.0115,-0.9538,-0.899,-0.8116,-0.7566,-0.7635,-0.6995,-0.6527,-0.6432,-0.6125,-0.583,-0.5562,-0.5545,-0.5525,-0.5399,-0.5395,-0.5395,-0.5395,-0.5034,-0.4836,-0.4797,-0.4234,-0.3936,-0.3889,-0.3222,-0.2887,-0.2753,-0.2118,-0.1782,-0.1681,-0.1344,-0.121,-0.121,-0.121,-0.1159,-0.111,-0.1092,-0.0962,-0.0806,-0.077,-0.0562,-0.0281,-0.0068,0.0,0.0,0.0,0.0,0.0,0.0,0.0,0.0,0.0,0.0,0.0,0.0,0.0,0.0,0.0,0.0,0.0,0.0,0.0,0.0,-0.0064,-0.0129,-0.0197,-0.0131,-0.0201,-0.0414,-0.0863,-0.0962,-0.0968,-0.0935,-0.0815,-0.0747,-0.0782,-0.0667,-0.0589,-0.0668,-0.0471,-0.0353,-0.0353,-0.0196,-0.0118,-0.0079,-0.0039,-0.0039,0.0,0.0,0.0,0.0,0.0,0.0,0.0,0.0196,0.0314,0.0314,0.051,0.0707,0.0903,0.1568,0.1686,0.1489,0.2271,0.2662,0.2857,0.3166,0.3439,0.3713,-1.1182,-1.1563,-1.1839,-1.1774,-1.1664,-1.143,-1.1012,-1.0674,-1.0215,-0.9589,-0.8631,-0.794,-0.7833,-0.7199,-0.6731,-0.6613,0.0,0.0,0.0,-0.563,-0.5555,-0.5515,-0.5436,-0.5296,-0.5096,-0.4897,-0.4631,-0.4295,-0.3959,-0.3625,-0.3255,-0.2887,-0.2519,-0.215,-0.1748,-0.1513,-0.1344,-0.1176,-0.1109,-0.1109,-0.1109,-0.1084,-0.1097,-0.1116,-0.1051,-0.0927,-0.0825,-0.0584,-0.0275,-0.0069,0.0,0.0,0.0202,0.0202,0.0169,0.0,0.0404,0.0438,0.0,0.0,0.0,0.0539,0.0,0.0,0.0,0.0539,0.0537,0.0562,0.056,0.049,0.0286,0.0259,0.0197,0.0032,0.0,-0.0068,-0.028,-0.0312,-0.0314,-0.0291,-0.0216,-0.0183,-0.0307,-0.0193,-0.0194,-0.0275,-0.0196,-0.0157,-0.0157,-0.0039,0.0,0.0,0.0,0.0,0.0,0.0,0.0,0.0,0.0118,0.0157,0.0157,0.0471,0.0785,0.1099,0.1295,0.1608,0.2038,0.2702,0.3013,0.3054,0.3443,0.3679,0.3834,0.4416,0.4727,0.4924,-1.117,-1.1647,-1.2044,-1.1948,-1.2064,-1.1967,-1.1244,-1.1049,-1.0699,-0.9847,-0.9038,-0.8335,-0.7854,-0.743,-0.7085,-0.6811,-0.6384,0.0,-0.5979,-0.5786,-0.5661,-0.5633,-0.5545,-0.5278,-0.4873,-0.4779,-0.4428,-0.3823,-0.3734,-0.3357,-0.2686,-0.2619,-0.2252,-0.158,-0.1547,-0.1344,-0.1109,-0.1109,-0.1109,-0.1109,-0.1109,-0.1109,-0.1109,-0.1109,-0.1109,-0.1076,-0.0876,-0.0607,-0.0304,-0.0138,-0.0034,0.0067,0.0404,0.0404,0.0,0.0,0.0,0.0,0.0,0.0,0.0,0.0,0.0,0.1109,0.0,0.0,0.0,0.1101,0.11,0.0992,0.0676,0.0622,0.0529,0.0225,0.0198,0.0202,0.0201,0.0201,0.017,0.0,0.0,0.0,0.0,0.0,0.0,0.0,0.0,0.0,0.0,0.0,0.0,0.0,0.0,0.0,0.0039,0.0039,0.0079,0.0118,0.0393,0.0549,0.0549,0.1059,0.1568,0.2077,0.2313,0.2704,0.321,0.391,0.4302,0.446,0.4579,0.4657,0.4813,0.567,0.598,0.6018,-1.0382,-1.0857,-1.1235,-1.1228,-1.1121,-1.1031,-1.0952,-1.032,-0.9597,-0.8855,-0.8479,-0.818,-0.8054,-0.7712,-0.746,-0.7473,-0.6859,-0.6471,-0.659,-0.621,-0.5918,-0.5783,-0.5762,-0.5574,-0.5179,-0.4749,-0.4314,-0.3899,-0.3468,-0.3056,-0.2686,-0.2388,-0.2018,-0.158,-0.1277,-0.1143,-0.1109,-0.1109,-0.1109,-0.1109,-0.1109,-0.1109,-0.1109,-0.1109,-0.1109,-0.1076,-0.0876,-0.0674,-0.0472,0.0,-0.0135,0.0067,0.0,0.0404,0.0404,0.0908,0.0,0.0,0.0,0.0,0.0,0.0,0.1109,0.0,0.0,0.0,0.1101,0.1106,0.0,0.1091,0.103,0.0,0.0,0.0904,0.0942,0.0966,0.091,0.0926,0.0748,0.007,0.0,0.0,0.0,0.0,0.0,0.0,0.0,0.0,0.0,0.0,0.0,0.0,0.0,0.0079,0.0275,0.0275,0.0353,0.055,0.1176,0.145,0.1489,0.2232,0.2623,0.2701,0.3093,0.329,0.3446,0.43,0.4649,0.4727,0.5243,0.5556,0.5783,0.6141,0.6261,0.6261,-1.0103,-1.0555,-1.09,-1.0789,-1.085,-1.0763,-1.042,-0.9978,-0.9377,-0.8653,-0.8548,-0.8425,-0.8144,-0.7733,-0.7547,-0.7629,-0.7104,-0.6763,-0.6827,-0.6413,0.0,-0.6108,-0.5898,-0.5516,-0.4939,-0.4637,-0.4194,-0.3607,-0.3133,-0.2721,-0.2388,-0.2018,-0.1648,-0.1311,-0.1176,-0.1109,-0.1111,-0.1095,-0.1092,-0.1113,-0.1149,-0.1118,-0.11,-0.1116,-0.1109,-0.1076,-0.1009,-0.0842,-0.0607,0.0,0.0,0.0,0.0,0.0,0.0,0.1278,0.0,0.0,0.0,0.0,0.0,0.0,0.0,0.0,0.2533,0.0,0.256,0.0,0.0,0.0,0.0,0.0,0.0,0.0,0.1668,0.1672,0.1651,0.1665,0.1417,0.0718,0.0651,0.0554,0.032,0.0217,0.011,0.0,0.0113,0.019,0.0192,0.0156,0.0236,0.0353,0.0353,0.0393,0.0471,0.0863,0.1098,0.1176,0.1958,0.231,0.231,0.2896,0.3366,0.3756,0.4027,0.4341,0.4698,0.5085,0.5279,0.5431,0.567,0.5825,0.5941,0.6219,0.63,0.63,-0.9581,-1.0043,-1.0344,-1.0104,-1.0177,-1.0048,-0.9519,-0.9284,-0.8974,-0.8424,-0.8554,-0.8547,-0.8186,-0.7937,-0.7841,-0.7895,-0.7454,-0.7125,-0.7125,-0.6715,-0.6407,-0.6286,-0.5991,-0.5485,-0.4715,-0.4418,-0.3923,-0.3293,-0.2804,-0.2386,-0.2018,-0.1748,-0.1412,-0.1109,-0.1084,-0.1088,-0.109,-0.1121,-0.1121,-0.1139,-0.1184,-0.1153,-0.113,-0.1099,-0.1088,-0.1087,-0.1113,-0.0976,-0.0741,-0.0336,-0.0067,0.0,0.0773,0.1008,0.1146,0.0,0.0,0.0,0.2251,0.0,0.0,0.0,0.0,0.0,0.0,0.0,0.0,0.0,0.0,0.0,0.0,0.0,0.2794,0.0,0.0,0.241,0.2391,0.2404,0.2149,0.1444,0.1377,0.1253,0.0967,0.0846,0.0679,0.0396,0.0517,0.0601,0.0643,0.0658,0.0785,0.1099,0.1138,0.1138,0.1216,0.1685,0.1958,0.2036,0.2857,0.3248,0.3248,0.3759,0.4268,0.4735,0.4924,0.5276,0.5673,0.5754,0.5867,0.6018,0.6018,0.6018,0.6022,0.6219,0.63,0.63,-0.8604,-0.904,-0.9273,-0.9074,-0.8746,-0.8346,-0.8037,-0.802,-0.805,-0.8031,-0.8186,-0.8298,-0.8227,-0.846,-0.8596,-0.8487,-0.8038,-0.7784,-0.7784,-0.7234,-0.6692,-0.6204,-0.6018,-0.5512,-0.473,-0.3987,-0.3415,-0.302,-0.2487,-0.2018,-0.1614,-0.1614,-0.1412,-0.1111,-0.1106,-0.1084,-0.1087,-0.1152,-0.1201,-0.12,-0.1202,-0.1202,-0.1198,-0.1131,-0.1084,-0.1116,-0.1086,0.0,0.0,-0.0776,-0.0539,0.0,0.0,0.0,0.0,0.0,0.0,0.0,0.0,0.0,0.0,0.3564,0.0,0.0,0.0,0.0,0.36,0.0,0.0,0.0,0.3591,0.3484,0.3364,0.0,0.0,0.0,0.0,0.3138,0.2889,0.2147,0.2079,0.2047,0.2048,0.2051,0.1837,0.1295,0.133,0.1401,0.1471,0.1508,0.1841,0.2426,0.2426,0.2543,0.274,0.2738,0.2857,0.3054,0.3915,0.4343,0.4384,0.5168,0.5559,0.5559,0.5786,0.586,0.5902,0.618,0.63,0.63,0.63,0.63,0.63,0.63,0.63,0.63,-0.8588,-0.8641,-0.8672,-0.8622,-0.8614,-0.8459,-0.8076,-0.7827,-0.7812,-0.8174,-0.8259,-0.8461,-0.8816,-0.8868,-0.8876,-0.8968,-0.8516,-0.8214,-0.8123,-0.7313,-0.6786,-0.6731,-0.6022,-0.5318,-0.4576,-0.4048,-0.3416,-0.2602,-0.2112,-0.1811,-0.1669,-0.1394,-0.1209,-0.1106,-0.1117,-0.1086,-0.1089,-0.1175,-0.1185,-0.1205,-0.1188,-0.1209,-0.1259,-0.1207,-0.1151,-0.115,-0.1175,-0.1088,0.0,-0.0726,-0.041,-0.0034,0.0275,0.0691,0.1112,0.1249,0.1582,0.2025,0.0,0.0,0.3556,0.4033,0.0,0.0,0.0,0.0,0.0,0.0,0.0,0.0,0.0,0.0,0.0,0.0,0.0,0.0,0.0,0.4038,0.4059,0.3923,0.3052,0.2484,0.2484,0.2383,0.2155,0.1837,0.199,0.2117,0.2209,0.2266,0.2466,0.2895,0.2896,0.2974,0.321,0.364,0.4023,0.4283,0.5044,0.5405,0.5405,0.5805,0.5916,0.5825,0.606,0.618,0.618,0.6261,0.63,0.63,0.63,0.6374,0.649,0.6335,0.63,0.6313,-0.8477,-0.8265,-0.8073,-0.8129,-0.8052,-0.797,-0.7876,-0.7703,-0.7827,-0.8388,-0.8476,-0.8672,-0.9163,-0.9167,-0.9171,-0.921,-0.8944,-0.8561,-0.8101,-0.748,-0.6928,-0.6606,-0.5695,-0.4956,-0.4426,-0.364,-0.2912,-0.2235,-0.1734,-0.1508,-0.1531,-0.1254,-0.1132,-0.1087,-0.1108,-0.1147,-0.1141,-0.1202,-0.1255,-0.1238,-0.122,-0.1279,-0.1292,-0.1251,-0.1229,-0.1218,0.0,-0.119,-0.1101,-0.0888,-0.0562,-0.0174,0.0035,0.0568,0.1107,0.1064,0.1441,0.2005,0.2662,0.3253,0.0,0.4445,0.4818,0.0,0.5018,0.0,0.5018,0.0,0.0,0.0,0.0,0.0,0.0,0.0,0.0,0.0,0.0,0.4597,0.4694,0.4797,0.3992,0.3422,0.3389,0.3286,0.3086,0.2616,0.2882,0.3107,0.3161,0.3268,0.3544,0.399,0.3992,0.4086,0.4279,0.4715,0.505,0.533,0.5819,0.6062,0.6103,0.6272,0.6304,0.6212,0.6374,0.6426,0.6375,0.6375,0.6344,0.63,0.63,0.6412,0.6602,0.6451,0.6638,0.7019,-0.8242,-0.7785,-0.7476,-0.7661,-0.7145,-0.6865,-0.7357,-0.7634,-0.8045,-0.8662,-0.8882,-0.9042,-0.9258,-0.9473,-0.9523,-0.9279,-0.9241,-0.8817,-0.7799,-0.7683,-0.7104,-0.5956,-0.5104,-0.4507,-0.415,-0.273,0.0,-0.1856,-0.1422,-0.12,-0.121,-0.1206,-0.1153,-0.1093,-0.1186,-0.1196,-0.1209,-0.1271,-0.1296,-0.1296,-0.1296,-0.1296,-0.1296,-0.1296,-0.1278,-0.1211,-0.1218,-0.1206,-0.1205,-0.1205,-0.0912,-0.0547,-0.0365,0.0109,0.0624,0.0828,0.1478,0.2283,0.2918,0.356,0.4185,0.4859,0.5018,0.0,0.0,0.0,0.5018,0.0,0.0,0.0,0.0,0.0,0.0,0.0,0.0,0.0,0.0,0.4831,0.4831,0.484,0.4834,0.4764,0.4625,0.4728,0.4461,0.362,0.4044,0.4308,0.4246,0.4556,0.4991,0.5598,0.5598,0.5701,0.591,0.591,0.5984,0.613,0.6331,0.6411,0.6411,0.6625,0.6709,0.6702,0.6702,0.6617,0.6521,0.6525,0.6443,0.6359,0.6398,0.6549,0.674,0.6655,0.7285,0.8162,-0.7672,-0.7532,-0.7497,-0.7533,-0.7296,-0.7234,-0.7696,-0.7887,-0.8275,-0.91,-0.9432,-0.9737,-1.0107,-1.0124,-1.0029,-0.9836,-0.9618,-0.9174,-0.8503,-0.7983,-0.7126,-0.5899,-0.5031,-0.4153,-0.319,-0.2493,-0.1931,-0.1519,-0.1373,-0.1292,-0.1266,-0.1221,-0.1196,-0.1189,-0.1204,-0.1208,-0.1202,-0.128,-0.1296,-0.1296,-0.1296,-0.1296,-0.1296,0.0,-0.1291,-0.1284,-0.1275,-0.1258,-0.1163,-0.1013,-0.0815,-0.0548,-0.0186,0.0225,0.0641,0.085,0.1206,0.1752,0.2815,0.321,0.364,0.474,0.5018,0.5018,0.0,0.0,0.0,0.0,0.0,0.0,0.0,0.0,0.0,0.0,0.0,0.0,0.0,0.5024,0.5098,0.5378,0.5295,0.513,0.4797,0.4797,0.4697,0.4492,0.4585,0.474,0.4925,0.5034,0.5233,0.5592,0.5598,0.578,0.6117,0.6117,0.6324,0.6701,0.674,0.6783,0.6783,0.6829,0.6807,0.6702,0.6702,0.6678,0.6682,0.6842,0.6944,0.6949,0.7595,0.8313,0.8809,0.7486,0.7156,0.7512,-0.7602,-0.7539,-0.7549,-0.7615,-0.7667,-0.7785,-0.8046,-0.8135,-0.8486,-0.9188,-0.9595,-0.9917,-1.0171,-1.0246,-1.0156,-0.9879,-0.948,-0.8942,-0.8205,-0.7395,-0.6506,-0.5496,-0.4418,-0.3472,-0.2762,-0.2185,0.0,-0.1354,-0.1316,-0.1239,-0.1121,-0.108,-0.1022,-0.0946,-0.0946,-0.0946,-0.0948,-0.1089,-0.1139,-0.1139,-0.1257,-0.1296,0.0,-0.1296,-0.1218,-0.1139,-0.1139,-0.109,-0.1039,-0.0923,-0.0724,-0.0416,-0.0192,0.0192,0.0617,0.0743,0.1217,0.1883,0.2859,0.3327,0.3759,0.474,0.5018,0.5018,0.5018,0.5018,0.5031,0.0,0.5091,0.5069,0.0,0.0,0.0,0.0,0.0,0.0,0.0,0.0,0.5362,0.5488,0.5504,0.5366,0.5103,0.5063,0.4997,0.4797,0.5073,0.5253,0.5239,0.553,0.5742,0.5906,0.5966,0.6174,0.6509,0.6509,0.6667,0.6977,0.6977,0.6977,0.6977,0.7111,0.7109,0.7069,0.7488,0.7612,0.7625,0.8042,0.8201,0.8209,0.8782,0.9349,0.971,0.8837,0.871,0.9082,-0.7709,-0.7645,-0.7665,-0.779,-0.8096,-0.8391,-0.8432,-0.854,-0.8804,-0.9272,-0.9642,-0.9903,-0.9883,-1.01,-1.0062,-0.9604,-0.9187,-0.8497,-0.7369,-0.6566,-0.5698,-0.4786,-0.3534,-0.2744,-0.2536,-0.1867,-0.1437,-0.1274,-0.1276,-0.1123,-0.0864,-0.0881,-0.0757,-0.0606,-0.0606,-0.0607,-0.0609,-0.0778,-0.0864,-0.0864,-0.11,-0.1218,-0.1218,-0.1218,-0.1061,-0.0864,-0.0864,-0.0864,-0.0864,-0.0825,-0.0589,-0.0275,-0.0196,0.0196,0.0628,0.0668,0.1412,0.2313,0.2937,0.36,0.4226,0.4859,0.5018,0.5018,0.5018,0.5029,0.5067,0.5167,0.52,0.5211,0.0,0.0,0.0,0.0,0.0,0.0,0.0,0.0,0.5569,0.547,0.5573,0.0,0.544,0.5426,0.5282,0.4897,0.5426,0.5634,0.537,0.5912,0.6265,0.6327,0.645,0.6658,0.6968,0.6929,0.7,0.7187,0.7187,0.7187,0.7231,0.7459,0.7591,0.7724,0.8544,0.8884,0.8896,0.954,0.9768,0.9804,0.9963,1.0085,1.0234,1.0559,1.1062,1.1609,-0.7527,-0.7634,-0.778,-0.7807,-0.8269,-0.8716,-0.9016,-0.9334,-0.9659,-0.9866,-1.0175,-1.0331,-1.0212,-1.0134,-0.9843,-0.9387,-0.9306,-0.8552,-0.6907,-0.6664,-0.5624,-0.3451,-0.3115,-0.2575,-0.1809,-0.153,-0.1346,0.0,-0.1028,-0.0907,-0.0746,-0.0689,-0.0644,-0.0606,-0.0606,-0.0613,-0.0585,-0.0627,-0.0668,-0.0668,-0.0707,-0.0707,-0.0707,-0.0707,-0.0707,-0.0668,-0.0668,-0.0668,-0.0628,-0.0471,-0.0353,-0.0196,0.0275,0.051,0.0668,0.1061,0.1649,0.2313,0.2937,0.36,0.4226,0.4859,0.5018,0.5018,0.5018,0.5089,0.5162,0.5181,0.5306,0.5377,0.5377,0.0,0.0,0.0,0.0,0.0,0.0,0.0,0.0,0.5728,0.5749,0.5708,0.5562,0.5549,0.5498,0.5306,0.541,0.5535,0.5713,0.0,0.6051,0.0,0.6501,0.674,0.0,0.0,0.7177,0.7764,0.7547,0.7547,0.7764,0.7812,0.8113,0.8675,0.8846,0.9213,0.9698,1.0058,1.0641,1.1331,1.1331,1.1708,1.218,1.2275,1.2378,1.2432,-0.7883,-0.795,-0.8123,-0.8357,-0.8764,-0.9184,-0.9561,-0.9808,-0.9926,-0.9889,-1.0056,-1.0054,-0.98,-0.9731,-0.9474,-0.8861,-0.8656,-0.7921,-0.642,-0.5801,-0.4768,-0.3048,-0.255,-0.2029,-0.1549,-0.1474,-0.1287,-0.1042,0.0,-0.0742,-0.0501,-0.0457,-0.0379,-0.0303,-0.0307,-0.0272,-0.0314,-0.0393,-0.0432,-0.0471,-0.055,-0.0589,-0.0589,-0.0589,-0.055,-0.0432,-0.0432,-0.0393,-0.0275,-0.0314,-0.0236,-0.0079,0.0314,0.051,0.0668,0.0982,0.1844,0.2741,0.3015,0.3837,0.4621,0.4937,0.5018,0.5018,0.5018,0.5105,0.5205,0.5309,0.5379,0.5506,0.576,0.5806,0.0,0.0,0.0,0.0,0.0,0.0,0.601,0.0,0.5918,0.5833,0.561,0.6007,0.6055,0.5559,0.5647,0.5779,0.5789,0.0,0.6363,0.0,0.0,0.0,0.7208,0.0,0.725,0.768,0.7547,0.7808,0.8416,0.8548,0.8982,0.9637,1.0154,1.0539,1.0885,1.1365,1.18,1.2229,1.2229,1.2491,1.2924,1.2924,1.2966,1.3009,-0.8286,-0.8315,-0.8424,-0.8751,-0.911,-0.9404,-0.9751,-0.9857,-0.9854,-0.9826,-0.9726,-0.9564,-0.9258,-0.9268,-0.893,-0.8143,-0.776,-0.6938,-0.5541,-0.4622,-0.3707,-0.2749,-0.1996,-0.1545,-0.1432,-0.1375,-0.1187,0.0,0.0,0.0,-0.0225,-0.0227,-0.0151,0.0,0.0,0.0,0.0,0.0,-0.0236,-0.0236,-0.0393,-0.0471,-0.0471,-0.0471,-0.0393,-0.0236,-0.0236,-0.0118,0.0,-0.0118,-0.0079,0.0039,0.0275,0.0471,0.0668,0.106,0.2078,0.3132,0.3288,0.4151,0.5018,0.5018,0.5018,0.5023,0.5048,0.5143,0.526,0.5382,0.5547,0.5754,0.6116,0.6086,0.0,0.0,0.0,0.0,0.0,0.0,0.6323,0.0,0.0,0.0,0.5667,0.6335,0.654,0.5926,0.6087,0.617,0.6043,0.0,0.0,0.0,0.0,0.7414,0.7698,0.0,0.7841,0.816,0.8116,0.8504,0.9283,0.941,0.9893,1.0636,1.137,1.1763,1.1972,1.2534,1.279,1.279,1.2833,1.2966,1.3137,1.3137,1.327,1.3398,-0.8435,-0.841,-0.8423,-0.8592,-0.8835,-0.9075,-0.9112,-0.9349,-0.9636,-0.9919,-0.9504,-0.9162,-0.9153,-0.8933,-0.8247,-0.7045,-0.6831,-0.5801,-0.3701,-0.3413,-0.2846,-0.1873,-0.1763,-0.1566,-0.1241,-0.1146,-0.0923,0.0,0.0,-0.023,0.0,-0.0037,0.0,0.0,0.0,0.0,0.0,-0.0039,-0.0039,-0.0039,-0.0039,-0.0039,-0.0039,-0.0039,-0.0039,-0.0039,-0.0039,0.0,0.0039,0.0196,0.0118,0.0079,0.0432,0.0589,0.0785,0.1804,0.2547,0.3249,0.3834,0.4501,0.5018,0.5018,0.5018,0.5045,0.5146,0.5265,0.5388,0.5467,0.5801,0.6075,0.6177,0.6492,0.6697,0.0,0.0,0.0,0.0,0.0,0.6556,0.6313,0.0,0.0,0.5823,0.6134,0.6489,0.6762,0.663,0.6614,0.6793,0.0,0.0,0.7569,0.8211,0.8903,0.9644,0.9656,0.984,1.0289,1.012,1.0159,1.0463,1.0458,1.0852,1.1585,1.1671,1.2057,1.2619,1.2924,1.3052,1.3094,1.3264,1.3349,1.3355,1.3355,1.3398,1.3434,-0.8437,-0.8373,-0.8372,-0.8735,-0.8294,-0.8211,-0.9073,-0.8047,-0.7424,-0.8193,-0.8234,-0.8146,-0.7948,-0.7125,-0.6319,-0.5618,-0.5219,-0.4419,-0.2991,-0.2832,-0.2356,-0.1228,-0.1328,-0.125,-0.0955,-0.0881,-0.0712,0.0,0.0,0.0,0.0,0.0,0.0,0.0,0.0,0.0,0.0,0.0,0.0,0.0,0.0,0.0,0.0,0.0,0.0,0.0,0.0118,0.0196,0.0196,0.0393,0.0353,0.0314,0.1138,0.1372,0.1568,0.2468,0.321,0.3754,0.4029,0.4543,0.5034,0.5102,0.5118,0.5148,0.5268,0.539,0.5533,0.5709,0.6034,0.6328,0.6543,0.6642,0.674,0.6927,0.0,0.0,0.0,0.0,0.0,0.6549,0.0,0.641,0.6117,0.6939,0.7649,0.8011,0.7646,0.7482,0.0,0.0,0.0,0.8649,0.0,0.917,0.9885,0.95,0.9676,1.0419,1.0337,1.0636,1.1241,1.1241,1.1628,1.232,1.2448,1.2705,1.2966,1.3179,1.3264,1.3313,1.3355,1.3483,1.3568,1.3568,1.3695,1.3828,-0.843,-0.809,-0.7937,-0.8305,-0.7385,-0.7,-0.7991,-0.6604,-0.5665,-0.6294,-0.6305,-0.6304,-0.6424,-0.553,-0.4696,-0.4224,-0.3756,-0.3063,-0.2167,-0.2076,-0.1687,-0.0859,-0.096,0.0,-0.0668,-0.0654,-0.0494,-0.0295,-0.0251,0.0,0.0,0.0,0.0,0.0,0.0,0.0,0.0,0.0,0.0,0.0,0.0,0.0039,0.0079,0.0079,0.0118,0.0236,0.0549,0.0667,0.0746,0.1147,0.1229,0.1187,0.1729,0.2047,0.2372,0.3178,0.3775,0.4191,0.4388,0.4747,0.5094,0.5211,0.5241,0.5314,0.5518,0.5573,0.5685,0.5979,0.6277,0.6567,0.6748,0.6752,0.6847,0.7078,0.0,0.0,0.0,0.7011,0.0,0.6722,0.6729,0.6679,0.645,0.766,0.8599,0.8903,0.8862,0.8815,0.0,0.0,0.0,0.0,0.0,0.0,1.0605,1.0202,1.0366,1.1025,1.1025,1.137,1.1972,1.1972,1.2229,1.2705,1.2881,1.3009,1.3137,1.3313,1.344,1.3483,1.3568,1.3695,1.3822,1.3822,1.3955,1.4088,-0.8372,-0.7524,-0.6856,-0.7091,-0.611,-0.5335,-0.5337,-0.5211,-0.4976,-0.466,-0.3681,-0.3551,-0.4814,-0.4506,-0.3878,-0.2974,-0.2497,-0.1849,-0.0988,-0.0868,-0.0808,0.0,-0.0808,-0.0695,-0.043,-0.0421,-0.0269,0.0,0.0,0.0,0.0,0.0,0.0,0.0,0.0,0.0,0.0,0.0,0.0,0.0,0.0,0.0118,0.0314,0.0314,0.0432,0.0667,0.1333,0.1568,0.173,0.2655,0.296,0.2826,0.2132,0.2389,0.3147,0.3859,0.4176,0.4416,0.5023,0.5184,0.5214,0.5377,0.5407,0.5482,0.5815,0.5886,0.601,0.6313,0.6612,0.6795,0.6795,0.6966,0.7095,0.7095,0.0,0.0,0.0,0.7095,0.0,0.6736,0.703,0.7174,0.6812,0.8022,0.8927,0.9286,1.0351,0.0,0.0,0.0,0.0,1.0657,1.1312,0.0,1.2277,1.253,1.2662,1.2662,1.2662,1.2662,1.2705,1.2705,1.2705,1.2705,1.2705,1.2875,1.3137,1.3313,1.3525,1.3737,1.3997,1.4088,1.4088,1.4088,1.4088,1.4088,-0.6178,-0.5746,-0.5546,-0.5575,-0.4731,-0.4184,-0.4619,-0.3547,-0.2785,-0.3121,-0.2222,-0.1712,-0.2102,-0.206,-0.1851,-0.1545,-0.1174,-0.0835,-0.0571,-0.0561,-0.0455,-0.0253,-0.0455,-0.0397,-0.0143,-0.0142,-0.0092,0.0,0.0,0.0,0.0,0.0,0.0,0.0,0.0,0.0,0.0,0.0,0.0124,0.0288,0.0288,0.07,0.1316,0.1316,0.1686,0.2219,0.2547,0.2671,0.2755,0.319,0.3613,0.3896,0.3663,0.3755,0.4103,0.4772,0.5033,0.5103,0.527,0.5353,0.5341,0.5464,0.5451,0.5523,0.5733,0.6019,0.6336,0.6605,0.6833,0.701,0.701,0.7051,0.7095,0.7095,0.7095,0.0,0.7095,0.0,0.7294,0.713,0.7774,0.8247,0.8151,0.9339,1.0183,1.0423,1.134,0.0,0.0,0.0,0.0,0.0,1.1727,0.0,1.2818,1.2281,1.2322,1.2988,1.2795,1.279,1.2966,1.2966,1.3052,1.3179,1.3307,1.3434,1.3525,1.3786,1.3913,1.3997,1.4088,1.4088,1.4088,1.4088,1.4088,1.4088,-0.5047,-0.4618,-0.431,-0.4187,-0.3326,-0.2773,-0.308,-0.2097,-0.1412,-0.1692,-0.119,-0.0703,-0.0576,-0.056,-0.0603,-0.0705,-0.0422,-0.0259,-0.0257,-0.0254,-0.0152,0.0,-0.0152,-0.0149,0.0,0.0,0.0,0.0,0.0,0.0,0.0,0.0,0.0,0.0,0.0085,0.017,0.0168,0.0547,0.0757,0.0968,0.1219,0.1723,0.2311,0.2311,0.2646,0.3191,0.3526,0.3652,0.3699,0.4111,0.4504,0.4808,0.4891,0.4906,0.4974,0.5312,0.5401,0.5436,0.5436,0.5436,0.5466,0.5545,0.5662,0.5813,0.6068,0.639,0.6697,0.6877,0.7057,0.7227,0.7227,0.7227,0.7227,0.7227,0.7132,0.7095,0.7095,0.0,0.7355,0.0,0.0,0.0,0.0,1.0218,1.1117,0.0,1.1987,0.0,0.0,0.0,1.2506,1.2614,1.2347,1.2552,1.3221,1.2657,1.2692,1.3247,1.3157,1.32,1.3379,1.3379,1.3365,1.3398,1.3525,1.3652,1.3695,1.3864,1.3997,1.4088,1.4088,1.4088,1.4088,1.4088,1.4088,1.4088,-0.4742,-0.3942,-0.3203,-0.2956,-0.2097,-0.1358,-0.0986,-0.0986,-0.0858,-0.0482,-0.0475,-0.0351,-0.0057,0.0,-0.0107,-0.0373,0.0,0.0,0.0,0.0,0.0,0.0,0.0,0.0,0.0,0.0,0.0,0.0,0.0,0.0,0.0,0.0,0.0043,0.0127,0.0389,0.0517,0.0634,0.1521,0.1899,0.1942,0.2657,0.3078,0.329,0.329,0.346,0.3712,0.43,0.451,0.461,0.5266,0.5521,0.554,0.5653,0.5688,0.5645,0.5461,0.5474,0.5521,0.5521,0.5521,0.5545,0.5706,0.5908,0.6263,0.6716,0.6938,0.7115,0.7125,0.7288,0.7429,0.7419,0.7415,0.7412,0.7402,0.7234,0.7095,0.7139,0.7143,0.7223,0.0,0.0,0.0,0.9188,1.0747,1.1763,0.0,0.0,0.0,0.0,0.0,1.285,1.3071,1.3083,1.326,1.3538,1.3525,1.3521,1.3573,1.3749,1.3837,1.3837,1.3861,1.3721,1.3498,1.3472,1.3593,1.377,1.377,1.389,1.4088,1.4088,1.4088,1.4088,1.4088,1.4088,1.4088,-0.2838,-0.2283,-0.1913,-0.1851,-0.142,-0.0984,-0.0669,-0.0607,-0.048,-0.0175,-0.0116,-0.0114,0.0,0.0,0.0,-0.0105,-0.0051,0.0,0.0,0.0,0.0,0.0,0.0,0.0,0.0,0.0,0.0,0.0,0.0,0.0,0.0,0.0222,0.0577,0.1061,0.1331,0.1774,0.2339,0.256,0.2735,0.2864,0.304,0.3613,0.4362,0.4362,0.4673,0.5207,0.5339,0.5383,0.5432,0.5593,0.5645,0.565,0.568,0.5688,0.5677,0.5665,0.5623,0.5645,0.5645,0.5645,0.5697,0.5944,0.6169,0.6459,0.6844,0.7005,0.7125,0.7422,0.7519,0.7509,0.7439,0.7415,0.7333,0.7214,0.7119,0.7187,0.737,0.7591,0.7965,0.0,0.9602,1.0426,1.0984,1.1929,1.2385,0.0,0.0,1.2614,1.2415,1.2801,1.3011,1.3121,1.3083,1.344,1.4093,1.3896,1.389,1.4129,1.4174,1.4263,1.4391,1.4221,1.4296,1.4604,1.4335,1.4286,1.4329,1.4329,1.4246,1.4088,1.4088,1.4088,1.4088,1.4088,1.4088,1.4088,-0.1853,-0.1482,-0.1235,-0.105,-0.0864,-0.0677,-0.0305,-0.0242,-0.0179,0.0,0.0,0.0,0.0,0.0,0.0,0.0,0.0,0.0,0.0,0.0,0.0,0.0,0.0,0.0,0.0,0.0,0.0048,0.0185,0.0503,0.0724,0.0852,0.13,0.1748,0.2106,0.2327,0.2684,0.3089,0.3535,0.3803,0.3933,0.4204,0.4652,0.5146,0.5146,0.5371,0.5688,0.5688,0.5688,0.5688,0.5688,0.5688,0.5733,0.5863,0.5863,0.5908,0.5994,0.5952,0.5863,0.5863,0.5952,0.6083,0.6349,0.6528,0.6773,0.7125,0.7244,0.7316,0.7537,0.7651,0.7672,0.7587,0.7519,0.7494,0.7451,0.7454,0.7584,0.8069,0.8328,0.8836,0.9756,1.0607,1.1356,1.2004,1.2677,1.2964,1.2705,1.2928,0.0,1.2699,1.3079,1.3258,1.3258,1.3423,1.3768,1.4471,1.4429,1.4537,1.4844,1.4806,1.4878,1.4969,1.481,1.4847,1.5001,1.4796,1.4643,1.4529,1.4669,1.4549,1.4302,1.4436,1.4489,1.4489,1.4489,1.4489,1.4532,-0.142,-0.1173,-0.0864,-0.0556,-0.0432,-0.0308,-0.0062,0.0,0.0,0.0,0.0,0.0,0.0,0.0,0.0,0.0,0.0,0.0,0.0,0.0,0.0,0.0,0.0,0.0,0.0,0.0049,0.024,0.0604,0.1199,0.1639,0.197,0.2642,0.3001,0.3135,0.3355,0.3487,0.3621,0.4472,0.483,0.4919,0.5463,0.5688,0.5688,0.5688,0.5688,0.5688,0.5733,0.5777,0.5777,0.5774,0.5819,0.5863,0.6083,0.6124,0.6169,0.6343,0.6314,0.6242,0.6177,0.6317,0.6557,0.6805,0.6995,0.7139,0.7388,0.7539,0.7638,0.7662,0.776,0.7838,0.7814,0.7695,0.7738,0.7922,0.7974,0.8204,0.8928,0.0,0.9781,1.081,1.1442,1.2041,1.258,1.315,1.3423,1.32,1.3387,1.3417,1.3149,1.3429,1.3619,1.3619,1.3837,1.4227,1.4831,1.5016,1.5251,1.554,1.5485,1.5464,1.5464,1.5418,1.5284,1.5142,1.5095,1.4883,1.4676,1.4923,1.4856,1.4609,1.4908,1.5008,1.5053,1.5053,1.5136,1.5315,-0.1112,-0.0803,-0.0556,-0.0494,-0.0247,-0.0061,0.0,0.0,0.0,0.0,0.0,0.0,0.0,0.0,0.0,0.0,0.0,0.0,0.0,0.0,0.0,0.0,0.0,0.0,0.0,0.0244,0.0764,0.1563,0.1694,0.2066,0.2732,0.3042,0.3491,0.4074,0.4338,0.4786,0.5327,0.5463,0.5552,0.5552,0.5644,0.5688,0.5688,0.5688,0.5688,0.5733,0.5952,0.6041,0.6083,0.6257,0.6299,0.6299,0.6343,0.6343,0.6343,0.6384,0.6607,0.6769,0.6465,0.661,0.6959,0.7118,0.7309,0.755,0.7716,0.7763,0.7814,0.7894,0.7938,0.7914,0.7834,0.7835,0.7966,0.8247,0.8554,0.8945,0.9643,0.0,1.0835,1.176,1.2175,1.2649,1.328,1.3423,1.3501,1.3459,1.3495,1.3501,1.3459,1.389,1.4177,1.4177,1.422,1.4603,1.535,1.5596,1.569,1.573,1.5738,1.5758,1.5752,1.5504,1.5504,1.5678,1.5438,1.5304,1.5264,1.5311,1.5157,1.4948,1.4988,1.5084,1.525,1.525,1.5784,1.6536,-0.0741,-0.0432,-0.0247,-0.0247,-0.0123,0.0,0.0,0.0,0.0,0.0,0.0,0.0,0.0,0.0,0.0,0.0,0.0,0.0,0.0,0.0,0.0,0.0,0.0152,0.0303,0.0404,0.0992,0.1508,0.1999,0.2925,0.3559,0.3892,0.4387,0.4793,0.506,0.5191,0.5416,0.5688,0.5688,0.5688,0.5688,0.5688,0.5688,0.5733,0.5863,0.5908,0.5952,0.6169,0.6257,0.6254,0.6387,0.6384,0.6432,0.6567,0.6612,0.6672,0.6882,0.6956,0.7015,0.7018,0.7165,0.7326,0.7389,0.756,0.7729,0.7797,0.7875,0.7904,0.7975,0.7988,0.7968,0.7897,0.789,0.8041,0.846,0.8939,0.0,1.0512,1.123,1.1958,1.295,1.3187,1.3408,1.3877,1.3936,1.3876,1.3737,1.3997,1.4068,1.3921,1.4453,1.4791,1.4927,1.4974,1.5126,1.5493,1.5683,1.5784,1.5784,1.5784,1.5784,1.5778,1.5691,1.5705,1.5771,1.5691,1.5538,1.5404,1.5565,1.5458,1.5211,1.5364,1.547,1.5602,1.5747,1.6338,1.7107,-0.037,-0.0185,0.0,0.0,0.0,0.0,0.0,0.0,0.0,0.0,0.0,0.0,0.0,0.0,0.0,0.0,0.0,0.0,0.0,0.0,0.0051,0.0101,0.0354,0.0606,0.0909,0.1658,0.2272,0.2588,0.4044,0.4823,0.5037,0.5617,0.5831,0.5726,0.5699,0.5688,0.5688,0.5777,0.5777,0.5777,0.5863,0.5863,0.5863,0.6083,0.6171,0.6213,0.6435,0.6476,0.6526,0.6602,0.6611,0.6662,0.6927,0.6985,0.705,0.7344,0.731,0.727,0.757,0.7648,0.7658,0.7692,0.7784,0.7865,0.7865,0.7907,0.7988,0.7988,0.7988,0.8041,0.8088,0.8208,0.85,0.9007,0.0,1.0622,1.1605,1.2381,1.311,1.3817,1.4014,1.4147,1.4286,1.4346,1.4309,1.4108,1.4529,1.4696,1.449,1.4962,1.5315,1.554,1.5588,1.5588,1.5588,1.5737,1.5784,1.5784,1.5784,1.5784,1.5784,1.5784,1.5784,1.5784,1.5784,1.5705,1.5518,1.5785,1.5886,1.5889,1.6162,1.6386,1.6615,1.681,1.7372,1.811,-0.0123,0.0,0.0,0.0,0.0,0.0,0.0,0.0,0.0,0.0,0.0,0.0,0.0,0.0,0.0,0.0,0.0,0.0,0.0,0.0,0.0101,0.0354,0.0606,0.0909,0.1162,0.1935,0.2844,0.3764,0.4481,0.5227,0.6006,0.5799,0.5798,0.5885,0.5734,0.5688,0.5733,0.5952,0.6083,0.6083,0.6254,0.634,0.6343,0.6387,0.6387,0.6432,0.6659,0.6748,0.6811,0.7218,0.7307,0.7334,0.7476,0.752,0.757,0.758,0.7675,0.7735,0.7794,0.7794,0.7831,0.7921,0.7965,0.7971,0.7971,0.7982,0.7988,0.7988,0.7988,0.8088,0.8333,0.902,0.9822,1.0502,0.0,0.0,1.289,1.3637,1.4088,1.393,1.4352,1.4564,1.4322,1.4538,1.4682,1.4657,1.4921,1.507,1.5051,1.5296,1.554,1.5784,1.5784,1.5784,1.5784,1.5778,1.5784,1.5784,1.5784,1.5784,1.5784,1.5784,1.5784,1.5784,1.5784,1.5771,1.5798,1.6069,1.6574,1.7203,1.7451,1.8141,1.8964,1.8964,1.9567,2.0357,0.0,0.0,0.0,0.0,0.0,0.0,0.0,0.0,0.0,0.0,0.0,0.0,0.0,0.0,0.0,0.0,0.0,0.0,0.0,0.0,0.0102,0.0404,0.0657,0.1161,0.1918,0.2904,0.3818,0.4653,0.5417,0.5893,0.6086,0.6072,0.6139,0.629,0.6198,0.623,0.6343,0.6517,0.6548,0.6472,0.656,0.6654,0.6722,0.6775,0.6839,0.6912,0.7194,0.729,0.73,0.7492,0.7512,0.7522,0.7584,0.76,0.7617,0.7706,0.7834,0.7904,0.7904,0.7904,0.7917,0.7975,0.7988,0.7988,0.7988,0.7988,0.8065,0.8362,0.8433,0.8682,0.9431,1.0025,1.0605,1.1189,0.0,1.309,1.3288,1.39,1.4322,1.4401,1.4594,1.4655,1.4569,1.4794,1.4971,1.4946,1.5332,1.5538,1.5369,1.5547,1.5737,1.5784,1.5784,1.5784,1.5784,1.5784,1.5784,1.5784,1.5784,1.5784,1.5784,1.5784,1.5784,1.5784,1.5784,1.5784,1.5832,1.5927,1.6211,1.6683,1.7232,1.7785,1.8326,1.8972,1.9704,2.0439,0.0,0.0,0.0,0.0,0.0,0.0,0.0,0.0,0.0,0.0,0.0,0.0,0.0,0.0,0.0,0.0,0.0,0.0,0.0,0.0104,0.0256,0.0505,0.1111,0.1767,0.2522,0.3731,0.4606,0.5141,0.5965,0.6369,0.6342,0.635,0.6472,0.6706,0.6664,0.6692,0.6756,0.6942,0.6926,0.6885,0.6934,0.7038,0.7117,0.7161,0.7227,0.7359,0.755,0.76,0.7607,0.7651,0.7665,0.7675,0.7723,0.774,0.7756,0.7855,0.7907,0.8002,0.8099,0.8113,0.8099,0.8002,0.8025,0.8113,0.8113,0.8197,0.836,0.872,0.8852,0.9259,1.0374,1.0935,1.1493,1.2188,1.321,1.3923,1.4002,1.4392,1.4684,1.4714,1.4865,1.4873,1.471,1.5115,1.5344,1.5356,1.5852,1.6068,1.5871,1.5923,1.6012,1.6106,1.5878,1.5872,1.5965,1.5831,1.5784,1.5784,1.5784,1.5784,1.5784,1.5784,1.5784,1.5784,1.5879,1.5927,1.5974,1.6346,1.677,1.7232,1.8017,1.8611,1.9026,1.9749,2.0303,2.0763,0.0,0.0,0.0,0.0,0.0,0.0,0.0,0.0,0.0,0.0,0.0,0.0,0.0,0.0,0.0,0.0,0.0,0.0,0.0,0.0255,0.0556,0.0808,0.207,0.2826,0.2826,0.4384,0.519,0.519,0.5935,0.6478,0.6789,0.6582,0.6718,0.7079,0.6953,0.6894,0.6938,0.7123,0.7214,0.7214,0.7503,0.76,0.7604,0.76,0.76,0.7604,0.7604,0.7604,0.7624,0.7767,0.7814,0.7838,0.7941,0.7988,0.7988,0.7992,0.7992,0.8025,0.8231,0.8323,0.8235,0.8032,0.816,0.8323,0.8323,0.8588,0.8895,0.8898,0.9171,0.9746,1.0876,1.1695,1.2571,1.3709,1.4593,1.5113,1.5113,1.5336,1.5306,1.4787,1.5185,1.5294,1.4769,1.5451,1.591,1.591,1.6406,1.6707,1.6707,1.6433,1.6406,1.6693,1.6139,1.5979,1.6321,1.5979,1.5784,1.5784,1.5784,1.5784,1.5784,1.5784,1.5784,1.5832,1.6076,1.6224,1.6312,1.7574,1.8527,1.9293,2.0221,2.1051,2.1687,2.1696,2.1696,2.1696,0.0,0.0,0.0,0.0,0.0,0.0,0.0,0.0,0.0,0.0,0.0,0.0,0.0,0.0,0.0,0.0,0.0,0.0105,0.0255,0.1215,0.1817,0.1917,0.2321,0.3026,0.4182,0.4836,0.5591,0.6342,0.6559,0.6804,0.7089,0.7008,0.714,0.743,0.7389,0.7463,0.7561,0.7712,0.7696,0.7647,0.7698,0.7814,0.7847,0.7787,0.7814,0.786,0.786,0.786,0.7867,0.7907,0.7921,0.7931,0.7975,0.7988,0.8012,0.817,0.8201,0.8235,0.8381,0.8418,0.8408,0.836,0.8384,0.8418,0.8418,0.8657,0.8979,0.9306,1.0126,1.108,1.2178,1.3203,1.4057,1.4651,1.5259,1.5596,1.5409,1.5451,1.5439,1.5282,1.5564,1.5727,1.557,1.6088,1.6476,1.6469,1.6607,1.6707,1.6707,1.662,1.652,1.6406,1.6233,1.6279,1.6573,1.6079,1.5784,1.5784,1.5784,1.5784,1.5784,1.5784,1.5879,1.6123,1.673,1.7099,1.7326,1.8203,1.8842,1.9285,2.0076,2.0628,2.0997,2.1508,2.1696,2.1696,0.0,0.0,0.0,0.0,0.0,0.0,0.0,0.0,0.0,0.0,0.0,0.0,0.0,0.0,0.0,0.0,0.0109,0.0474,0.1176,0.2077,0.2873,0.3627,0.3776,0.4228,0.5085,0.5689,0.6289,0.6942,0.6942,0.7092,0.7341,0.7341,0.7494,0.7743,0.7743,0.7793,0.7909,0.7951,0.7938,0.7899,0.7899,0.7907,0.7978,0.7887,0.7911,0.7988,0.7988,0.7988,0.7988,0.7988,0.7988,0.8002,0.8113,0.813,0.816,0.8309,0.8353,0.8387,0.8533,0.8676,0.881,0.8932,0.8873,0.8888,0.9202,0.9728,1.0258,1.0779,1.172,1.2683,1.3567,1.4261,1.492,1.5468,1.5753,1.5831,1.5674,1.5761,1.5777,1.5673,1.6014,1.6172,1.6049,1.6588,1.6944,1.7068,1.7054,1.7054,1.7054,1.6947,1.6854,1.6844,1.6502,1.6466,1.6874,1.6299,1.6005,1.6005,1.6005,1.5945,1.5784,1.5784,1.5879,1.6076,1.6723,1.7279,1.7785,1.8703,1.9347,1.9849,2.0574,2.0952,2.1096,2.1553,2.1696,2.1696,0.0,0.0,0.0,0.0,0.0,0.0,0.0,0.0,0.0,0.0,0.0,0.0,0.0,0.0,0.0,0.0056,0.0381,0.1166,0.244,0.291,0.3888,0.5584,0.5992,0.6042,0.5787,0.6736,0.7188,0.7238,0.7238,0.7391,0.7646,0.7646,0.7743,0.7988,0.7988,0.7988,0.7988,0.7988,0.7988,0.7988,0.7988,0.7988,0.7988,0.7988,0.7988,0.7988,0.7988,0.7988,0.7992,0.8005,0.8012,0.8039,0.8241,0.834,0.8371,0.8462,0.8555,0.8589,0.876,0.9071,0.9468,0.9714,0.9684,0.9792,1.0435,1.1401,1.2325,1.2845,1.3623,1.4359,1.4922,1.5104,1.5435,1.621,1.6151,1.5981,1.5981,1.6176,1.6231,1.5989,1.6426,1.6634,1.638,1.6911,1.7331,1.7582,1.7582,1.7569,1.7549,1.7373,1.7347,1.7535,1.6767,1.667,1.7233,1.6683,1.6388,1.6362,1.6362,1.6166,1.5858,1.6001,1.6048,1.6096,1.6753,1.7406,1.8148,1.9307,2.0186,2.0877,2.1518,2.1778,2.1742,2.1742,2.1723,2.1696,0.0,0.0,0.0,0.0,0.0,0.0,0.0,0.0,0.0,0.0,0.0,0.0,0.0,0.0,0.0112,0.028,0.1648,0.2623,0.2802,0.4648,0.5754,0.5887,0.6929,0.7396,0.7197,0.7188,0.7291,0.7494,0.7494,0.7643,0.7892,0.7892,0.7939,0.7988,0.7988,0.7988,0.7988,0.7988,0.7988,0.7988,0.7988,0.7988,0.7988,0.7988,0.7988,0.7988,0.7988,0.7988,0.8008,0.818,0.8221,0.8245,0.8391,0.8435,0.8465,0.8618,0.8819,0.9094,0.9314,1.017,1.1054,1.1269,1.2008,1.251,1.1716,1.2466,1.3372,1.3492,1.4405,1.5135,1.5311,1.5872,1.6386,1.6554,1.6545,1.6531,1.6531,1.6555,1.6605,1.6548,1.6869,1.7094,1.7035,1.7285,1.7529,1.7582,1.7582,1.7534,1.7306,1.7454,1.7467,1.73,1.7112,1.7179,1.7482,1.7186,1.6891,1.6613,1.6613,1.658,1.6513,1.7443,1.7925,1.8177,1.9758,2.0618,2.0959,2.1825,2.2265,2.2405,2.2592,2.2446,2.2153,2.2153,2.1961,2.1696,0.0,0.0,0.0,0.0,0.0,0.0,0.0,0.0,0.0,0.0,0.0,0.0,0.0,0.0113,0.0616,0.1623,0.3083,0.4164,0.4565,0.5941,0.6788,0.697,0.7753,0.8123,0.8051,0.7829,0.7761,0.7793,0.7793,0.7842,0.7988,0.7988,0.7988,0.7988,0.7988,0.7988,0.7988,0.7988,0.7988,0.7988,0.7988,0.7988,0.7988,0.7988,0.8035,0.815,0.815,0.8194,0.8262,0.8343,0.837,0.8397,0.8547,0.8591,0.8675,0.8937,0.9465,1.0003,1.0372,1.1393,1.2412,1.271,1.3769,1.4432,1.3521,1.4038,1.4781,1.5072,1.5801,1.6384,1.6433,1.6819,1.7164,1.7284,1.7222,1.7145,1.7145,1.7293,1.736,1.736,1.7638,1.7807,1.7807,1.7962,1.8016,1.8016,1.8016,1.7949,1.7849,1.7796,1.7736,1.7582,1.7353,1.734,1.7582,1.7347,1.7192,1.7121,1.714,1.7244,1.7548,1.8277,1.8867,1.9357,2.0466,2.1244,2.1683,2.2176,2.2564,2.2904,2.2904,2.2648,2.2282,2.2282,2.2025,2.1723,0.0,0.0,0.0,0.0,0.0,0.0,0.0,0.0,0.0,0.0059,0.0058,0.0171,0.0338,0.0786,0.1735,0.3299,0.4579,0.5628,0.6531,0.7,0.7525,0.8121,0.8404,0.8509,0.8482,0.8367,0.8231,0.8029,0.8002,0.7988,0.7988,0.7988,0.7988,0.7988,0.7988,0.7988,0.7988,0.7988,0.7988,0.7988,0.7988,0.7988,0.7988,0.7988,0.8136,0.8323,0.8323,0.8364,0.8486,0.8513,0.8537,0.8587,0.8791,0.8856,0.9013,0.9636,1.0331,1.1079,1.172,1.2782,1.3831,1.4177,1.5215,1.5993,1.56,1.5862,1.6333,1.6819,1.7298,1.7646,1.7708,1.7728,1.7785,1.8021,1.7899,1.7721,1.7721,1.801,1.8144,1.8144,1.8373,1.849,1.849,1.849,1.849,1.849,1.849,1.849,1.849,1.8257,1.8069,1.8069,1.7642,1.7548,1.7736,1.7554,1.7527,1.7655,1.7787,1.8018,1.8345,1.8934,1.9577,2.0264,2.0801,2.1383,2.197,2.2123,2.2527,2.3014,2.3087,2.2812,2.2391,2.2391,2.2226,2.2033,0.0,0.0,0.0,0.0,0.0,0.0,0.0,0.0,0.0059,0.0295,0.0344,0.0734,0.1772,0.3103,0.4134,0.4632,0.5964,0.6806,0.6867,0.7989,0.8594,0.844,0.8611,0.8618,0.8486,0.8462,0.8384,0.8238,0.8106,0.7988,0.7988,0.7988,0.7988,0.7988,0.7988,0.7988,0.7988,0.7988,0.7988,0.7988,0.7988,0.7988,0.7988,0.7988,0.8136,0.8323,0.8323,0.8364,0.8503,0.8635,0.8767,0.8903,0.9325,0.9578,0.9978,1.1135,1.1705,1.2201,1.3269,1.4478,1.5533,1.5761,1.6539,1.7297,1.7488,1.7628,1.7723,1.7809,1.8085,1.8292,1.8312,1.8306,1.8306,1.8364,1.8295,1.8272,1.8272,1.8358,1.8435,1.8435,1.849,1.849,1.849,1.849,1.849,1.849,1.849,1.849,1.849,1.8457,1.843,1.843,1.835,1.833,1.837,1.833,1.8196,1.7929,1.8466,1.8499,1.8102,1.9823,2.0793,2.1241,2.2921,2.3732,2.3839,2.3889,2.3688,2.3453,2.3849,2.3529,2.2821,2.2821,2.2916,2.3094,0.0,0.0,0.0,0.0,0.0,0.0059,0.0176,0.0234,0.0523,0.1278,0.1591,0.2076,0.3107,0.4714,0.5864,0.6086,0.7318,0.8076,0.8014,0.8569,0.8824,0.8743,0.8801,0.8808,0.8737,0.8655,0.8577,0.8516,0.836,0.8286,0.8286,0.8208,0.8211,0.8279,0.8062,0.8039,0.817,0.817,0.817,0.8177,0.8255,0.8286,0.8286,0.8286,0.8384,0.8526,0.8615,0.8682,0.8747,0.8815,0.9047,0.9346,0.9525,1.022,1.0985,1.1216,1.2413,1.3826,1.4109,1.5335,1.6564,1.6827,1.7185,1.7509,1.763,1.8099,1.847,1.8447,1.8592,1.8716,1.888,1.8751,1.8771,1.8952,1.8957,1.8986,1.8986,1.8994,1.8978,1.8978,1.8978,1.8978,1.8978,1.8978,1.8978,1.8978,1.8978,1.8978,1.8978,1.8824,1.8731,1.8731,1.8577,1.8594,1.8705,1.8705,1.9016,1.9516,1.9787,1.9786,1.9657,2.0842,2.1912,2.297,2.3845,2.4202,2.4202,2.4202,2.4101,2.3904,2.4128,2.3794,2.3206,2.2986,2.2989,2.311]},{"header":{"parameterUnit":"m.s-1","parameterCategory":1,"la1":30.6,"la2":28.766,"lo1":-90.7593,"lo2":-88.6598,"dy":0.0162,"dx":0.0183,"nx":116,"ny":114,"refTime":"2023-05-25T18:00:00:Z","depth":0,"parameterNumber":3,"parameterNumberName":"V-component_of_WINDS"},"data":[0.0,0.0,0.0,0.0,0.0,0.0,0.0,0.0,0.0,0.0,0.0,0.0,0.0,0.0,0.0,0.0,0.0,0.0,0.0,0.0,0.0,0.0,0.0,0.0,0.0,0.0,0.0,0.0,0.0,0.0,0.0,0.0,0.0,0.0,0.0,0.0,0.0,0.0,0.0,0.0,0.0,0.0,0.0,0.0,0.0,0.0,0.0,0.0,0.0,0.0,0.0,0.0,0.0,0.0,0.0,0.0,0.0,0.0,0.0,0.0,0.0,0.0,0.0,0.0,0.0,0.0,0.0,0.0,0.0,0.0,0.0,0.0,0.0,0.0,0.0,0.0,0.0,0.0,0.0,0.0,0.0,0.0,0.0,0.0,0.0,0.0,0.0,0.0,0.0,0.0,0.0,0.0,0.0,0.0,0.0,0.0,0.0,0.0,0.0,0.0,0.0,0.0,0.0,0.0,0.0,0.0,0.0,0.0,0.0,0.0,0.0,0.0,0.0,0.0,0.0,0.0,0.0,0.0,0.0,0.0,0.0,0.0,0.0,0.0,0.0,0.0,0.0,0.0,0.0,0.0,0.0,0.0,0.0,0.0,0.0,0.0,0.0,0.0,0.0,0.0,0.0,0.0,0.0,0.0,0.0,0.0,0.0,0.0,0.0,0.0,0.0,0.0,0.0,0.0,0.0,0.0,0.0,0.0,0.0,0.0,0.0,0.0,0.0,0.0,0.0,0.0,0.0,0.0,0.0,0.0,0.0,0.0,0.0,0.0,0.0,0.0,0.0,0.0,0.0,0.0,0.0,0.0,0.0,0.0,0.0,0.0,0.0,0.0,0.0,0.0,0.0,0.0,0.0,0.0,0.0,0.0,0.0,0.0,0.0,0.0,0.0,0.0,0.0,0.0,0.0,0.0,0.0,0.0,0.0,0.0,0.0,0.0,0.0,0.0,0.0,0.0,0.0,0.0,0.0,0.0,0.0,0.0,0.0,0.0,0.0,0.0,0.0,0.0,0.0,0.0,0.0,0.0,0.0,0.0,0.0,0.0,0.0,0.0,0.0,0.0,0.0,0.0,0.0,0.0,0.0,0.0,0.0,0.0,0.0,0.0,0.0,0.0,0.0,0.0,0.0,0.0,0.0,0.0,0.0,0.0,0.0,0.0,0.0,0.0,0.0,0.0,0.0,0.0,0.0,0.0,0.0,0.0,0.0,0.0,0.0,0.0,0.0,0.0,0.0,0.0,0.0,0.0,0.0,0.0,0.0,0.0,0.0,0.0,0.0,0.0,0.0,0.0,0.0,0.0,0.0,0.0,0.0,0.0,0.0,0.0,0.0,0.0,0.0,0.0,0.0,0.0,0.0,0.0,0.0,0.0,0.0,0.0,0.0,0.0,0.0,0.0,0.0,0.0,0.0,0.0,0.0,0.0,0.0,0.0,0.0,0.0,0.0,0.0,0.0,0.0,0.0,0.0,0.0,0.0,0.0,0.0,0.0,0.0,0.0,0.0,0.0,0.0,0.0,0.0,0.0,0.0,0.0,0.0,0.0,0.0,0.0,0.0,0.0,0.0,0.0,0.0,0.0,0.0,0.0,0.0,0.0,0.0,0.0,0.0,0.0,0.0,0.0,0.0,0.0,0.0,0.0,0.0,0.0,0.0,0.0,0.0,0.0,0.0,0.0,0.0,0.0,0.0,0.0,0.0,0.0,0.0,0.0,0.0,0.0,0.0,0.0,0.0,0.0,0.0,0.0,0.0,0.0,0.0,0.0,0.0,0.0,0.0,0.0,0.0,0.0,0.0,0.0,0.0,0.0,0.0,0.0,0.0,0.0,0.0,0.0,0.0,0.0,0.0,0.0,0.0,0.0,0.0,0.0,0.0,0.0,0.0,0.0,0.0,0.0,0.0,0.0,0.0,0.0,0.0,0.0,0.0,0.0,0.0,0.0,0.0,0.0,0.0,0.0,0.0,0.0,0.0,0.0,0.0,0.0,0.0,0.0,0.0,0.0,0.0,0.0,0.0,0.0,0.0,0.0,0.0,0.0,0.0,0.0,0.0,0.0,0.0,0.0,0.0,0.0,0.0,0.0,0.0,0.0,0.0,0.0,0.0,0.0,0.0,0.0,0.0,0.0,0.0,0.0,0.0,0.0,0.0,0.0,0.0,0.0,0.0,0.0,0.0,0.0,0.0,0.0,0.0,0.0,0.0,0.0,0.0,0.0,0.0,0.0,0.0,0.0,0.0,0.0,0.0,0.0,0.0,0.0,0.0,0.0,0.0,0.0,0.0,0.0,0.0,0.0,0.0,0.0,0.0,0.0,0.0,0.0,0.0,0.0,0.0,0.0,0.0,0.0,0.0,0.0,0.0,0.0,0.0,0.0,0.0,0.0,0.0,0.0,0.0,0.0,0.0,0.0,0.0,0.0,0.0,0.0,0.0,0.0,0.0,0.0,0.0,0.0,0.0,0.0,0.0,0.0,0.0,0.0,0.0,0.0,0.0,0.0,0.0,0.0,0.0,0.0,0.0,0.0,0.0,0.0,0.0,0.0,0.0,0.0,0.0,0.0,0.0,0.0,0.0,0.0,0.0,0.0,0.0,0.0,0.0,0.0,0.0,0.0,0.0,0.0,0.0,0.0,0.0,0.0,0.0,0.0,0.0,0.0,0.0,0.0,0.0,0.0,0.0,0.0,0.0,0.0,0.0,0.0,0.0,0.0,0.0,0.0,0.0,0.0,0.0,0.0,0.0,0.0,0.0,0.0,0.0,0.0,0.0,0.0,0.0,0.0,0.0,0.0,0.0,0.0,0.0,0.0,0.0,0.0,0.0,0.0,0.0,0.0,0.0,0.0,0.0,0.0,0.0,0.0,0.0,0.0,0.0,0.0,0.0,0.0,0.0,0.0,0.0,0.0,0.0,0.0,0.0,0.0,0.0,0.0,0.0,0.0,0.0,0.0,0.0,0.0,0.0,0.0,0.0,0.0,0.0,0.0,0.0,0.0,0.0,0.0,0.0,0.0,0.0,0.0,0.0,0.0,0.0,0.0,0.0,0.0,0.0,0.0,0.0,0.0,0.0,0.0,0.0,0.0,0.0,0.0,0.0,0.0,0.0,0.0,0.0,0.0,0.0,0.0,0.0,0.0,0.0,0.0,0.0,0.0,0.0,0.0,0.0,0.0,0.0,0.0,0.0,0.0,0.0,0.0,0.0,0.0,0.0,0.0,0.0,0.0,0.0,0.0,0.0,0.0,0.0,0.0,0.0,0.0,0.0,0.0,0.0,0.0,0.0,0.0,0.0,0.0,0.0,0.0,0.0,0.0,0.0,0.0,0.0,0.0,0.0,0.0,0.0,0.0,0.0,0.0,0.0,0.0,0.0,0.0,0.0,0.0,0.0,0.0,0.0,0.0,0.0,0.0,0.0,0.0,0.0,0.0,0.0,0.0,0.0,0.0,0.0,0.0,0.0,0.0,0.0,0.0,0.0,0.0,0.0,0.0,0.0,0.0,0.0,0.0,0.0,0.0,0.0,0.0,0.0,0.0,0.0,0.0,0.0,0.0,0.0,0.0,0.0,0.0,0.0,0.0,0.0,0.0,0.0,0.0,0.0,0.0,0.0,0.0,0.0,0.0,0.0,0.0,0.0,0.0,0.0,0.0,0.0,0.0,0.0,0.0,0.0,0.0,0.0,0.0,0.0,0.0,0.0,0.0,0.0,0.0,0.0,0.0,0.0,0.0,0.0,0.0,0.0,0.0,0.0,0.0,0.0,0.0,0.0,0.0,0.0,0.0,0.0,0.0,0.0,0.0,0.0,0.0,0.0,0.0,0.0,0.0,0.0,0.0,0.0,0.0,0.0,0.0,0.0,0.0,0.0,0.0,0.0,0.0,0.0,0.0,0.0,0.0,0.0,0.0,0.0,0.0,0.0,0.0,0.0,0.0,0.0,0.0,0.0,0.0,0.0,0.0,0.0,0.0,0.0,0.0,0.0,0.0,0.0,0.0,0.0,0.0,0.0,0.0,0.0,0.0,0.0,0.0,0.0,0.0,0.0,0.0,0.0,0.0,0.0,0.0,0.0,0.0,0.0,0.0,0.0,0.0,0.0,0.0,0.0,0.0,0.0,0.0,0.0,0.0,0.0,0.0,0.0,0.0,0.0,0.0,0.0,0.0,0.0,0.0,0.0,0.0,0.0,0.0,0.0,0.0,0.0,0.0,0.0,0.0,0.0,0.0,0.0,0.0,0.0,0.0,0.0,0.0,0.0,0.0,0.0,0.0,0.0,0.0,0.0,0.0,0.0,0.0,0.0,0.0,0.0,0.0,0.0,0.0,0.0,0.0,0.0,0.0,0.0,0.0,0.0,0.0,0.0,0.0,0.0,0.0,0.0,0.0,0.0,0.0,0.0,0.0,0.0,0.0,0.0,0.0,0.0,0.0,0.0,0.0,0.0,0.0,0.0,0.0,0.0,0.0,0.0,0.0,0.0,0.0,0.0,0.0,0.0,0.0,0.0,0.0,0.0,0.0,0.0,0.0,0.0,0.0,0.0,0.0,0.0,0.0,0.0,0.0,0.0,0.0,0.0,0.0,0.0,0.0,0.0,0.0,0.0,0.0,0.0,0.0,0.0,0.0,0.0,0.0,0.0,0.0,0.0,0.0,0.0,0.0,0.0,0.0,0.0,0.0,0.0,0.0,0.0,0.0,0.0,0.0,0.0,0.0,0.0,0.0,0.0,0.0,0.0,0.0,0.0,0.0,0.0,0.0,0.0,0.0,0.0,0.0,0.0,0.0,0.0,0.0,0.0,0.0,0.0,0.0,0.0,0.0,0.0,0.0,0.0,0.0,0.0,0.0,0.0,0.0,0.0,0.0,0.0,0.0,0.0,0.0,0.0,0.0,0.0,0.0,0.0,0.0,0.0,0.0,0.0,0.0,0.0,0.0,0.0,0.0,0.0,0.0,0.0,0.0,0.0,0.0,0.0,0.0,0.0,0.0,0.0,0.0,0.0,0.0,0.0,0.0,0.0,0.0,0.0,0.0,0.0,0.0,0.0,0.0,0.0,0.0,0.0,0.0,0.0,0.0,0.0,0.0,0.0,0.0,0.0,0.0,0.0,0.0,0.0,0.0,0.0,0.0,0.0,0.0,0.0,0.0,0.0,0.0,0.0,0.0,0.0,0.0,0.0,0.0,0.0,0.0,0.0,0.0,0.0,0.0,0.0,0.0,0.0,0.0,0.0,0.0,0.0,0.0,0.0,0.0,0.0,0.0,0.0,0.0,0.0,0.0,0.0,0.0,0.0,0.0,0.0,0.0,0.0,0.0,0.0,0.0,0.0,0.0,0.0,0.0,0.0,0.0,0.0,0.0,0.0,0.0,0.0,0.0,0.0,0.0,0.0,0.0,0.0,0.0,0.0,0.0,0.0,0.0,0.0,0.0,0.0,0.0,0.0,0.0,0.0,0.0,0.0,0.0,0.0,0.0,0.0,0.0,0.0,0.0,0.0,0.0,0.0,0.0,0.0,0.0,0.0,0.0,0.0,0.0,0.0,0.0,0.0,0.0,0.0,0.0,0.0,0.0,0.0,0.0,0.0,0.0,0.0,0.0,0.0,0.0,0.0,0.0,0.0,0.0,0.0,0.0,0.0,0.0,0.0,0.0,0.0,0.0,0.0,0.0,0.0,0.0,0.0,0.0,0.0,0.0,0.0,0.0,0.0,0.0,0.0,0.0,0.0,0.0,0.0,0.0,0.0,0.0,0.0,0.0,0.0,0.0,0.0,0.0,0.0,0.0,0.0,0.0,0.0,0.0,0.0,0.0,0.0,0.0,0.0,0.0,0.0,0.0,0.0,0.0,0.0,0.0,0.0,0.0,0.0,0.0,0.0,0.0,0.0,0.0,0.0,0.0,0.0,0.0,0.0,0.0,0.0,0.0,0.0,0.0,0.0,0.0,0.0,0.0,0.0,0.0,0.0,0.0,0.0,0.0,0.0,0.0,0.0,0.0,0.0,0.0,0.0,0.0,0.0,0.0,0.0,0.0,0.0,0.0,0.0,0.0,0.0,0.0,0.0,0.0,0.0,0.0,0.0,0.0,0.0,0.0,0.0,0.0,0.0,1.4647,0.0,0.0,0.0,0.0,0.0,0.0,0.0,0.0,0.0,0.0,0.0,0.0,0.0,0.0,0.0,0.0,0.0,0.0,0.0,0.0,0.0,0.0,0.0,0.0,0.0,0.0,0.0,0.0,0.0,0.0,0.0,0.0,0.0,0.0,0.0,0.0,0.0,0.0,2.2446,2.2374,2.2417,2.2612,2.3703,2.41,2.39,0.0,0.0,0.0,0.0,0.0,0.0,0.0,0.0,0.0,0.0,0.0,0.0,0.0,0.0,0.0,0.0,0.0,0.0,0.0,0.0,0.0,0.0,0.0,0.0,0.0,0.0,0.0,0.0,0.0,0.0,0.0,0.0,0.0,0.0,0.0,0.0,0.0,0.0,0.0,0.0,0.0,0.0,0.0,0.0,0.0,0.0,0.0,0.0,0.0,0.0,0.0,0.0,0.0,0.0,0.0,0.0,0.0,0.0,0.0,0.0,0.0,0.0,0.0,0.0,0.0,0.0,0.0,0.0,0.0,0.0,0.0,1.41,0.0,0.0,0.0,0.0,0.0,0.0,0.0,0.0,0.0,0.0,0.0,0.0,0.0,0.0,0.0,0.0,0.0,0.0,0.0,0.0,0.0,0.0,0.0,2.3682,2.345,2.3319,2.3175,2.3102,0.0,0.0,0.0,0.0,0.0,0.0,2.2377,2.2377,2.238,2.2366,2.2578,2.2899,2.3325,2.4081,2.4481,2.4586,2.4512,0.0,0.0,0.0,0.0,0.0,0.0,0.0,0.0,0.0,0.0,0.0,0.0,0.0,0.0,0.0,0.0,0.0,0.0,0.0,0.0,0.0,0.0,0.0,0.0,0.0,0.0,0.0,0.0,0.0,0.0,0.0,0.0,0.0,0.0,0.0,0.0,0.0,0.0,0.0,0.0,0.0,0.0,0.0,0.0,0.0,0.0,0.0,0.0,0.0,0.0,0.0,0.0,0.0,0.0,0.0,0.0,0.0,0.0,0.0,0.0,0.0,0.0,0.0,1.8269,1.8143,1.8186,1.7743,1.7515,1.73,1.5426,1.4851,1.5204,1.3912,0.0,0.0,0.0,0.0,0.0,0.0,0.0,0.0,0.0,0.0,0.0,0.0,0.0,0.0,0.0,0.0,0.0,0.0,0.0,0.0,0.0,2.4008,2.3795,2.3732,2.3598,2.34,2.3132,0.0,0.0,0.0,0.0,0.0,2.231,2.231,2.2282,2.2228,2.3278,2.4196,2.5008,2.6322,2.6941,2.6854,2.4351,2.3407,2.3645,0.0,0.0,0.0,0.0,0.0,0.0,0.0,0.0,0.0,0.0,0.0,0.0,0.0,0.0,0.0,0.0,0.0,0.0,0.0,0.0,0.0,0.0,0.0,0.0,0.0,0.0,0.0,0.0,0.0,0.0,0.0,0.0,0.0,0.0,0.0,0.0,0.0,0.0,0.0,0.0,0.0,1.9914,1.896,0.0,0.0,0.0,0.0,0.0,0.0,0.0,0.0,0.0,0.0,0.0,0.0,0.0,1.8405,1.8692,1.9465,1.959,1.9104,1.944,1.9275,1.8644,1.914,1.9279,1.9088,1.8939,0.0,1.49,1.5126,0.0,0.0,0.0,0.0,0.0,0.0,0.0,0.0,0.0,0.0,0.0,0.0,0.0,0.0,0.0,0.0,0.0,0.0,0.0,0.0,0.0,2.4478,2.4569,2.4436,2.5022,2.4928,2.3842,2.4043,0.0,0.0,0.0,2.2419,2.2366,2.2282,2.2773,2.3893,2.5403,2.6441,2.6992,2.7583,2.779,2.7618,2.6221,2.4952,2.384,2.3299,0.0,0.0,0.0,0.0,0.0,0.0,0.0,0.0,0.0,0.0,0.0,0.0,0.0,0.0,0.0,0.0,0.0,0.0,0.0,0.0,0.0,0.0,0.0,0.0,0.0,0.0,0.0,0.0,0.0,0.0,0.0,0.0,0.0,0.0,0.0,0.0,0.0,0.0,0.0,2.0397,2.0302,1.8371,1.9319,1.9764,0.0,0.0,0.0,0.0,0.0,0.0,0.0,0.0,0.0,1.8506,1.9123,1.9505,1.9528,2.0339,2.0732,2.0722,2.074,2.0846,2.0995,2.0523,2.0546,2.0951,2.0678,1.9393,1.7455,1.6257,1.4916,1.3607,0.0,0.0,0.0,0.0,1.5789,1.6348,0.0,0.0,0.0,0.0,0.0,0.0,0.0,0.0,0.0,0.0,0.0,0.0,2.4827,2.5452,2.586,2.584,2.6514,2.6273,2.4707,2.4655,2.4066,2.2657,2.2542,2.2474,2.2391,2.2825,2.3954,2.5831,2.766,2.8765,2.917,2.936,2.9339,2.9182,2.8757,2.7206,2.4888,2.4411,2.2929,2.0914,0.0,0.0,0.0,0.0,0.0,0.0,0.0,0.0,0.0,0.0,0.0,0.0,0.0,0.0,0.0,0.0,0.0,0.0,0.0,0.0,0.0,0.0,0.0,0.0,0.0,0.0,0.0,0.0,0.0,0.0,0.0,0.0,0.0,0.0,0.0,0.0,0.0,2.032,2.05,1.7746,1.9433,2.0208,0.0,0.0,0.0,0.0,0.0,0.0,1.9438,1.992,2.0125,2.0102,2.0563,2.0761,2.0742,2.1356,2.1843,2.2133,2.1902,2.2076,2.2652,2.1727,2.1674,2.2313,2.1786,2.0943,1.9822,1.7735,1.6196,1.5136,1.4525,1.4694,1.5238,1.5523,1.6036,1.6736,0.0,0.0,0.0,0.0,0.0,0.0,0.0,0.0,0.0,0.0,0.0,2.4912,2.65,2.7264,2.7869,2.8378,2.7729,2.6747,2.5517,2.3929,2.2886,2.2605,2.2542,2.2474,2.2391,2.4328,2.6068,2.7582,2.9588,3.0887,3.1565,3.237,3.2756,3.2708,3.1677,2.9805,2.7295,2.5529,2.4243,2.3272,2.1508,0.0,0.0,0.0,0.0,0.0,0.0,0.0,0.0,0.0,0.0,0.0,0.0,0.0,0.0,0.0,0.0,0.0,0.0,0.0,0.0,0.0,0.0,0.0,0.0,0.0,0.0,0.0,0.0,0.0,0.0,0.0,0.0,0.0,0.0,0.0,0.0,0.0,0.0,1.7038,1.945,0.0,0.0,0.0,0.0,2.0292,2.0303,2.0345,2.041,2.0883,2.1331,2.177,2.2158,2.2578,2.2925,2.2974,2.2926,2.2736,2.2755,2.2599,2.2441,2.2599,2.2731,2.2746,2.2537,2.1848,2.0755,1.9889,1.7981,1.5721,1.6296,1.6004,1.5381,1.6969,1.7636,1.7863,0.0,0.0,0.0,0.0,0.0,0.0,0.0,0.0,2.4539,2.4503,2.4918,2.5801,2.7407,2.8746,2.9729,3.0237,3.0328,2.9471,2.7256,2.5869,2.4622,2.343,2.2809,2.2861,2.3682,2.6353,2.8374,2.9644,3.1287,3.2296,3.265,3.2441,3.225,3.2029,3.2084,3.1364,2.9998,2.8049,2.5809,2.3478,2.2799,2.16,0.0,0.0,0.0,0.0,0.0,0.0,0.0,0.0,0.0,0.0,0.0,0.0,0.0,0.0,0.0,0.0,0.0,0.0,0.0,0.0,0.0,0.0,0.0,0.0,0.0,0.0,0.0,0.0,0.0,0.0,0.0,0.0,0.0,0.0,0.0,0.0,0.0,2.0273,2.1841,0.0,2.1183,2.1214,2.1373,2.1545,2.1929,2.2301,2.2664,2.322,2.3596,2.3782,2.3895,2.3953,2.3955,2.3691,2.351,2.3421,2.2688,2.2476,2.2618,2.2246,2.2334,2.2775,2.2447,2.202,2.152,2.0896,1.9197,1.7002,1.7116,1.7052,1.7031,1.765,1.8283,1.8891,0.0,0.0,0.0,0.0,0.0,0.0,0.0,0.0,2.4539,2.4503,2.5428,2.6813,2.8672,3.0294,3.1458,3.1963,3.1731,3.0406,2.7699,2.6265,2.4892,2.3491,2.3545,2.4088,2.5139,2.8415,3.0566,3.1529,3.3001,3.3665,3.3537,3.3091,3.2719,3.2475,3.2795,3.2811,3.2392,3.0896,2.8286,2.5116,2.4624,2.3629,2.2268,0.0,0.0,0.0,0.0,0.0,0.0,0.0,0.0,0.0,0.0,0.0,0.0,0.0,0.0,0.0,0.0,0.0,0.0,0.0,0.0,0.0,0.0,0.0,0.0,0.0,0.0,0.0,0.0,0.0,0.0,0.0,0.0,0.0,0.0,2.2754,2.3482,2.2495,2.4012,2.4625,2.3308,2.3463,2.367,2.369,2.4184,2.4635,2.4895,2.5207,2.5378,2.5378,2.5053,2.4881,2.4778,2.4118,2.3789,2.3779,2.2888,2.2599,2.2882,2.2422,2.2422,2.2862,2.249,2.2191,2.1969,2.1497,2.0231,1.8597,1.8422,1.8565,1.8881,1.9014,1.9496,2.0047,0.0,0.0,0.0,0.0,0.0,0.0,0.0,2.4631,2.4572,2.4503,2.5912,2.7873,3.0326,3.1874,3.2981,3.3538,3.1711,2.9404,2.6803,2.4858,2.3509,2.2823,2.478,2.6178,2.6843,3.0499,3.2688,3.3266,3.465,3.4947,3.4243,3.4481,3.4506,3.4292,3.4058,3.4182,3.4505,3.3905,3.1704,2.8461,2.6929,2.6406,2.6158,0.0,0.0,0.0,0.0,0.0,0.0,0.0,0.0,0.0,0.0,0.0,0.0,0.0,0.0,0.0,0.0,0.0,0.0,0.0,0.0,0.0,0.0,0.0,0.0,0.0,0.0,0.0,0.0,0.0,0.0,0.0,0.0,0.0,2.2379,2.479,2.5701,2.3395,2.5839,2.6909,2.4861,2.6268,2.7164,2.6718,2.7102,2.7218,2.6989,2.6671,2.6516,2.6516,2.5646,2.5277,2.5513,2.4421,2.3854,2.3834,2.335,2.3091,2.3091,2.3101,2.3091,2.3071,2.2695,2.2401,2.2226,2.1729,2.1123,2.0518,2.0349,2.0495,2.0818,2.1018,2.1229,2.1307,0.0,0.0,0.0,0.0,0.0,0.0,2.4749,2.4634,2.4569,2.4507,2.6414,2.8486,3.0381,3.2516,3.3688,3.3472,3.1878,2.9829,2.7417,2.5167,2.424,2.4919,2.6533,2.8201,2.9922,3.3068,3.4744,3.4869,3.5586,3.5661,3.5074,3.4888,3.4633,3.4337,3.53,3.5497,3.5233,3.6307,3.5248,3.2617,3.019,2.8396,2.692,0.0,0.0,0.0,0.0,0.0,0.0,0.0,0.0,0.0,0.0,0.0,0.0,0.0,0.0,0.0,0.0,0.0,0.0,0.0,0.0,0.0,0.0,0.0,0.0,0.0,0.0,0.0,0.0,0.0,0.0,0.0,2.6105,2.6906,2.5828,2.5867,2.6433,2.7473,2.8055,2.8232,2.8007,2.8142,2.8193,2.8059,2.8015,2.7988,2.8146,2.7582,2.7311,2.7311,2.6739,2.6259,2.5926,2.5177,2.4646,2.4282,2.3833,2.344,2.3101,2.3319,2.3406,2.3387,2.2962,2.3116,2.3546,2.2301,2.2358,2.2995,2.084,2.0281,2.0684,2.0828,2.1379,2.201,0.0,0.0,0.0,0.0,0.0,0.0,2.4779,2.47,2.465,2.4525,2.6591,2.8616,2.9954,3.16,3.2484,3.2117,3.0443,2.8505,2.6388,2.5091,2.4818,2.5763,2.8134,3.0274,3.2087,3.4421,3.5723,3.5969,3.5907,3.5721,3.5341,3.5344,3.5209,3.5101,3.6025,3.6269,3.6029,3.725,3.6846,3.5213,3.3758,3.2018,3.0116,2.8281,2.7947,2.8189,2.6336,2.6332,2.6931,2.5277,0.0,0.0,0.0,0.0,0.0,0.0,0.0,0.0,0.0,0.0,0.0,0.0,0.0,0.0,0.0,0.0,0.0,0.0,0.0,0.0,0.0,0.0,0.0,0.0,2.8599,3.0007,3.0079,2.9482,2.9361,3.0237,3.0536,3.0626,3.0461,3.0479,3.0506,3.0506,3.0056,2.9835,2.9883,2.8831,2.8223,2.8211,2.7434,2.6987,2.6882,2.593,2.5378,2.5171,2.465,2.4122,2.3691,2.395,2.409,2.4198,2.378,2.4064,2.48,2.3584,2.3634,0.0,0.0,0.0,0.0,0.0,2.2086,2.2594,0.0,0.0,0.0,0.0,0.0,0.0,2.4847,2.4811,2.4742,2.4534,2.6516,2.8263,2.9025,2.982,3.0208,2.9998,2.8161,2.6236,2.4461,2.4753,2.5365,2.6156,2.9601,3.2165,3.3491,3.5042,3.6095,3.6616,3.5952,3.5564,3.5465,3.5894,3.6147,3.6265,3.6747,3.6986,3.7017,3.7592,3.7388,3.6706,3.7048,3.6103,3.422,3.1139,3.1035,3.2123,2.9101,2.8323,2.8533,2.7183,0.0,0.0,0.0,0.0,0.0,0.0,0.0,0.0,0.0,0.0,0.0,0.0,0.0,0.0,0.0,0.0,0.0,0.0,0.0,0.0,0.0,0.0,0.0,0.0,3.0728,3.2426,3.4491,3.4308,3.3433,3.2108,3.2895,3.3174,3.2183,3.2745,3.3201,3.3201,3.2561,3.2056,3.1775,3.0225,0.0,0.0,0.0,2.7675,2.8017,2.683,2.6218,2.6227,2.5668,2.5179,2.4744,2.4914,2.5179,2.5379,2.4918,2.5245,2.5984,2.5153,2.4833,2.4719,2.3452,2.3133,2.3323,2.3096,2.3049,2.3032,0.0,0.0,0.0,0.0,0.0,0.0,2.4929,2.4881,2.4782,2.4524,2.6042,2.7204,2.7371,2.8707,2.9203,2.8219,2.6666,2.5089,2.3543,2.4378,2.6007,2.8442,3.0942,3.2904,3.4252,3.6383,3.7246,3.6749,3.6614,3.6483,3.636,3.7041,3.7319,3.7303,3.9034,3.9373,3.8704,3.956,3.9047,3.773,3.805,3.6882,3.4818,3.3861,3.3095,3.2333,3.1096,3.1053,3.1248,2.9434,2.9294,2.9613,2.7994,2.6663,0.0,0.0,0.0,0.0,0.0,0.0,0.0,0.0,0.0,0.0,0.0,0.0,0.0,0.0,0.0,0.0,0.0,0.0,0.0,3.1362,3.3389,3.5285,3.7044,3.6807,3.5758,3.3799,3.3384,3.311,3.2587,3.2938,3.3201,3.3201,3.3051,3.2738,3.2291,3.1567,3.0972,3.05,2.9919,2.9364,2.8772,2.8355,2.7728,2.6918,0.0,0.0,2.611,2.6318,2.6442,2.6483,2.6382,2.6827,2.7535,2.6027,2.5331,2.511,2.4309,2.3643,2.3128,2.3623,2.3509,2.3095,0.0,0.0,0.0,0.0,0.0,0.0,2.509,2.4987,2.4867,2.4634,2.5584,2.6293,2.6293,2.7046,2.7127,2.6147,2.4814,2.3888,2.3468,2.5301,2.75,2.9937,3.217,3.41,3.5661,3.6474,3.6841,3.6795,3.64,3.6377,3.6719,3.7205,3.7869,3.8639,3.9767,4.0179,4.0092,4.084,4.0124,3.8528,3.8872,3.7684,3.5737,3.558,3.4876,3.3902,3.3199,3.2884,3.254,3.0905,3.0435,3.035,2.9119,2.808,2.7092,0.0,0.0,0.0,0.0,0.0,0.0,0.0,0.0,0.0,0.0,0.0,0.0,0.0,0.0,2.6047,2.7345,0.0,3.1145,3.3557,3.5097,3.6433,3.7814,3.7525,3.6628,3.5161,3.4861,3.4579,3.3985,3.4479,3.4775,3.4775,3.4434,3.3992,3.3551,3.2653,3.1914,3.1437,3.0594,2.9995,2.9647,2.8953,2.8367,2.7931,2.7862,2.7568,2.7139,2.7354,2.7516,2.7661,2.7637,2.8091,2.8655,2.7384,2.6481,2.5871,2.5521,2.493,2.4287,2.4148,2.3896,2.3606,0.0,0.0,0.0,0.0,0.0,0.0,0.0,2.5113,2.4962,2.4763,2.5198,2.5501,2.5483,2.5475,2.5067,2.4101,2.3364,2.3232,2.3909,2.6595,2.9014,3.0886,3.3219,3.5039,3.627,3.597,3.6124,3.6795,3.6146,3.6248,3.7009,3.7382,3.8338,3.9789,4.016,4.0703,4.1313,4.171,4.101,3.9582,3.9593,3.856,3.697,3.6622,3.6009,3.522,3.4532,3.3737,3.2794,3.1708,3.0907,3.0259,2.977,2.9203,2.8456,2.7,2.6537,0.0,0.0,0.0,0.0,0.0,0.0,0.0,0.0,2.391,2.4507,2.5664,2.6845,2.8221,3.0163,3.1402,3.2912,3.5336,3.6251,3.7016,3.7864,3.7586,3.7028,3.6321,3.6337,3.6098,3.5417,3.6028,3.6452,3.6405,3.5858,3.5246,3.4731,3.3606,3.2743,3.2245,3.1151,3.0567,3.0526,2.9467,2.8991,2.9,2.8855,2.8605,2.8171,2.8343,2.8566,2.8749,2.8803,2.9005,2.9311,2.8661,2.7727,2.6732,2.6766,2.6434,2.5815,2.4817,2.4355,2.4133,0.0,0.0,0.0,0.0,0.0,0.0,0.0,0.0,2.5118,2.4896,2.4843,2.4793,2.4722,2.4679,2.3999,2.2425,2.3254,2.4145,2.4798,2.7556,2.9772,3.1186,3.3948,3.504,3.4179,3.5219,3.6124,3.6795,3.6711,3.7043,3.7787,3.8483,3.926,4.0113,4.1321,4.2016,4.2344,4.2265,4.2053,4.1645,4.0368,3.9392,3.8542,3.7016,3.5639,3.4533,3.3844,3.2781,3.1676,3.1526,3.135,3.1145,3.1099,3.0524,2.9564,2.7806,2.6172,2.4708,2.3568,2.3121,2.3267,2.4463,2.4474,2.4812,0.0,2.7518,2.7522,2.8332,2.9403,3.0639,3.2066,3.3221,3.4565,3.6295,3.7197,3.7782,3.7964,3.7733,3.7427,3.7077,3.6697,3.626,3.5843,3.6335,3.6581,3.6405,3.6487,3.6008,3.4776,3.4771,3.4268,3.302,3.2558,3.1993,3.1263,3.0846,3.0306,2.9675,2.9856,2.9805,2.9585,2.9585,2.9636,2.9663,2.9844,2.9669,2.9214,2.9299,2.8598,2.7487,2.765,2.7477,2.6953,2.5848,2.4904,2.4196,0.0,0.0,0.0,0.0,0.0,0.0,0.0,0.0,0.0,2.5096,2.491,2.4818,2.479,2.4226,2.3395,2.2223,2.2953,2.3795,2.4543,2.7368,2.9809,3.1637,3.4072,3.5199,3.4805,3.5628,3.6334,3.687,3.6818,3.7405,3.8548,3.8853,3.9851,4.1407,4.1873,4.2635,4.3526,4.3311,4.2845,4.212,4.0989,3.9786,3.8496,3.651,3.4454,3.256,3.197,3.0926,0.0,2.9355,2.9182,2.9229,2.9617,2.9488,2.8925,2.7384,2.6474,2.5705,2.4535,2.4731,2.5172,2.4928,2.5894,2.7167,2.8039,2.8523,2.9167,3.0496,3.1652,3.2784,3.3989,3.4913,3.5883,3.7189,3.7424,3.7565,3.7886,3.7308,3.6667,3.621,3.5651,3.5595,3.632,3.6565,3.6582,3.637,3.6265,3.5679,3.4464,3.4635,3.4323,3.3308,3.2644,3.2153,3.183,3.1019,3.0445,3.0152,3.0228,3.0228,3.0152,3.0152,3.0152,3.0152,3.0228,2.9935,2.9411,2.9597,2.8978,2.7927,2.8122,2.7863,2.7291,2.6391,2.5672,2.5078,0.0,0.0,0.0,0.0,0.0,0.0,0.0,0.0,0.0,0.0,2.5101,2.4955,2.4908,2.4225,2.342,2.2606,2.2903,2.3564,2.4589,2.7105,2.9527,3.1719,3.4072,3.5403,3.5514,3.6076,3.6741,3.7488,3.7225,3.7879,3.9292,3.9292,4.0257,4.1946,4.2085,4.2823,4.3922,4.3956,4.3361,4.2365,4.1465,3.9962,3.8038,3.5749,3.3139,3.0613,3.0023,2.8741,2.723,2.6671,2.6626,2.6871,2.756,2.7904,2.7814,2.6662,2.6125,2.5742,2.497,2.5717,2.6589,2.6096,2.7833,2.9574,2.9352,3.0068,3.1074,3.2087,3.2918,3.3802,3.4833,3.539,3.6032,3.7129,3.7183,3.7209,3.7634,3.6796,3.5981,3.5449,3.4789,3.4827,3.5876,3.6131,3.6164,3.6058,3.5922,3.5411,3.4374,3.4553,3.4264,3.328,3.2544,3.2089,3.1842,3.0945,3.0444,3.0406,3.0444,3.0482,3.0482,3.052,3.0558,3.0545,3.0391,3.0081,2.9768,2.9892,2.9345,2.8476,2.8681,2.8385,2.7765,2.7044,2.6622,2.6255,0.0,0.0,0.0,0.0,0.0,0.0,0.0,0.0,0.0,0.0,0.0,0.0,0.0,2.4759,2.4317,2.3442,2.327,2.3857,2.5458,2.705,2.8936,3.1227,3.4119,3.5644,3.5609,3.624,3.737,3.8945,3.8227,3.8616,4.0079,4.0079,4.0408,4.1071,4.1912,4.2564,4.3087,4.3796,4.3592,4.2687,4.1752,3.9924,3.742,3.483,3.19,2.9069,2.8351,2.6349,2.4012,2.3794,2.4141,2.4814,2.5472,2.6138,2.6512,2.5839,2.4587,2.3556,2.4243,2.5159,2.6455,2.861,3.0366,3.1643,3.2134,3.3131,3.3762,3.3039,3.2905,3.3165,3.3982,3.414,3.4542,3.5662,3.6506,3.704,3.7103,3.6367,3.569,3.5442,3.4654,3.4124,3.4176,3.4654,3.5097,3.5372,3.5659,3.5445,3.4635,3.4757,3.4298,3.2941,3.257,3.2042,3.1227,3.0868,3.0571,3.0406,3.0609,3.0698,3.0698,3.0874,3.0986,3.0947,3.0372,3.022,3.0362,3.0323,2.9909,2.9361,2.9588,2.9287,2.8679,2.8023,2.7779,2.7656,0.0,0.0,0.0,0.0,0.0,0.0,0.0,0.0,0.0,0.0,0.0,0.0,0.0,0.0,0.0,0.0,2.3941,2.4342,2.4844,2.6279,2.7676,2.8991,3.1909,3.3361,3.3093,3.5006,3.6394,3.7153,3.7148,3.7905,3.9385,3.9385,3.9995,4.1143,4.1247,4.1715,4.2377,4.1905,4.1572,4.1194,3.9415,3.7992,3.6568,3.2825,3.0085,2.7923,0.0,2.3768,2.2526,2.1889,2.1824,2.2123,2.2802,2.346,2.4051,2.4223,2.4598,2.5114,2.5781,2.7663,2.972,3.0923,3.2528,3.3781,3.3751,3.4215,3.4373,3.3565,3.2461,3.1721,3.198,3.202,3.2437,3.3556,3.5256,3.6575,3.6981,3.6779,3.6116,3.486,3.4165,3.3452,3.2644,3.3651,3.4464,3.4717,3.4684,3.4551,3.4301,3.4445,3.4137,3.3137,3.2919,3.2489,3.1784,3.1337,3.1136,3.1211,3.1629,3.1643,3.1299,3.174,3.1694,3.1254,3.1052,3.0975,3.0986,3.1084,3.0569,2.9817,3.0461,3.0119,2.9245,2.8994,2.923,2.9334,0.0,0.0,0.0,0.0,0.0,0.0,0.0,0.0,0.0,0.0,0.0,0.0,0.0,0.0,0.0,0.0,0.0,2.4347,2.4559,2.5412,2.639,2.7466,2.9892,3.127,3.1371,3.2959,3.4049,3.4665,3.478,3.5604,3.7062,3.7286,3.8152,3.9514,3.9699,4.0186,4.0867,4.0127,3.9397,3.858,3.6762,3.5107,3.336,3.0231,2.7954,0.0,2.3535,2.2182,2.1486,2.0706,2.0606,2.0922,2.1505,2.2293,2.3155,2.3837,2.4946,2.6332,2.7933,3.0009,3.1961,3.3119,3.4457,3.5387,3.4913,3.4842,3.4562,3.3509,3.1859,3.0603,3.0556,3.0273,3.0444,3.1739,3.3262,3.4776,3.6188,3.6044,3.5587,3.5064,3.4332,3.3587,3.2789,3.3519,3.4053,3.411,3.4194,3.4269,3.434,3.4186,3.394,3.3574,3.3397,3.3085,3.2548,3.2198,3.1991,3.1877,3.2511,3.2618,3.2286,3.2797,3.2612,3.1964,3.1776,3.1545,3.1314,3.1082,3.074,3.0374,3.0451,3.0134,2.9644,2.9198,2.9284,2.937,0.0,0.0,0.0,0.0,0.0,0.0,0.0,0.0,0.0,0.0,0.0,0.0,0.0,0.0,0.0,0.0,0.0,0.0,2.4667,2.4578,2.516,2.6606,2.8149,2.943,3.0366,3.03,3.0746,3.1739,3.1367,3.1958,3.3444,3.4033,3.498,3.6276,3.7158,3.786,3.8395,3.8221,3.6987,3.5003,3.3916,3.1473,2.8339,2.7259,2.5627,2.377,2.2521,2.1598,2.0892,2.0281,2.0567,2.1269,2.1784,2.2832,2.403,2.4834,2.5805,2.7329,3.05,3.2085,3.3298,3.5237,3.6145,3.6366,3.5762,3.5167,3.4306,3.2856,3.1103,2.9743,2.9449,2.8739,2.8718,3.0241,3.0856,3.2136,3.4946,3.445,3.4384,3.5926,3.5142,3.445,3.4358,3.4119,3.3857,3.3668,3.4112,3.4496,3.4797,3.4092,3.3804,3.4206,3.4034,3.3714,3.334,3.3399,3.3124,3.2475,3.3206,3.3526,3.3484,3.391,3.3672,3.2914,3.2421,3.1896,3.1353,3.0484,3.0524,3.1084,2.9779,2.9604,2.9891,2.8692,2.8184,2.8041,0.0,0.0,0.0,0.0,0.0,0.0,0.0,0.0,0.0,0.0,0.0,0.0,0.0,0.0,0.0,0.0,0.0,0.0,2.4776,2.4655,2.471,2.5005,2.649,2.7346,2.747,2.8878,2.9651,2.9658,2.9868,3.0341,3.1072,3.1278,3.1794,3.2549,3.2706,3.2845,3.2959,3.2383,3.1733,3.1056,2.9769,2.8659,2.7548,2.5576,2.4564,2.3994,2.2371,2.1954,2.2037,2.1175,2.2126,2.3878,2.5009,2.6258,2.7549,2.8717,2.9958,3.1367,3.3157,3.4821,3.6272,3.722,3.7302,3.6924,3.6008,3.4905,3.3384,3.1086,2.9013,2.7178,2.5719,2.6311,2.735,2.8439,3.1371,3.4084,3.5678,3.6423,3.6632,3.6162,3.5848,3.5182,3.3927,3.4263,3.4551,3.4485,3.4206,3.4335,3.4977,3.462,3.4336,3.4177,3.4265,3.4062,3.3691,3.3831,3.3746,3.3451,3.4056,3.3946,3.3231,3.3729,3.3375,3.2322,3.216,3.202,3.1821,3.159,3.1371,3.1177,3.0828,3.0525,3.0206,2.9501,2.9148,2.898,0.0,0.0,0.0,0.0,0.0,0.0,0.0,0.0,0.0,0.0,0.0,0.0,0.0,0.0,0.0,0.0,0.0,0.0,0.0,2.4684,2.4549,2.4447,2.5236,2.5621,2.5483,2.6462,2.6869,2.661,2.6985,2.7434,2.7929,2.8203,2.8813,2.9683,2.9625,2.9789,3.0078,2.9282,2.8538,0.0,0.0,2.5782,2.5029,2.3677,2.3271,2.3246,2.2199,2.2589,2.3553,2.3472,2.4544,2.6153,2.7485,2.8816,3.0197,3.1827,3.3036,3.4278,3.6054,3.7496,3.864,3.9233,3.8523,3.7342,3.5912,3.4159,3.2024,2.9306,2.7418,2.5841,2.4586,2.5134,2.6136,2.7211,2.986,3.2555,3.484,3.5956,3.6678,3.7153,3.7475,3.7264,3.6331,3.6509,3.6688,3.6692,3.5519,3.5183,3.5976,3.5349,3.5069,3.5316,3.5125,3.4972,3.4801,3.4875,3.4758,3.4409,3.4942,3.4961,3.446,3.4467,3.3997,3.3155,3.2809,3.2472,3.2148,3.1857,3.1729,3.1643,3.0742,3.0437,3.0366,2.9494,2.9162,2.9115,0.0,0.0,0.0,0.0,0.0,0.0,0.0,0.0,0.0,0.0,0.0,0.0,0.0,0.0,0.0,0.0,0.0,0.0,0.0,0.0,2.4574,2.45,2.4438,2.4376,2.4294,2.4047,2.3827,2.3649,2.3969,2.4304,2.4663,2.517,2.6007,2.708,2.708,2.7469,2.8062,2.7298,2.6269,2.5102,2.4287,2.3249,2.2197,0.0,2.2089,2.22,2.2147,2.3258,2.4953,2.6273,2.7415,2.8468,2.9726,3.112,3.2646,3.4548,3.5551,3.6547,3.8846,3.9861,4.0404,4.0901,3.957,3.7579,3.5605,3.3212,3.0576,2.7684,2.6223,2.5285,2.4716,2.4729,2.5272,2.665,2.794,3.0,3.3529,3.4599,3.5899,3.8198,3.9179,3.9607,3.9481,3.9271,3.914,3.9136,3.734,3.6509,3.7115,3.5975,3.5739,3.6671,3.6158,3.5941,3.6089,3.6071,3.5799,3.5332,3.5767,3.6008,3.6043,3.537,3.4833,3.4349,3.3611,3.2964,3.2379,3.1821,3.1929,3.224,3.0433,3.018,3.0674,2.9354,2.8951,2.9116,0.0,0.0,0.0,0.0,0.0,0.0,0.0,0.0,0.0,0.0,2.5468,2.5476,0.0,0.0,0.0,0.0,0.0,0.0,0.0,0.0,0.0,2.4508,2.4438,2.4376,2.4294,2.4152,2.3827,2.3369,2.3599,2.3397,2.2866,2.3161,2.3299,2.3243,2.3243,2.3327,2.3446,2.3296,2.3093,2.2854,2.269,2.2487,2.2268,2.2197,0.0,0.0,2.2627,2.349,2.4935,2.7944,3.0144,3.1794,3.2572,3.4457,3.6548,3.7466,3.822,3.9069,4.061,4.1038,4.1125,4.1225,3.9678,3.7544,3.5367,3.2786,2.9924,2.6718,2.5625,2.4925,2.3785,2.4602,2.5952,2.7531,2.9442,3.1619,3.4257,3.5677,3.6814,3.7732,3.904,3.9589,3.8922,3.9156,3.9366,3.9353,3.8198,3.7301,3.6902,3.5978,3.5663,3.6117,3.6135,3.6142,3.6174,3.6162,3.6101,3.6038,3.6005,3.5764,3.5355,3.4682,3.4186,3.381,3.3058,0.0,3.2578,3.2621,3.261,3.2501,3.1705,3.1679,3.1931,3.0633,3.0334,3.0474,0.0,0.0,0.0,0.0,0.0,0.0,0.0,2.5423,2.5509,2.5836,2.5931,2.5803,2.5384,2.5293,0.0,0.0,0.0,0.0,0.0,0.0,0.0,2.4456,2.4348,2.4257,2.42,2.4066,2.3803,2.3393,0.0,2.3235,2.2659,2.2725,2.2619,2.2391,2.2338,2.2296,2.2296,2.2296,2.2296,2.2296,2.2296,2.2533,2.2868,2.2842,0.0,0.0,2.3154,2.3935,2.5357,2.7173,2.9357,3.1734,3.4281,3.6133,3.7674,3.9035,3.9668,4.0364,4.2347,4.2883,4.2857,4.2857,4.1065,3.8389,3.5003,3.2125,2.9167,2.5592,2.4723,2.435,2.3599,2.4464,2.5712,2.699,2.8383,3.041,3.3663,3.4908,3.6248,3.8338,3.9927,4.0667,4.023,4.0236,4.0068,3.9697,3.8232,3.7535,3.7908,3.695,3.6333,3.6257,3.632,3.6352,3.6352,3.6352,3.6352,3.6352,3.6352,3.6183,3.5861,3.4966,3.4534,3.4488,3.345,3.314,3.3335,3.3429,3.3429,3.3297,3.2736,3.2689,3.2757,3.1433,3.1077,3.1199,0.0,0.0,0.0,0.0,0.0,0.0,0.0,2.536,2.5503,2.5984,2.6041,2.5793,2.5248,2.5266,2.5257,0.0,0.0,0.0,0.0,0.0,0.0,0.0,0.0,0.0,2.4133,0.0,0.0,2.3463,2.351,0.0,0.0,0.0,0.0,0.0,2.2366,2.2296,2.2296,2.2296,2.2296,0.0,0.0,2.2885,2.341,0.0,0.0,0.0,0.0,2.4398,2.5699,2.6156,2.7784,3.0258,3.3758,3.5847,3.7285,3.8756,3.9775,4.0905,4.3254,4.4003,4.4062,4.3968,4.1961,3.8867,3.4572,3.1496,2.853,2.483,2.4067,2.3988,2.3782,2.4454,2.5384,2.6448,2.7184,2.8985,3.2837,3.3974,3.5569,3.871,4.0602,4.1484,4.1258,4.0995,4.0532,3.9833,3.812,3.7499,3.8412,3.7587,3.6968,3.6723,3.6631,3.6708,3.6876,3.68,3.6739,3.6739,3.6937,3.6828,3.646,3.5484,3.5168,3.5247,3.4006,3.3697,3.4086,3.4086,3.4102,3.4037,3.364,3.362,3.3627,3.2271,3.1898,3.1951,0.0,0.0,0.0,0.0,0.0,0.0,0.0,2.5247,2.515,2.5202,2.4946,2.4783,2.484,2.5551,2.5765,0.0,0.0,0.0,0.0,0.0,0.0,0.0,0.0,0.0,0.0,0.0,0.0,2.3323,2.3508,0.0,0.0,0.0,0.0,0.0,0.0,2.2296,2.2296,2.2296,0.0,0.0,0.0,0.0,0.0,0.0,0.0,0.0,0.0,2.4789,2.5463,2.6349,2.7143,2.7961,2.9218,3.2374,3.5627,3.5399,3.7721,4.0711,4.2186,4.297,4.3284,4.2866,4.0753,3.7779,3.4015,3.1089,2.8219,2.4961,2.4261,2.4261,2.424,2.4747,2.5568,2.6743,2.7565,2.9172,3.2499,3.414,3.5805,3.7898,3.9953,4.0941,4.0135,4.0251,4.0043,3.9337,3.8144,3.726,3.6768,3.6724,3.6969,3.7488,3.7134,3.7344,3.8124,3.7706,3.7517,3.7501,3.7937,3.7559,3.6479,3.5848,3.5498,3.5335,3.4163,3.3942,0.0,3.4431,3.4382,3.4284,3.4414,3.471,3.4871,3.3527,3.3229,3.3315,0.0,0.0,0.0,0.0,0.0,0.0,2.5225,2.5151,2.5215,2.5548,2.5466,2.541,2.5466,2.5689,2.5563,0.0,0.0,0.0,0.0,0.0,0.0,0.0,0.0,0.0,0.0,0.0,2.3824,2.4029,2.4094,0.0,0.0,0.0,0.0,0.0,0.0,2.2296,2.2296,2.2296,0.0,0.0,0.0,0.0,0.0,0.0,0.0,0.0,0.0,0.0,2.5513,2.5777,2.5839,2.5905,2.6409,2.86,3.147,3.3871,3.6498,3.923,4.1949,4.3512,4.4176,4.3559,4.074,3.7316,3.407,3.0521,2.7238,2.4952,2.4385,2.4302,2.4302,2.4829,2.5564,2.6492,2.6805,2.7976,3.086,3.1693,3.3342,3.6896,3.8552,3.9718,4.0598,4.0156,3.9207,3.7686,3.7231,3.6956,3.6801,3.6998,3.7282,3.7589,3.7709,3.794,3.8294,3.8108,3.8023,3.8023,3.8278,3.795,3.7033,3.654,3.6158,3.5851,3.5075,3.4975,0.0,3.5385,3.5379,3.5339,3.5498,3.5672,3.5686,3.4738,3.4196,3.3854,0.0,0.0,0.0,0.0,0.0,2.516,2.5107,2.5013,2.5081,2.5474,2.551,2.5485,2.5485,2.5408,2.5148,2.4617,0.0,0.0,0.0,0.0,0.0,0.0,0.0,0.0,0.0,0.0,2.397,2.4563,2.4743,2.4715,0.0,0.0,2.3808,2.3026,0.0,0.0,0.0,0.0,0.0,0.0,0.0,0.0,0.0,0.0,0.0,0.0,0.0,0.0,0.0,0.0,0.0,2.4943,2.4879,2.5963,2.7998,3.1581,3.4707,3.7588,4.0272,4.2399,4.3655,4.2795,3.9912,3.6549,3.3767,3.008,2.6794,2.5192,2.4739,2.4639,2.4639,2.541,2.6113,2.6373,2.6891,2.8,3.0049,3.0634,3.2168,3.5768,3.6908,3.7989,3.9554,3.923,3.8353,3.6924,3.7042,3.7268,3.7433,3.7754,3.794,3.7953,3.8322,3.8629,3.8903,3.875,3.8695,3.875,3.8716,3.8266,3.7436,3.6943,3.6536,3.6177,3.5626,3.565,0.0,3.6019,3.5997,3.6019,3.6144,3.6204,3.6122,3.5452,3.4869,3.4372,0.0,0.0,0.0,0.0,0.0,0.0,2.5075,2.4811,2.4607,2.4607,2.4557,2.45,2.45,2.4518,2.4518,2.45,0.0,0.0,0.0,0.0,0.0,0.0,0.0,0.0,0.0,0.0,2.4033,2.4694,2.5301,2.5495,2.5275,2.5083,2.46,2.3843,0.0,0.0,0.0,0.0,0.0,0.0,0.0,0.0,0.0,0.0,0.0,0.0,0.0,0.0,0.0,0.0,0.0,0.0,0.0,2.5033,2.6,2.789,3.1937,3.593,3.643,3.8836,4.098,3.984,3.7667,3.5221,3.2856,2.9856,2.7187,2.5791,2.5484,2.5484,2.5484,2.6681,2.7425,2.6642,2.8343,2.9976,3.0612,3.1894,3.3219,3.4404,3.5129,3.5675,3.6115,3.7038,3.7621,3.7589,3.8023,3.8334,3.849,3.8947,3.9044,3.8805,3.8909,3.9418,4.0263,3.9808,3.9662,3.9791,3.9393,3.8623,3.7588,3.6831,3.6384,3.6161,3.5627,3.5694,0.0,3.6041,3.5997,3.6019,3.6144,3.6204,3.6122,3.5452,3.5197,3.4993,0.0,0.0,0.0,0.0,0.0,0.0,0.0,2.4708,2.4575,2.453,2.4507,2.45,2.45,2.45,2.45,2.45,0.0,0.0,0.0,0.0,0.0,0.0,0.0,0.0,0.0,0.0,2.4622,2.6346,2.5974,2.6242,2.7053,2.632,2.5209,2.3877,2.3315,2.281,0.0,0.0,0.0,0.0,0.0,0.0,2.6909,0.0,0.0,0.0,0.0,0.0,0.0,0.0,0.0,0.0,0.0,0.0,0.0,2.6914,2.9814,3.2946,3.4175,3.5956,3.7237,3.6366,3.4184,3.1953,3.0914,2.8333,2.6088,2.5784,2.5596,2.5503,2.5503,2.626,2.6989,2.7331,2.8329,2.9308,3.0054,3.1355,3.3096,3.539,3.7971,3.9186,3.836,3.8576,3.8566,3.8112,3.8306,3.8463,3.8502,3.9028,3.9339,3.9348,3.9696,4.007,4.0436,4.0296,3.9974,3.9547,3.9399,3.8638,3.7393,3.7155,3.6759,3.6255,3.6088,3.611,3.6276,3.6216,3.5928,3.5576,3.6153,3.6129,3.574,3.5994,3.5916,3.5593,0.0,0.0,0.0,0.0,0.0,0.0,0.0,2.4618,2.4547,2.4508,2.45,2.45,2.45,2.45,2.4611,2.4927,0.0,0.0,0.0,0.0,0.0,0.0,0.0,0.0,0.0,2.4092,2.5012,2.672,2.7012,2.7575,2.8378,2.7974,2.6886,2.5221,2.4405,2.3651,0.0,0.0,0.0,0.0,0.0,0.0,2.7153,0.0,0.0,0.0,0.0,0.0,0.0,0.0,0.0,0.0,0.0,0.0,0.0,0.0,2.806,2.9914,3.1507,3.3246,3.4461,3.3764,3.2015,3.0308,2.983,2.7761,2.598,2.6104,2.605,2.5979,2.6015,2.6609,2.7154,2.7448,2.8536,2.941,2.9558,3.1328,3.3403,3.5588,3.8112,3.9365,3.8469,3.8988,3.9187,3.881,3.9038,3.9199,3.9252,3.961,3.9876,4.0011,4.0246,4.0436,4.0558,4.0583,4.023,3.95,3.9179,3.8454,3.7381,3.7072,3.6547,3.5949,3.6243,3.6074,0.0,3.589,3.5602,3.502,3.5588,3.5739,3.5712,3.6223,3.6469,3.6412,0.0,0.0,0.0,0.0,0.0,0.0,0.0,2.4539,2.45,2.45,2.45,2.45,2.45,2.45,2.4816,2.5633,0.0,0.0,0.0,0.0,0.0,0.0,0.0,0.0,0.0,2.4518,2.5295,2.6273,2.8219,2.9186,2.9296,2.9856,2.9193,2.7452,2.5933,2.4785,0.0,0.0,0.0,0.0,0.0,0.0,0.0,0.0,0.0,0.0,0.0,0.0,0.0,0.0,0.0,0.0,0.0,0.0,0.0,0.0,0.0,0.0,0.0,3.0746,3.2327,3.1702,3.074,2.9832,2.9354,2.7928,0.0,2.6708,2.6708,2.6775,2.6944,2.7504,2.776,2.7247,2.8937,3.0061,2.9357,3.1958,3.4333,3.5463,3.6554,3.7175,3.7059,3.8524,3.9523,3.9636,4.0054,4.0362,4.0493,4.051,4.0583,4.0697,4.0583,4.0566,4.0635,4.0635,4.027,3.9549,3.874,3.804,3.7431,3.6598,3.5901,0.0,3.6055,3.563,3.4474,3.5174,3.5054,3.4411,3.4654,3.517,3.5843,3.6167,3.6809,3.7292,0.0,0.0,0.0,0.0,0.0,0.0,0.0,0.0,0.0,0.0,2.45,2.45,2.45,2.45,2.4816,0.0,0.0,0.0,0.0,0.0,0.0,0.0,0.0,0.0,0.0,2.5034,2.6011,2.7862,2.8445,2.9219,3.0107,3.0272,2.9377,2.7627,2.7093,2.6159,0.0,0.0,0.0,0.0,0.0,0.0,0.0,0.0,0.0,0.0,2.6918,2.7033,0.0,0.0,0.0,0.0,0.0,0.0,0.0,0.0,2.7039,2.7061,2.7419,0.0,2.8338,2.8134,2.7903,2.7723,0.0,2.7216,2.6942,2.6942,2.6942,2.7112,2.7708,2.7503,2.7588,2.8648,2.9195,2.9825,3.0813,3.4381,3.7271,3.8306,3.9471,3.9792,3.8762,3.9521,4.0096,4.0121,4.0337,4.0461,4.051,4.0583,4.0704,4.0864,4.0823,4.0548,3.9945,3.9945,3.9324,3.8105,3.7888,3.7486,3.6846,3.6047,3.5598,3.5427,3.5222,3.4931,3.4671,3.5048,3.4783,3.4229,3.4903,3.4971,3.4822,3.6004,3.68,3.7207,0.0,0.0,0.0,0.0,0.0,0.0,0.0,0.0,0.0,0.0,0.0,0.0,0.0,0.0,0.0,0.0,0.0,0.0,0.0,0.0,0.0,0.0,0.0,2.5372,2.5746,2.6038,2.6987,2.8582,2.9324,3.0234,3.1268,3.1509,3.0713,2.8989,2.7791,2.667,0.0,0.0,0.0,0.0,2.7973,0.0,0.0,0.0,0.0,0.0,2.7368,2.7529,0.0,2.7745,2.7642,2.76,0.0,0.0,0.0,0.0,2.731,2.7263,2.7231,2.7361,2.7503,2.7453,2.7486,2.7503,2.7503,2.723,2.7007,2.7071,2.7039,2.716,2.7684,2.7363,2.7433,2.8732,2.942,3.0565,3.2786,3.4759,3.669,3.8617,3.9418,3.9812,3.9808,4.0165,4.0429,4.0478,4.0534,4.0648,4.0769,4.084,4.0935,4.1018,4.1186,4.0977,4.04,3.9986,3.9264,3.8235,3.8,3.7333,3.6306,3.6006,3.5503,3.4924,3.4942,3.4604,3.4066,3.4523,3.4302,3.3703,3.4263,3.4702,3.5142,3.6105,3.6856,3.7329,0.0,0.0,0.0,0.0,0.0,0.0,0.0,0.0,0.0,0.0,0.0,0.0,0.0,0.0,0.0,0.0,0.0,0.0,0.0,0.0,0.0,0.0,0.0,2.6545,2.6783,2.7239,2.7955,2.8986,3.0353,3.1402,3.2115,3.2823,3.2257,3.0564,2.8443,2.7112,0.0,0.0,0.0,0.0,2.8196,0.0,0.0,0.0,0.0,0.0,0.0,0.0,0.0,2.7717,2.7734,2.7829,2.7688,0.0,0.0,0.0,0.0,0.0,2.7615,2.8115,2.856,2.8133,2.8116,2.8184,2.8081,2.7567,2.7136,2.7244,2.7182,2.7202,2.7544,2.742,2.7581,2.847,3.0024,3.2157,3.518,3.5021,3.5557,3.8168,3.8533,3.9063,4.0292,4.0514,4.0631,4.0745,4.0817,4.0942,4.1169,4.1261,4.1318,4.1373,4.1538,4.149,4.1221,4.0336,3.9517,3.879,3.8212,3.7254,3.6001,3.599,3.5342,3.4251,0.0,0.0,3.3334,3.3975,3.3849,3.325,3.3506,3.4397,3.5662,3.6074,3.6666,3.7192,0.0,0.0,0.0,0.0,0.0,0.0,0.0,0.0,0.0,0.0,0.0,0.0,0.0,0.0,0.0,0.0,0.0,0.0,0.0,0.0,0.0,2.8902,2.7403,2.7204,2.8579,2.8036,2.8429,2.9825,3.0717,3.1179,3.1229,3.269,3.247,3.081,2.9773,2.8871,2.8149,0.0,0.0,0.0,2.8682,0.0,0.0,0.0,0.0,0.0,0.0,0.0,0.0,2.6748,2.7354,2.8345,2.7661,0.0,0.0,0.0,0.0,0.0,2.8006,2.9538,3.0586,2.8264,2.8233,2.8592,2.7929,2.7667,2.7597,2.7627,2.7612,2.7792,2.8392,2.8561,2.8854,2.9544,3.1986,3.4868,3.7943,3.8548,3.8957,3.9718,4.0106,4.0229,4.0009,4.0602,4.1023,4.1023,4.1346,4.1556,4.1618,4.1987,4.2213,4.2216,4.1611,4.1312,4.1372,4.0335,3.9174,3.7897,3.7131,3.6666,3.6449,3.5192,3.4519,3.4344,0.0,3.3781,3.3643,3.393,3.396,3.3868,3.3908,3.4068,3.4381,3.5177,3.5581,3.5747,0.0,0.0,0.0,0.0,0.0,0.0,0.0,0.0,0.0,0.0,0.0,0.0,0.0,0.0,0.0,0.0,0.0,0.0,0.0,0.0,0.0,2.995,2.9079,2.8945,2.9687,2.9297,3.0075,3.2046,3.1992,3.2373,3.3159,3.2557,3.1829,3.1016,2.9802,2.9076,2.8773,2.8798,0.0,0.0,0.0,0.0,0.0,0.0,0.0,0.0,0.0,0.0,0.0,0.0,2.816,2.8627,2.8276,0.0,0.0,0.0,0.0,0.0,2.8365,2.9498,3.0356,2.9108,2.9938,3.0858,3.0029,2.9181,2.8592,2.8696,2.8284,2.8188,2.9029,2.9362,3.0249,3.2492,3.4424,3.6269,3.8098,3.8161,3.8395,3.9382,3.9666,4.007,4.0796,4.0814,4.0845,4.1045,4.0813,4.0707,4.0788,4.0989,4.1106,4.1165,4.0976,4.0709,4.033,4.0003,3.9155,3.7757,3.7086,3.6322,3.5487,3.5018,3.4572,3.4164,0.0,3.3842,3.3921,3.3972,3.3998,3.3998,3.3998,3.4293,3.4755,3.519,3.5415,3.5585,0.0,0.0,0.0,0.0,0.0,0.0,0.0,0.0,0.0,0.0,0.0,0.0,0.0,0.0,0.0,0.0,0.0,0.0,0.0,0.0,3.0231,3.0231,3.0482,3.069,3.0857,3.0613,3.1568,3.3807,3.3183,3.35,3.4674,3.2567,3.1472,3.1195,2.982,2.9135,2.9005,2.9005,2.9005,0.0,0.0,0.0,0.0,0.0,0.0,0.0,0.0,0.0,0.0,0.0,0.0,0.0,0.0,0.0,0.0,2.8687,2.8687,2.8687,2.8687,2.9426,3.0135,2.9948,3.1032,3.216,3.2107,3.0998,3.013,3.067,3.0168,2.9681,2.9868,3.0386,3.1869,3.5194,3.6759,3.789,3.8799,3.8409,3.848,3.9712,3.9831,4.0285,4.151,4.1064,4.0724,4.079,4.0296,4.0032,4.0126,4.0201,4.0275,4.0329,4.0399,4.0047,3.9228,3.931,3.8796,3.773,3.7144,3.6125,3.4739,3.4867,3.4592,3.4023,3.4023,3.4074,3.4148,3.4086,3.4074,3.4074,3.4074,3.4468,3.5073,3.5182,3.5291,3.5528,0.0,0.0,0.0,0.0,0.0,0.0,0.0,0.0,0.0,0.0,0.0,0.0,0.0,0.0,0.0,0.0,0.0,0.0,0.0,0.0,2.9489,2.9489,3.0843,3.1898,3.2514,3.1734,3.2118,3.3807,3.3733,3.377,3.3862,3.2931,3.2106,3.1335,3.0491,2.9684,2.9005,2.9005,2.9005,2.9005,0.0,0.0,0.0,0.0,0.0,0.0,0.0,0.0,0.0,0.0,0.0,0.0,0.0,0.0,2.897,2.897,2.897,2.897,2.897,3.01,3.1102,3.0369,3.0103,3.0582,3.2788,3.2611,3.2429,3.3945,3.4184,3.3447,3.1223,3.2043,3.3872,3.6296,3.8635,4.0633,4.2045,4.2109,4.2089,4.2313,4.2215,4.1964,4.1471,4.1363,4.1005,4.0233,4.0402,4.0545,4.0563,4.0859,4.1011,4.1046,4.0329,3.9557,3.8768,3.8028,3.7624,3.7506,3.6787,3.5988,3.5124,3.4408,3.4092,3.4099,3.4099,3.4173,3.4281,3.4281,3.4281,3.4281,3.4281,3.4318,3.4398,3.4588,3.4706,3.492,0.0,0.0,0.0,0.0,0.0,0.0,0.0,0.0,0.0,0.0,0.0,0.0,0.0,0.0,0.0,0.0,0.0,0.0,0.0,2.8635,2.9619,3.0121,3.0628,3.1251,3.2004,3.2145,3.2983,3.4546,3.4546,3.4302,3.377,3.2467,3.1678,3.1342,3.0044,2.928,2.9005,2.9096,2.9115,2.913,2.9214,0.0,0.0,0.0,0.0,0.0,0.0,0.0,0.0,0.0,2.8748,2.9129,2.8844,2.892,2.913,2.9067,2.9055,2.9044,2.9017,2.9812,3.0577,3.0283,3.0106,3.0812,3.373,3.3766,3.3511,3.4625,3.5283,3.5312,3.4159,3.4839,3.6152,3.7879,3.9769,4.1389,4.2447,4.2552,4.2372,4.1907,4.1815,4.155,4.0962,4.0004,3.9351,3.9248,3.8433,3.7914,3.7914,3.8041,3.812,3.812,3.7826,3.7514,3.7202,3.6934,3.6558,3.608,3.5781,3.5234,3.4439,3.4184,3.4099,3.4161,3.4209,3.4281,3.4363,3.4458,3.4483,3.4494,3.462,3.4662,3.4672,3.4764,3.5154,3.5771,0.0,0.0,0.0,0.0,0.0,0.0,0.0,0.0,0.0,0.0,0.0,0.0,0.0,0.0,0.0,0.0,0.0,0.0,2.6461,2.7836,2.8969,2.9787,3.0231,3.0713,3.1233,3.225,3.3379,3.4619,3.4922,3.45,3.3403,3.2347,3.1753,3.144,3.01,2.9525,2.9529,2.9357,2.9299,2.9293,2.9384,2.9463,0.0,0.0,0.0,0.0,0.0,0.0,0.0,0.0,2.9434,2.9355,2.9355,2.9341,2.9286,2.9181,2.916,2.9138,2.9062,2.9448,2.9945,3.0148,3.0405,3.1519,3.5,3.5165,3.511,3.6931,3.678,3.6314,3.6337,3.6586,3.7251,3.8664,4.0257,4.1578,4.2393,4.2283,4.1922,4.1361,4.1306,4.0962,4.0101,3.899,3.8232,3.7958,3.6909,3.6317,3.6346,3.6346,3.6328,3.6356,3.637,3.6255,3.5998,3.6049,3.5697,3.4929,3.4962,3.466,3.4074,3.4136,3.4197,3.4269,3.4305,3.4397,3.4491,3.4591,3.4663,3.4705,3.4851,3.4889,3.4908,3.4999,3.5557,3.645,0.0,0.0,0.0,0.0,0.0,0.0,0.0,0.0,0.0,0.0,0.0,0.0,0.0,0.0,0.0,0.0,0.0,0.0,2.5652,2.6442,2.726,2.8059,2.9712,3.0553,3.0487,3.2061,3.3167,3.3788,3.4719,3.4296,3.2596,3.281,3.2462,3.1651,3.0926,3.0638,3.0633,2.9838,2.9502,2.9502,2.9502,2.9502,0.0,0.0,0.0,0.0,0.0,0.0,0.0,0.0,2.9502,2.9502,2.9502,2.9502,2.9482,2.9334,2.9304,2.9262,2.9145,2.9163,2.937,3.0043,3.0882,3.258,3.6607,3.6886,3.7441,4.146,3.9111,3.656,3.7382,3.6868,3.6835,3.845,4.0031,4.137,4.2176,4.159,4.1095,4.1077,4.1077,4.0435,3.8836,3.867,3.801,3.6395,3.6266,3.6309,3.6362,3.6362,3.6408,3.6477,3.6527,3.616,3.5295,3.536,3.5008,3.4305,3.445,3.4405,3.4209,3.4269,3.434,3.4397,3.4397,3.4531,3.4694,3.4694,3.4774,3.4906,3.4906,3.4906,3.4953,3.5209,3.5809,3.6656,0.0,0.0,0.0,0.0,0.0,0.0,0.0,0.0,0.0,0.0,0.0,0.0,0.0,0.0,0.0,0.0,0.0,0.0,2.5652,2.6442,2.726,2.8059,2.967,3.0282,2.9741,3.0796,3.1968,3.3247,3.3549,3.3135,3.2055,3.2147,3.1734,3.0923,3.0758,3.037,2.9848,2.9739,2.9708,2.9715,2.9872,2.9945,0.0,0.0,0.0,0.0,0.0,0.0,0.0,0.0,0.0,0.0,2.9779,2.9709,2.9626,2.954,2.9511,2.9501,2.9402,2.977,3.0378,3.1128,3.2341,3.4227,3.7704,3.7393,3.7349,4.0809,3.9638,3.8245,3.9096,3.8554,3.8153,3.8691,3.9617,4.0543,4.135,4.1242,4.0673,3.9536,3.9407,3.8781,3.7165,3.6454,3.5679,3.4687,3.4609,3.4418,3.3949,3.4461,3.4814,3.4878,3.489,3.4791,3.4532,3.4687,3.4671,3.4431,3.4663,3.4682,3.4494,3.4651,3.4733,3.4745,3.4745,3.4803,3.4916,3.5053,3.519,3.5327,3.5327,3.5327,3.5327,3.5417,3.6363,3.7668,0.0,0.0,0.0,0.0,0.0,0.0,0.0,0.0,0.0,0.0,0.0,0.0,0.0,0.0,0.0,0.0,0.0,0.0,0.0,2.5987,2.6776,2.7594,2.8924,2.9727,2.9988,3.0881,3.163,3.22,3.2504,3.221,3.1376,3.2136,3.1882,3.0817,3.1232,3.0988,3.0232,3.004,2.9964,2.9977,3.0094,3.0164,3.0211,0.0,0.0,0.0,0.0,0.0,0.0,0.0,0.0,0.0,3.0019,2.9956,2.9876,2.9789,2.9745,2.97,2.9636,3.0424,3.1536,3.2579,3.4348,3.6526,3.913,3.9551,3.9914,4.1825,4.0714,3.9622,4.0385,3.9349,3.8608,3.925,3.9217,3.9386,4.0182,3.9728,3.8958,3.7982,3.7838,3.7308,3.603,3.5146,3.4344,3.3598,3.3605,3.33,3.2575,3.337,3.387,3.3877,3.396,3.412,3.4401,3.4593,3.4544,3.4223,3.4433,3.4298,3.3866,3.4254,3.4613,3.4934,3.5025,3.5088,3.5122,3.5308,3.5417,3.55,3.55,3.5494,3.5508,3.5508,3.6388,3.761,0.0,0.0,0.0,0.0,0.0,0.0,0.0,0.0,0.0,0.0,2.45,0.0,0.0,0.0,0.0,0.0,0.0,0.0,0.0,0.0,2.6135,2.6888,2.7961,2.9308,3.0997,3.1798,3.1779,3.093,3.1608,3.1488,3.0671,3.2408,3.244,3.1046,3.1986,3.199,3.1228,3.0517,3.0218,3.0218,3.0225,3.0225,3.0225,3.0225,0.0,0.0,0.0,0.0,0.0,0.0,0.0,0.0,3.0218,3.0192,3.0178,3.0049,2.9984,2.9932,2.9937,3.1113,3.2704,3.4285,3.6834,3.9359,4.0874,4.2658,4.3921,4.3698,4.202,4.0781,4.1243,3.9573,3.8516,3.9781,3.8823,3.8126,3.8776,3.7566,3.6594,3.6533,3.6475,3.6091,3.5217,3.447,3.3697,3.2883,3.3007,3.2768,3.1973,3.2939,3.3487,3.3436,3.3677,3.4112,3.4724,3.484,3.453,3.3817,3.3869,3.3489,3.2747,3.3432,3.4219,3.506,3.5234,3.5327,3.5335,3.5458,3.55,3.5507,3.5507,3.5495,3.5515,3.5515,3.6099,3.6907,0.0,0.0,0.0,0.0,0.0,0.0,0.0,0.0,0.0,0.0,0.0,0.0,0.0,0.0,0.0,0.0,0.0,0.0,0.0,0.0,2.6758,2.7027,2.9222,3.0932,3.1977,3.1688,3.1108,3.028,3.1031,3.0951,3.0185,3.1309,3.129,3.0342,3.1245,3.1206,3.0459,3.0323,3.0286,3.0273,3.0343,3.0362,3.0362,3.0362,0.0,0.0,0.0,0.0,0.0,0.0,0.0,0.0,3.0286,3.0233,3.0185,3.0171,3.015,3.0269,3.0879,3.1771,3.3236,3.6122,3.9697,4.2583,4.2901,4.3856,4.4253,4.2696,4.2327,4.2162,4.1694,4.062,3.9505,3.8622,3.8149,3.7718,3.7217,3.6962,3.6584,3.5887,3.593,3.5446,3.3944,3.3644,3.2951,3.1553,3.2034,3.2109,3.1423,3.2823,3.3665,3.3721,3.4374,3.4791,3.4935,3.4454,3.4125,3.3953,3.34,3.3051,3.2891,3.3709,3.4558,3.5391,3.5432,3.5465,3.5465,3.5493,3.5501,3.5496,3.5496,3.5534,3.5583,3.5583,3.6165,3.6975,0.0,0.0,0.0,0.0,0.0,0.0,0.0,0.0,0.0,0.0,0.0,0.0,0.0,0.0,0.0,0.0,0.0,0.0,0.0,0.0,2.7409,2.835,3.0065,3.1079,3.1233,3.1287,3.0913,3.0154,3.0562,3.0547,3.0117,3.0993,3.0973,3.0225,3.1061,3.1012,3.0305,3.0324,3.0356,3.0356,3.0392,3.0404,3.0404,3.0404,0.0,0.0,3.0404,0.0,0.0,0.0,0.0,0.0,0.0,0.0,3.0305,3.0305,3.0266,3.0342,3.0797,3.2405,3.494,3.9148,4.2029,4.3844,4.388,4.4221,4.4108,4.269,4.2523,4.2402,4.1574,4.0403,3.9318,3.8472,3.7652,3.6975,3.6524,3.6155,3.5633,3.4785,3.4742,3.4301,3.3044,3.258,3.2012,3.1202,3.1583,3.1716,3.136,3.2226,3.3092,3.387,3.3964,3.4155,3.4519,3.4251,3.3695,3.2882,3.2519,3.2333,3.2352,3.3179,3.3622,3.3731,3.4526,3.4872,3.4911,3.5348,3.5554,3.5554,3.5546,3.559,3.5645,3.5645,3.6008,3.6468,0.0,0.0,0.0,0.0,0.0,0.0,0.0,0.0,0.0,0.0,0.0,0.0,0.0,0.0,0.0,0.0,0.0,0.0,0.0,0.0,0.0,2.9957,3.0692,3.0825,3.0339,3.0994,3.0967,3.0225,3.0273,3.0433,3.0666,3.1042,3.0897,3.0343,3.1008,3.0964,3.0404,3.0404,3.0404,3.0404,3.0404,3.0404,3.0404,3.0404,3.0404,3.0404,3.0404,3.0404,3.0404,3.0404,0.0,0.0,0.0,0.0,3.039,3.0404,3.0253,3.0164,3.0527,3.3076,3.673,4.13,4.3068,4.3723,4.3848,4.3893,4.3628,4.2613,4.2334,4.2064,4.1271,3.9855,3.8736,3.8534,3.7262,3.6253,3.6101,3.5303,3.4495,3.3831,3.3586,3.3158,3.2355,3.1678,3.1256,3.1142,3.1245,3.1301,3.1301,3.1693,3.2487,3.3779,3.3364,3.3429,3.4028,3.3851,3.3064,3.1698,3.1545,3.1487,3.1493,3.2172,3.2269,3.1987,3.3385,3.4084,3.4283,3.5064,3.5481,3.5628,3.5612,3.5655,3.571,3.5722,3.5798,3.5895,0.0,0.0,0.0,0.0,0.0,0.0,0.0,0.0,0.0,0.0,2.4303,2.433,0.0,0.0,0.0,0.0,0.0,0.0,0.0,0.0,0.0,3.0941,3.1159,3.1248,3.1233,3.1386,3.1083,3.0299,3.0343,3.1142,3.25,3.1168,3.0476,3.0392,3.0507,3.0488,3.0404,3.0404,3.0404,3.0404,3.0404,3.0404,3.0404,3.0404,3.0404,3.0404,3.0404,3.0404,3.0404,3.0404,3.0402,0.0,0.0,0.0,3.04,3.039,2.9865,2.9596,3.1115,3.3981,3.7051,3.9258,4.0973,4.2118,4.2135,4.2703,4.2772,4.1138,4.115,4.1409,4.1303,3.9925,3.8546,3.7776,3.691,3.6044,3.5283,3.4577,3.4075,3.398,3.3391,3.2679,3.1879,3.1706,3.1322,3.0573,3.0547,3.0559,3.0559,3.1936,3.2827,3.3045,3.3673,3.4064,3.4166,3.275,3.1929,3.1698,3.0923,3.0575,3.0585,3.0747,3.1521,3.2756,3.3043,3.3587,3.4293,3.4486,3.5007,3.5697,3.5693,3.5733,3.5781,3.5841,3.589,3.591,0.0,0.0,0.0,0.0,0.0,0.0,0.0,0.0,0.0,0.0,0.0,2.4284,0.0,0.0,0.0,0.0,0.0,0.0,0.0,0.0,0.0,3.0527,3.0643,3.0717,3.0776,3.0809,3.067,3.0362,3.0392,3.125,3.2872,3.216,3.2064,3.2506,3.2025,3.1538,3.1096,3.0615,3.0404,3.0404,3.0444,3.0431,3.04,3.0449,3.0455,3.0463,3.05,3.051,3.0515,3.0506,3.0516,3.0506,3.0511,0.0,0.0,0.0,3.024,3.0293,3.1979,3.3492,3.5258,3.7899,3.9488,4.0527,4.0969,4.1758,4.2027,4.0766,4.0688,4.0842,4.0842,3.9482,3.8238,3.7836,3.6706,3.5557,3.4665,3.4307,3.3766,3.2819,3.2436,3.191,3.1058,3.0962,3.0808,3.0423,3.0846,3.1327,3.1775,3.2506,3.3353,3.4327,3.3776,3.3468,3.3468,3.2737,3.2147,3.1703,3.1805,3.1617,3.1185,3.1207,3.1617,3.2301,3.2822,3.3546,3.4396,3.4966,3.5417,3.5756,3.5798,3.5858,3.5929,3.5942,3.5956,3.5968,0.0,0.0,0.0,0.0,0.0,0.0,0.0,0.0,0.0,0.0,0.0,0.0,0.0,0.0,0.0,0.0,0.0,0.0,0.0,0.0,0.0,3.0116,3.0204,3.0266,3.0311,3.0337,3.0356,3.0404,3.0404,3.1481,3.3564,3.3333,3.391,3.511,3.3814,3.266,3.166,3.1018,3.0735,3.0722,3.0565,3.0471,3.0456,3.0511,3.053,3.0534,3.0578,3.0595,3.0599,3.0595,3.0603,3.0626,3.0603,3.0603,0.0,0.0,0.0,3.082,3.1811,3.2401,3.3371,3.6061,3.7371,3.8289,3.9311,4.0046,4.045,4.0246,4.0015,3.9938,4.015,3.8988,3.8007,3.8007,3.6596,3.5192,3.4321,3.4013,3.3333,3.1872,3.1698,3.1371,3.0481,3.0596,3.0731,3.0731,3.1327,3.1968,3.2564,3.2795,3.341,3.45,3.3276,3.2609,3.2596,3.2602,3.2311,3.173,3.2386,3.2506,3.2143,3.1942,3.2097,3.2525,3.2723,3.332,3.4186,3.5116,3.5638,3.5824,3.589,3.5952,3.6005,3.6008,3.5994,3.5996,0.0,0.0,0.0,0.0,0.0,0.0,0.0,0.0,0.0,0.0,0.0,0.0,0.0,2.5196,2.5748,2.5814,0.0,0.0,0.0,0.0,0.0,3.0273,3.0286,0.0,3.0398,3.0398,3.0398,3.0404,3.0404,3.2096,3.5346,3.4526,3.5449,3.768,3.5225,3.3218,3.1698,3.1655,3.164,3.1568,3.0809,3.0535,3.0593,3.058,3.0595,3.0609,3.0591,3.0601,3.0601,3.0594,3.0647,3.0678,3.0622,3.065,3.0678,0.0,0.0,0.0,2.9766,3.0749,3.2177,3.3035,3.391,3.498,3.6535,3.6923,3.743,3.9034,3.87,3.8373,3.9207,3.8623,3.8007,3.8007,3.6596,3.5192,3.4321,3.3487,3.2641,3.1795,3.1698,3.1371,3.0481,3.1154,3.1641,3.1641,3.1679,3.1718,3.1756,3.2487,3.2583,3.1929,3.1814,3.1749,3.1765,3.1832,3.1849,3.1797,3.1846,3.2314,3.3109,3.234,3.2896,3.4367,3.2757,3.2557,3.3434,3.43,3.5147,3.5908,3.5975,3.6003,3.6006,3.5995,3.5996,3.5996,0.0,0.0,0.0,0.0,0.0,0.0,0.0,0.0,0.0,0.0,0.0,0.0,0.0,2.643,2.6687,2.6787,2.7691,0.0,0.0,0.0,0.0,3.0305,3.0349,3.038,3.0404,3.0404,3.0404,3.0404,3.0404,3.1577,3.3814,3.3506,3.3872,3.4777,3.4411,3.3621,3.2471,3.1388,3.0931,3.0917,3.0705,3.0622,3.0614,3.0711,3.0703,3.0664,3.0704,3.0737,3.0726,3.0734,3.0739,0.0,0.0,3.0739,3.076,3.0737,3.0732,3.0667,3.0321,3.068,3.1321,3.2096,3.2923,3.3824,3.4958,3.606,3.7,3.7577,3.7898,3.8148,3.8476,3.7786,3.718,3.718,3.6231,3.5,3.3564,3.3103,3.2391,3.1019,3.137,3.1588,3.1256,3.2024,3.2512,3.2468,3.2468,3.2499,3.2537,3.2813,3.3088,3.3351,3.2837,3.283,3.3437,3.3498,3.3522,3.3534,3.3524,3.3728,3.4075,3.3275,3.3542,3.4625,3.3991,3.4223,3.5051,3.5369,3.569,3.597,3.5993,3.5995,3.5995,3.5996,3.5996,3.5996,0.0,0.0,0.0,0.0,0.0,0.0,0.0,0.0,0.0,0.0,0.0,0.0,0.0,0.0,2.7815,2.8244,2.8886,2.9539,3.0181,3.0286,3.0318,3.0324,3.038,3.0404,3.0404,3.0115,3.0115,3.0404,3.0115,3.0968,3.2891,3.2627,3.2831,3.3439,3.3479,3.3161,3.2527,3.1424,3.0978,3.0942,3.0773,3.0691,3.071,3.1086,3.1211,3.1188,3.122,3.1249,3.1196,3.0928,3.0831,0.0,0.0,3.0831,3.0831,3.0831,3.0829,3.0826,3.0778,3.0771,3.0879,3.1369,3.1899,3.2522,3.3362,3.442,3.5445,3.6262,3.6682,3.6972,3.7232,3.656,3.6093,3.6638,3.606,3.4924,3.3179,3.3198,3.2755,3.1074,3.1887,3.2463,3.221,3.296,3.3454,3.3415,3.3426,3.3456,3.3467,3.3497,3.3629,3.392,3.3374,3.3363,3.3988,3.4351,3.4528,3.4525,3.4538,3.471,3.5034,3.4204,3.4308,3.5132,3.5136,3.5292,3.5581,3.5874,3.5994,3.5996,3.5996,3.5996,3.5996,3.5996,3.5996,3.5996,0.0,0.0,0.0,0.0,0.0,0.0,0.0,0.0,0.0,2.6925,0.0,0.0,0.0,0.0,0.0,3.0159,3.0249,3.0258,3.0305,3.0292,3.0324,3.0398,0.0,0.0,3.0404,2.9563,2.9544,3.0404,2.955,3.0416,3.282,3.2039,3.2563,3.4125,3.2551,3.1839,3.1763,3.1848,3.1871,3.1836,3.1041,3.0764,3.0934,3.1746,3.2077,3.21,3.2103,3.2106,3.1972,3.1191,3.0918,0.0,0.0,0.0,0.0,0.0,3.0898,3.0898,0.0,0.0,0.0,3.0744,3.0696,3.0918,3.169,3.1884,3.26,3.5086,3.4993,3.4697,3.5492,3.4939,3.4885,3.6446,3.6061,3.4967,3.3288,3.3751,3.3655,3.2039,3.3274,3.3964,3.3204,3.3921,3.4444,3.4434,3.4478,3.4462,3.4404,3.4462,3.4116,3.3265,3.3264,3.3279,3.3275,3.4182,3.4638,3.4632,3.4627,3.5088,3.5976,3.5098,3.5176,3.5996,3.5996,3.5527,3.4805,3.5644,3.5996,3.5996,3.5996,3.5996,3.5996,3.5996,3.5996,3.5996,0.0,0.0,0.0,0.0,0.0,0.0,2.7582,2.7719,2.779,0.0,0.0,0.0,2.9051,2.9964,3.0712,3.1037,3.1158,3.097,3.0412,3.038,3.0386,3.0404,3.0404,3.0404,3.0404,3.0154,3.0154,3.0404,3.0205,3.0477,3.1152,3.0935,3.1115,3.1612,3.1212,3.1013,3.1008,3.1018,3.1401,3.1906,3.1091,3.1155,3.1695,3.1316,3.1547,3.2104,3.2105,3.2127,3.2148,3.1914,3.1426,3.0898,0.0,0.0,0.0,0.0,0.0,0.0,3.0898,0.0,0.0,0.0,0.0,0.0,3.1058,3.156,3.2179,3.287,3.3354,3.3701,3.3929,3.3764,3.3748,3.4206,3.453,3.4579,3.4156,3.3749,3.3341,3.2869,3.3215,3.3654,3.4078,3.4898,3.5387,3.5344,3.4812,3.4497,3.4477,3.4532,3.4453,3.4225,3.482,3.5149,3.5158,3.5451,3.5619,3.5604,3.4979,3.5136,3.5976,3.5098,3.5176,3.5996,3.5996,3.5859,3.5663,3.5898,3.5996,3.5996,3.5996,3.5996,3.5995,3.5995,3.5995,3.5992,0.0,0.0,0.0,0.0,0.0,2.93,2.955,2.9622,2.9719,0.0,0.0,0.0,3.0997,3.1878,3.2179,3.1588,3.1597,3.129,3.0456,3.0404,3.0404,3.0404,3.0404,3.0404,3.0404,3.0038,3.0056,3.0444,3.0116,3.0148,3.0496,3.0525,3.0574,3.0638,3.0678,3.0713,3.0739,3.0733,3.1033,3.1466,3.0985,3.1095,3.1531,3.1403,3.1667,3.2103,3.2104,3.2361,3.2597,3.1894,3.1328,0.0,0.0,0.0,0.0,0.0,0.0,0.0,0.0,0.0,3.0898,3.0898,0.0,0.0,3.0834,3.1196,3.1636,3.2004,3.2489,3.2838,3.2794,3.2805,3.2799,3.2806,3.3165,3.3446,3.3459,3.3336,3.3242,3.3232,3.3556,3.413,3.4992,3.5533,3.583,3.5825,3.5388,3.5127,3.5139,3.5153,3.5181,3.5185,3.5683,3.5944,3.5949,3.5975,3.5996,3.5996,3.5488,3.5508,3.5976,3.5469,3.5527,3.5996,3.5995,3.5995,3.5993,3.5972,3.5973,3.5995,3.5972,3.5969,3.5946,3.5936,3.5929,3.5901,0.0,0.0,3.1397,3.1397,3.2089,3.2471,3.202,3.1961,3.2093,0.0,3.1843,3.1876,3.3069,3.3765,3.3597,3.2225,3.2019,3.1564,3.0615,3.0538,3.05,3.0404,3.0404,3.0404,3.0404,2.9646,2.9666,3.0504,2.9723,2.9753,3.051,3.0578,3.0642,3.0701,3.0716,3.0745,3.0806,3.0792,3.0801,3.0801,3.0801,3.0867,3.1016,3.1699,3.2016,3.21,3.2102,3.2594,3.3007,3.1426,3.0898,0.0,0.0,0.0,0.0,0.0,3.0898,0.0,0.0,0.0,0.0,3.0898,3.0898,0.0,3.0898,3.0898,3.1094,3.1777,3.1914,3.1855,3.1718,3.1751,3.1824,3.1811,3.19,3.2019,3.2143,3.2737,3.3244,3.3429,3.405,3.4842,3.5827,3.5908,3.5934,3.6004,3.6009,3.5992,3.5992,3.5992,3.5993,3.5995,3.5995,3.5995,3.5996,3.5996,3.5996,3.5996,3.5996,3.5996,3.5996,3.5995,3.5995,3.5995,3.5992,3.5991,3.599,3.5931,3.5935,3.5987,3.5928,3.5894,3.589,3.5805,3.5781,3.5775,0.0,3.0852,3.1397,3.1397,3.2231,3.2887,3.2785,3.2955,3.3127,3.326,3.3323,3.3952,3.5537,3.5369,3.5002,3.4702,3.4083,3.3064,3.1545,3.1448,3.1135,3.0423,3.0404,3.0404,3.0404,3.0287,3.032,3.0504,3.037,3.041,3.0574,3.0651,3.0685,3.0697,3.0767,3.0788,3.0794,3.0791,3.0796,3.0796,3.0796,3.1228,3.1797,3.127,3.1489,3.2099,3.21,3.2202,3.2206,3.123,3.0898,3.0898,0.0,0.0,0.0,3.0898,0.0,0.0,0.0,0.0,0.0,0.0,3.0898,0.0,3.0898,3.0898,3.0742,3.0215,3.0117,2.9883,2.918,2.9609,3.0097,3.0097,3.0683,3.1599,3.2938,3.2662,3.2857,3.4265,3.3955,3.425,3.5831,3.597,3.5991,3.6009,3.5993,3.5994,3.5994,3.5995,3.5996,3.5996,3.5996,3.5996,3.5996,3.5996,3.5996,3.5996,3.5996,3.5996,3.5996,3.5995,3.5995,3.5995,3.5992,3.6009,3.5985,3.5923,3.5917,3.5907,3.5846,3.5819,3.5804,3.5739,3.5714,3.5706,3.0723,3.177,3.275,3.325,3.4116,3.4791,3.4926,3.5051,3.5188,3.5323,3.5951,3.657,3.7052,3.6822,3.6315,3.5463,0.0,0.0,0.0,3.1929,3.1506,3.1077,3.0635,3.0421,3.0455,3.0488,3.053,3.0559,3.0585,3.0626,3.0648,3.0685,3.0717,3.0745,3.079,3.0803,3.0791,3.0798,3.08,3.08,3.08,3.1055,3.1407,3.0976,3.1076,3.1451,3.1493,3.1498,3.1503,3.1504,3.123,0.0,3.0898,3.0898,3.0898,0.0,3.0857,3.0856,0.0,0.0,0.0,3.0855,0.0,0.0,0.0,3.0855,3.0737,3.0288,3.019,2.9937,2.91,2.9628,3.0077,2.9668,3.0332,3.1191,3.203,3.1776,3.1991,3.3299,3.3066,3.3476,3.5194,3.5351,3.5527,3.5975,3.5995,3.5996,3.5996,3.5996,3.5996,3.5996,3.5996,3.5996,3.5996,3.5996,3.5996,3.5996,3.5996,3.5996,3.5996,3.5993,3.5987,3.596,3.5953,3.5921,3.5899,3.5836,3.5791,3.5807,3.5753,3.5749,3.5732,3.5645,3.5605,3.5599,3.1434,3.2777,3.4129,3.4947,3.5795,3.6424,3.6634,3.6713,3.6857,3.7236,3.8384,3.9002,3.8604,3.8449,3.7997,3.6975,3.5525,0.0,3.391,3.2814,3.2102,3.1948,3.125,3.092,3.0986,3.0823,3.0777,3.0858,3.0692,3.0656,3.0703,3.0709,3.0757,3.0799,3.0801,3.0791,3.08,3.08,3.08,3.08,3.08,3.08,3.08,3.08,3.08,3.0801,3.0886,3.0892,3.0995,3.164,3.1445,3.0898,3.0876,3.0896,0.0,0.0,0.0,0.0,0.0,0.0,0.0,0.0,0.0,3.08,0.0,0.0,0.0,3.0586,3.0547,3.0296,2.9504,3.0013,3.0288,2.9472,3.0214,3.082,3.0644,3.0761,3.121,3.209,3.2207,3.2793,3.4297,3.4453,3.4805,3.5684,3.5742,3.582,3.5996,3.5996,3.5996,3.5996,3.5996,3.5996,3.5996,3.5996,3.5996,3.5996,3.5994,3.5972,3.5972,3.5961,3.5923,3.5877,3.5883,3.5855,3.5794,3.5704,3.5679,3.5679,3.5684,3.5674,3.5653,3.5547,3.5496,3.5489,3.16,3.3047,3.4198,3.4303,3.5137,3.58,3.5824,3.5991,3.6453,3.7424,3.9051,4.0431,4.1193,4.0622,4.0748,4.2115,3.8654,3.6699,3.7373,3.5218,3.3564,3.2795,3.2679,3.2653,3.2698,3.2013,3.17,3.1754,3.1037,3.0688,3.0703,3.0767,3.0793,3.0799,3.0794,3.0799,3.08,3.08,3.08,3.08,3.08,3.08,3.08,3.08,3.08,3.0801,3.0886,3.0891,3.0914,0.0,3.0976,3.0898,0.0,3.0857,3.0896,3.0826,0.0,0.0,0.0,0.0,0.0,0.0,3.08,0.0,0.0,0.0,3.0586,2.9804,0.0,2.9394,2.8595,0.0,0.0,2.8579,2.977,3.0532,2.9771,3.0318,3.1163,3.209,3.2207,3.2559,3.3457,3.3555,3.3906,3.4785,3.4844,3.5176,3.5957,3.5996,3.5996,3.5996,3.5996,3.5996,3.5995,3.5995,3.5994,3.5992,3.5938,3.5908,3.5907,3.5848,3.5822,3.5816,3.5804,3.5806,3.5791,3.566,3.5616,3.5605,3.5612,3.5584,3.5509,3.5508,3.5507,3.5507,3.1095,3.2365,3.367,3.4218,3.5079,3.5902,3.649,3.7565,3.8503,3.9033,4.0215,4.1178,4.1653,4.0976,4.0971,4.2187,3.9781,3.8354,3.8719,3.6372,0.0,3.4423,3.3449,3.296,3.3051,3.2227,3.1854,3.1965,3.1112,3.0719,3.0767,3.0793,3.0796,3.0792,3.0798,3.08,3.0839,3.1348,3.127,3.0898,3.1893,3.2012,3.1504,3.0995,3.08,3.0801,3.0823,3.0867,3.0892,0.0,3.084,0.0,0.0,0.0,0.0,3.0813,0.0,0.0,0.0,0.0,0.0,0.0,0.0,0.0,3.2186,0.0,3.2085,0.0,0.0,0.0,0.0,0.0,0.0,0.0,2.9954,3.0618,3.0248,3.0501,3.0905,3.1339,3.1399,3.1714,3.2557,3.3105,3.3554,3.3926,3.4414,3.4863,3.5234,3.5722,3.5995,3.5994,3.5994,3.5994,3.5993,3.5966,3.594,3.5938,3.5864,3.5844,3.5844,3.5801,3.5779,3.5741,3.5691,3.5674,3.5688,3.5615,3.5587,3.5544,3.5547,3.5522,3.5502,3.5494,3.55,3.55,3.1096,3.2344,3.3702,3.4386,3.5057,3.5926,3.7139,3.8486,3.9661,4.05,4.1351,4.201,4.2361,4.2309,4.2565,4.3389,4.1742,4.0669,4.0669,3.8084,3.6334,3.5879,3.4642,3.3915,3.3813,3.273,3.2243,3.2352,3.1261,3.0747,3.0793,3.079,3.0807,3.08,3.1055,3.1153,3.1211,3.209,3.209,3.162,3.2889,3.3027,3.2363,3.1485,3.1153,3.1133,3.0898,3.0844,3.0889,3.0838,3.082,0.0,3.0811,3.0804,3.0877,0.0,0.0,0.0,3.2187,0.0,0.0,0.0,0.0,0.0,0.0,0.0,0.0,0.0,0.0,0.0,0.0,0.0,3.0772,0.0,0.0,3.0628,3.0375,3.055,3.0726,3.0767,3.077,3.1029,3.1645,3.2294,3.2766,3.3025,3.3844,3.4448,3.4662,3.5502,3.5968,3.596,3.5958,3.5958,3.5956,3.5898,3.5864,3.586,3.5804,3.5771,3.5771,3.576,3.5722,3.5664,3.5599,3.5568,3.5566,3.5573,3.5534,3.5489,3.5489,3.5489,3.5509,3.5494,3.55,3.55,3.2109,3.359,3.4761,3.4773,3.4917,3.5617,3.7408,3.7731,3.8703,4.1316,4.2361,4.3194,4.4122,4.5648,4.6954,4.7827,4.5586,4.4143,4.4143,4.1027,3.8445,3.6825,3.6697,3.6342,3.5625,3.4005,3.3184,3.3262,3.1601,3.0793,3.0798,3.0798,3.0807,3.0839,3.168,3.2052,3.213,3.2988,3.3338,3.3318,3.3377,3.3377,3.326,3.2383,3.2052,3.1953,3.1094,0.0,0.0,3.0908,3.0894,0.0,0.0,0.0,0.0,0.0,0.0,0.0,0.0,0.0,0.0,3.3208,0.0,0.0,0.0,0.0,3.3204,0.0,0.0,0.0,3.3126,3.247,3.1677,0.0,0.0,0.0,0.0,3.0169,3.0704,3.0706,3.0691,3.0713,3.0733,3.0772,3.1157,3.2064,3.2942,3.3779,3.4558,3.5437,3.5871,3.5816,3.5816,3.5808,3.5813,3.5794,3.5804,3.5807,3.5743,3.5694,3.5708,3.5643,3.5604,3.5604,3.5528,3.5496,3.5509,3.5501,3.55,3.55,3.55,3.55,3.55,3.55,3.55,3.55,3.397,3.4984,3.5439,3.4264,3.4548,3.5751,3.8199,3.9127,4.0901,4.4648,4.5387,4.6502,4.9058,4.9346,4.9702,5.0538,4.8298,4.6586,4.6067,4.3412,4.1381,4.0222,3.9702,3.9073,3.8302,3.6593,3.548,3.5021,3.3332,3.2528,3.2516,3.1923,3.1657,3.166,3.1973,3.2091,3.2189,3.3651,3.3925,3.3455,3.4022,3.4608,3.4958,3.3513,3.2968,3.2929,3.2635,3.2169,0.0,3.1691,3.1306,3.0937,3.1483,3.1672,3.1856,3.271,3.2931,3.3102,0.0,0.0,3.4191,3.4727,0.0,0.0,0.0,0.0,0.0,0.0,0.0,0.0,0.0,0.0,0.0,0.0,0.0,0.0,0.0,3.0417,3.0572,3.057,3.0649,3.07,3.07,3.0708,3.0823,3.1157,3.1969,3.2842,3.3697,3.4574,3.5265,3.5781,3.5801,3.5795,3.5794,3.5753,3.6006,3.6527,3.6469,3.6437,3.6437,3.6395,3.6081,3.5522,3.5502,3.5501,3.5501,3.5507,3.55,3.55,3.55,3.5467,3.5446,3.5474,3.55,3.5577,3.5827,3.6157,3.6041,3.4865,3.5404,3.6903,3.9595,4.1061,4.3282,4.7269,4.8067,4.9183,5.1635,5.1991,5.201,5.1904,5.0404,4.8865,4.7458,4.5305,4.3435,4.2003,4.1506,4.0735,3.9617,3.8245,3.6995,3.5907,3.4527,3.3697,3.3383,3.2828,3.2402,3.213,3.2755,3.2851,3.2675,3.4413,3.4841,3.4372,3.494,3.5504,3.5875,3.4743,3.4138,3.3826,0.0,3.3045,3.2559,3.2566,3.2183,3.1816,3.2383,3.2554,3.2735,3.3616,3.3856,3.4003,3.4801,3.4986,0.0,3.5563,3.5692,0.0,3.5704,0.0,3.5704,0.0,0.0,0.0,0.0,0.0,0.0,0.0,0.0,0.0,0.0,3.0535,3.05,3.0504,3.058,3.063,3.0633,3.0625,3.0646,3.067,3.1744,3.2645,3.3209,3.4337,3.5193,3.5715,3.5735,3.5862,3.6154,3.6119,3.6508,3.7336,3.7263,3.7224,3.7218,3.7229,3.6927,3.6388,3.6379,3.6212,3.5923,3.5923,3.575,3.55,3.55,3.546,3.5405,3.5453,3.5597,3.5902,3.7563,3.7222,3.6747,3.6629,3.741,3.8931,4.1462,4.3297,4.5624,4.9125,5.0375,5.1279,5.2173,5.3722,5.401,5.2288,5.2077,5.0981,4.8557,4.6855,4.4851,4.2376,4.233,4.1573,3.9902,3.9045,0.0,3.6163,3.5225,3.4354,3.3591,3.3494,3.3027,3.2306,3.3964,3.4237,3.3572,3.529,3.5992,3.5992,3.5992,3.5992,3.5992,3.5992,3.5485,3.4666,3.3826,3.3494,3.3455,3.3455,3.3445,3.3413,3.3455,3.3457,3.3646,3.4502,3.4715,3.4828,3.5584,3.5741,3.5693,3.5706,3.5704,0.0,0.0,0.0,3.5704,0.0,0.0,0.0,0.0,0.0,0.0,0.0,0.0,0.0,0.0,3.0499,3.0499,3.0557,3.0518,3.0509,3.0491,3.0495,3.0535,3.0587,3.207,3.3001,3.3088,3.4604,3.551,3.5598,3.5598,3.5997,3.6794,3.6794,3.7257,3.8163,3.8091,3.8057,3.8057,3.806,3.8046,3.8007,3.8007,3.7526,3.675,3.6769,3.6308,3.5608,3.5602,3.5554,3.5499,3.5475,3.5809,3.6441,3.7923,3.8747,3.949,3.9443,3.913,3.9757,4.2294,4.4165,4.6932,5.1606,5.3491,5.5222,5.7319,5.7415,5.6876,5.578,5.4549,5.3041,5.1153,5.0051,4.8404,4.5971,4.5936,4.52,4.3575,4.1507,4.0207,3.9776,3.7006,3.5875,3.6267,3.4979,3.4256,3.4042,3.4491,3.4588,3.4432,3.5543,3.5992,3.5992,3.5992,3.5992,3.5992,0.0,3.5856,3.5641,3.5407,3.4919,3.4375,3.438,3.3935,3.3511,3.416,3.4374,3.4545,3.5419,3.5644,3.566,3.5768,3.5794,3.5753,3.5702,3.5704,3.5704,0.0,0.0,0.0,0.0,0.0,0.0,0.0,0.0,0.0,0.0,0.0,0.0,0.0,3.0428,3.0673,3.1299,3.0818,3.045,3.0504,3.0504,3.0519,3.0511,3.0912,3.1718,3.2954,3.3432,3.4251,3.5559,3.5598,3.5984,3.68,3.68,3.7537,3.8999,3.8972,3.8965,3.8965,3.8977,3.8604,3.8007,3.8007,3.7873,3.7654,3.7605,3.7467,3.7268,3.7122,3.6927,3.6692,3.6386,3.6393,3.672,3.9569,4.0674,4.1745,4.211,4.2398,4.3052,4.4493,4.5846,4.8125,5.2106,5.4414,5.6242,5.7684,5.8107,5.7965,5.7121,5.5168,5.3437,5.2171,5.0615,4.9003,4.7319,4.696,4.6041,4.4367,4.2581,0.0,4.0016,3.7692,3.662,3.6702,3.5335,3.4692,3.4694,3.4694,3.4694,3.4753,3.5628,3.5998,3.5998,3.5994,3.5992,0.0,3.5992,3.5995,3.5998,3.5998,3.5686,3.5278,3.5261,3.4934,3.4626,3.5117,3.5273,3.5366,3.5852,3.5975,3.5927,3.5824,3.5783,3.576,3.5702,3.5704,3.5704,3.5704,3.5704,3.58,0.0,3.6226,3.6071,0.0,0.0,0.0,0.0,0.0,0.0,0.0,0.0,3.1004,3.1121,3.1019,3.0825,3.0494,3.0461,3.0472,3.0504,3.1152,3.1815,3.2391,3.3492,3.4545,3.5528,3.5894,3.6651,3.7882,3.7882,3.8549,3.9823,3.9823,3.9823,3.9823,3.9819,3.9562,3.9092,3.8975,3.8712,3.8331,3.8246,3.7972,3.7611,3.7481,3.7323,3.7211,3.7348,3.7357,3.747,4.1596,4.2541,4.347,4.4182,4.5913,4.7288,4.7519,4.8432,4.9933,5.225,5.4684,5.6165,5.6049,5.728,5.7802,5.7009,5.4901,5.3272,5.2434,5.0296,4.8593,4.7533,4.6859,4.5679,4.3813,4.2752,4.1147,3.8924,3.7713,3.6741,3.5986,3.5106,3.4699,3.4702,3.4702,3.476,3.4916,3.5675,3.6005,3.6005,3.5999,3.5995,3.5995,3.5995,3.6,3.6005,3.6005,3.6005,3.6005,3.6006,3.5991,3.5995,3.5995,3.5995,3.5991,3.6009,3.5949,3.5883,3.5817,3.5757,3.5708,3.5706,3.5704,3.5704,3.5704,3.5781,3.6052,3.6767,3.7,3.7077,0.0,0.0,0.0,0.0,0.0,0.0,0.0,0.0,3.1583,3.0827,3.1404,0.0,3.0654,3.0577,3.0543,3.0488,3.1786,3.2365,3.1875,3.3962,3.5308,3.5654,3.6346,3.7519,3.9269,3.9296,3.97,4.05,4.05,4.05,4.0492,4.0491,4.0466,4.0441,4.0196,3.9662,3.8918,3.8805,3.8285,3.757,3.7508,3.7475,3.7536,3.8237,3.842,3.8421,4.1888,4.3019,4.4124,4.4278,4.6894,4.9433,5.0808,5.2933,5.478,5.5953,5.7703,5.8588,5.7915,5.7473,5.6909,5.6095,5.5613,5.4766,5.3363,5.2843,5.1353,4.8588,4.8337,4.7156,4.4807,4.2492,4.1111,0.0,3.7681,3.6141,3.5988,3.511,3.4701,3.4702,3.4702,3.5092,3.5776,3.5932,3.6009,3.6009,3.6009,3.6009,3.6009,3.6009,3.6009,3.6009,3.6009,3.6009,3.5991,3.5993,3.5994,3.5995,3.5995,3.5992,3.6009,3.6,3.5958,3.5883,3.5817,3.5757,3.5708,3.5706,3.5704,3.5704,3.5704,3.6207,3.6729,3.6864,3.7458,3.7961,3.7961,0.0,0.0,0.0,0.0,0.0,0.0,0.0,0.0,3.2487,3.2602,3.2372,3.1545,3.1468,3.1179,3.0479,3.0679,3.1391,3.2609,0.0,3.4314,0.0,3.6635,3.7505,0.0,0.0,3.9688,4.0413,4.0474,4.0474,4.0413,4.0424,4.0325,4.0167,4.011,3.9907,3.9631,3.9602,3.9368,3.9033,3.9033,3.8901,3.8777,3.8931,3.896,3.8984,4.4423,4.5086,4.6067,4.7394,4.9702,5.2087,5.4222,5.634,5.739,5.6445,5.703,5.7387,5.7035,5.6631,5.6239,5.5943,5.4651,5.34,5.2283,5.1412,5.0086,4.8107,4.7666,4.6479,4.4367,4.2201,4.0663,3.9791,0.0,3.5773,3.5328,3.4899,3.4705,3.4725,3.5174,3.5604,3.5995,3.5994,3.5993,3.5993,3.5992,3.5991,3.5991,3.5991,3.5992,3.5993,3.5993,3.5994,3.5995,3.5995,3.5995,3.5996,3.5995,3.5992,3.6009,3.6002,3.5929,3.5833,3.5811,3.5752,3.5698,3.5695,3.5704,3.5704,3.5704,3.6323,3.7038,3.7477,3.8276,3.887,3.8833,3.772,0.0,0.0,0.0,0.0,0.0,0.0,3.4083,0.0,3.3564,3.3083,3.1814,3.2019,3.1891,3.1129,3.1033,3.1565,3.2833,0.0,3.4973,0.0,0.0,0.0,3.9861,0.0,4.0092,4.0449,4.0474,4.0405,4.0243,4.0215,4.01,3.9948,3.9799,3.9679,3.9585,3.9471,3.9363,3.9232,3.9232,3.917,3.905,3.905,3.9036,3.9021,4.699,4.7461,4.8393,5.0596,5.2675,5.4725,5.6746,5.8511,5.8888,5.6813,5.6235,5.6025,5.6077,5.5758,5.5596,5.5736,5.3522,5.1823,5.1107,4.9707,4.8452,4.7499,4.6891,4.5677,4.3746,4.1989,4.0275,0.0,0.0,0.0,3.4433,3.4609,3.4707,3.4746,3.5605,3.5996,3.5996,0.0,3.5995,3.5995,3.5994,3.5993,3.5993,3.5993,3.5994,3.5995,3.5995,3.5996,3.5996,3.5996,3.5996,3.5996,3.5995,3.5993,3.6009,3.598,3.5897,3.5801,3.5787,3.5736,3.5704,3.5704,3.5704,3.5742,3.5916,3.6593,3.7425,3.8295,3.916,3.9683,3.9451,3.8427,0.0,0.0,0.0,0.0,0.0,0.0,3.5635,0.0,0.0,0.0,3.2141,3.2593,3.2692,3.1975,3.1686,3.1929,3.2807,0.0,0.0,0.0,0.0,3.9287,4.0068,0.0,4.0339,4.0335,4.0344,4.0224,4.0011,3.9962,3.9865,3.9693,3.9489,3.9395,3.9311,3.9156,3.9073,3.9073,3.9059,3.9036,3.8979,3.8979,3.8954,3.891,4.7836,4.9268,5.0672,5.1693,5.4622,5.6898,5.7129,5.8614,5.9577,5.9273,5.7956,5.7042,5.6984,5.5615,5.4773,5.4901,5.3235,5.1923,5.1312,5.0392,4.9175,4.7658,4.7526,4.6282,4.3752,4.1996,4.0282,0.0,0.0,3.5155,0.0,3.4336,3.4707,3.4746,3.5605,0.0,0.0,3.5996,3.5996,3.5996,3.5996,3.5996,3.5996,3.5996,3.5996,3.5996,3.5996,3.5996,3.5996,3.5995,3.5996,3.5996,3.5993,3.5991,3.5987,3.5931,3.5867,3.579,3.5732,3.5694,3.5704,3.5704,3.5704,3.5897,3.6613,3.7464,3.8334,3.921,4.0011,4.0346,3.956,3.9865,3.9752,0.0,0.0,0.0,0.0,0.0,3.718,3.5577,0.0,0.0,3.3026,3.3506,3.3578,3.2687,3.1876,3.18,3.266,0.0,0.0,3.6389,3.723,3.7994,3.8679,3.9461,3.9838,3.9785,3.9848,3.9818,3.9739,3.9721,3.9635,3.9427,3.9401,3.9285,3.9129,3.905,3.9007,3.8993,3.8935,3.8906,3.8925,3.8925,3.891,3.8877,5.1105,5.1412,5.2125,5.4005,5.5082,5.62,5.7689,5.8176,5.8358,5.8294,5.7677,5.7058,5.6553,5.5048,5.3889,5.3455,5.1828,5.051,4.9793,4.8922,4.795,4.6878,4.6817,4.5842,4.3759,4.2491,4.0794,0.0,0.0,0.0,0.0,0.0,0.0,0.0,0.0,3.5996,3.5996,3.5996,3.5996,3.5996,3.5996,3.5996,3.5996,3.5996,3.5996,3.5996,3.5996,3.5995,3.5995,3.5994,3.5994,3.5995,3.5958,3.5931,3.5923,3.5853,3.5794,3.5721,3.5711,3.5708,3.582,3.6303,3.6419,3.6632,3.7483,3.8353,3.9063,3.9373,4.0076,4.0524,4.0174,3.9959,3.9745,3.9534,0.0,0.0,0.0,0.0,0.0,3.7142,0.0,3.5897,3.3826,3.3727,3.3633,3.3208,3.2471,3.2409,0.0,0.0,0.0,3.691,0.0,3.9135,3.9283,3.976,3.9918,3.9751,3.9792,3.9693,3.9526,3.9526,3.9414,3.9224,3.9183,3.9101,3.9036,3.8964,3.8935,3.8939,3.8925,3.8881,3.8851,3.8851,3.8807,3.878,5.3223,5.3335,5.3911,5.5989,5.6098,5.6501,5.8243,5.7965,5.7515,5.7469,5.6996,5.6426,5.5843,5.4328,5.3015,5.2212,5.0544,4.9201,4.8428,4.7552,4.6845,4.632,4.6299,0.0,4.3745,4.2846,4.1149,3.8593,3.8339,0.0,0.0,0.0,0.0,0.0,3.6269,3.623,3.5996,3.5996,3.5996,3.5996,3.5996,3.5996,3.5996,3.5996,3.5996,3.5995,3.5972,3.597,3.6008,3.6232,3.6327,3.627,3.5994,3.6055,3.6192,3.5875,3.5915,3.6085,3.6062,3.6056,3.6245,3.7077,3.729,3.7516,3.8355,3.9038,3.9515,3.9709,4.0196,4.0605,4.0595,4.008,3.9846,4.04,0.0,0.0,0.0,4.0015,0.0,3.8123,3.7447,3.6483,3.5016,3.4552,3.433,3.4272,3.396,3.3932,0.0,0.0,0.0,0.0,0.0,0.0,3.9236,3.9626,3.9724,3.9587,3.9587,3.9489,3.9311,3.9311,3.9232,3.9101,3.9064,3.9021,3.8979,3.8939,3.8896,3.8881,3.8851,3.8807,3.8762,3.8762,3.8735,3.8707,5.3232,5.4838,5.6342,5.7238,5.8137,5.8762,5.8782,5.8106,5.7598,5.7605,5.6168,5.51,5.5024,5.3521,5.218,5.1379,4.9722,4.8402,4.7665,4.6808,4.6301,0.0,4.6301,4.5483,4.3748,4.2849,4.1151,3.8594,0.0,0.0,3.4726,0.0,3.6016,3.6035,3.6894,3.6816,3.5996,3.5996,3.5996,3.5996,3.5996,3.5996,3.5995,3.5995,3.5993,3.599,3.5913,3.5903,3.6013,3.6818,3.7089,3.6943,3.6148,3.6445,3.6897,3.5965,3.6303,3.6964,3.6906,3.6884,3.7096,3.7961,3.8174,3.84,3.92,3.9387,3.9625,4.0428,4.0598,4.0607,4.0607,4.0539,4.0496,4.0496,0.0,0.0,0.0,4.0496,0.0,3.82,3.7928,3.7563,3.6757,3.6372,3.614,3.607,3.6551,0.0,0.0,0.0,0.0,3.7012,3.7735,0.0,3.7926,3.8706,3.9115,3.9115,3.9115,3.9115,3.9101,3.9101,3.9101,3.9101,3.9101,3.9045,3.8979,3.8939,3.8866,3.8792,3.8719,3.8707,3.8707,3.8707,3.8707,3.8707,5.53,5.5838,5.6309,5.6601,5.6933,5.7152,5.7098,5.6979,5.6689,5.6046,5.5014,5.4113,5.3494,5.242,5.1412,5.0562,4.8931,4.7844,4.7614,4.6774,4.6306,4.6308,4.6306,4.5486,4.373,4.3437,4.2031,3.9492,0.0,0.0,0.0,3.8535,3.834,3.7773,3.8066,3.8027,3.7773,3.7773,3.7773,3.7772,3.7772,3.7747,3.7692,3.7692,3.7677,3.763,3.7609,3.7601,3.7634,3.7893,3.7953,3.7866,3.7615,3.7704,3.7845,3.751,3.7594,3.7802,3.7798,3.7787,3.8005,3.8876,3.9094,3.9301,4.0159,4.0275,4.0286,4.0559,4.0561,4.0531,4.0531,4.0504,4.0496,4.0496,4.0496,0.0,4.0496,0.0,4.0084,3.8942,3.864,3.8182,3.7343,3.6943,3.672,3.6652,3.7237,0.0,0.0,0.0,0.0,0.0,3.8508,0.0,3.9598,3.94,3.953,3.9974,3.938,3.9073,3.9036,3.9036,3.9007,3.8964,3.8921,3.8877,3.8866,3.8795,3.875,3.8719,3.8707,3.8707,3.8707,3.8707,3.8707,3.8707,5.6278,5.6315,5.6339,5.6348,5.6406,5.6455,5.642,5.6523,5.6271,5.5365,5.4518,5.3667,5.2809,5.1364,5.0231,4.9702,4.8396,4.746,4.7128,4.6601,4.6308,4.6308,4.6308,4.5644,4.4219,4.3867,0.0,4.0391,4.0273,3.9941,3.9414,3.9746,3.9434,3.8613,3.8945,3.8906,3.8593,3.857,3.8567,3.8562,3.8535,3.8497,3.8466,3.8466,3.8444,3.8403,3.8373,3.8362,3.8416,3.8708,3.8782,3.8805,3.9129,3.9245,3.9099,3.8404,3.8431,3.8682,3.8682,3.8682,3.8895,3.9771,3.9972,4.0089,4.0604,4.0633,4.0564,4.0554,4.08,4.0989,4.0989,4.0989,4.0989,4.0989,4.0708,4.0496,4.0496,0.0,4.0172,0.0,0.0,0.0,0.0,3.7642,3.7529,0.0,3.8162,0.0,0.0,0.0,3.8488,3.8822,3.9461,4.0113,4.0843,4.0449,4.0253,4.0321,3.9754,3.9452,3.9412,3.9412,3.9231,3.891,3.8866,3.8822,3.8807,3.8747,3.8719,3.8707,3.8707,3.8707,3.8707,3.8707,3.8707,3.8707,5.6324,5.6366,5.6413,5.6407,5.6523,5.6585,5.6515,5.6515,5.6185,5.5232,5.4412,5.3553,5.2637,5.0351,4.8886,4.8827,0.0,0.0,4.6348,4.6308,4.6308,4.6308,4.6308,4.5898,4.5019,4.4219,4.2969,4.1289,3.9609,3.8789,3.8809,3.9609,3.9551,3.8808,3.9627,3.9528,3.8764,3.8701,3.8664,3.8662,3.86,3.8569,3.8571,3.8571,3.8576,3.8552,3.8491,3.8467,3.8593,3.9336,3.9597,3.9733,4.0545,4.0797,4.0487,3.8856,3.8953,3.9597,3.9597,3.9597,3.9771,4.0597,4.0746,4.0693,4.068,4.0642,4.0612,4.0669,4.1335,4.1865,4.1808,4.1788,4.1769,4.1712,4.1027,4.0496,4.0489,4.0508,4.0196,0.0,0.0,0.0,3.883,3.8428,3.8476,0.0,0.0,0.0,0.0,0.0,3.9547,4.0378,4.0416,4.081,4.1664,4.1627,4.1156,4.0274,4.0215,4.0184,4.0184,4.0114,3.9708,3.9062,3.8988,3.8925,3.8884,3.8884,3.882,3.8707,3.8707,3.8707,3.8707,3.8707,3.8707,3.8707,5.6511,5.6536,5.655,5.6552,5.6584,5.6378,5.5719,5.5602,5.5056,5.3515,5.3144,5.2441,5.0957,4.9668,4.8633,4.7969,4.7109,4.6523,4.6308,4.6308,4.6308,4.6308,4.6308,4.5898,4.5019,4.4805,4.3848,4.2129,4.1094,4.0586,4.0586,4.0741,4.0718,4.0513,4.0662,4.0625,4.0421,4.0407,4.0376,4.0328,4.0315,4.0287,4.0233,4.0233,4.0237,4.0231,4.0213,4.0208,4.024,4.0435,4.0487,4.0526,4.0739,4.0797,4.0719,4.0307,4.0332,4.0487,4.0487,4.0487,4.0539,4.0681,4.0668,4.0781,4.145,4.1582,4.174,4.2362,4.2643,4.2585,4.1923,4.1788,4.1585,4.0912,4.0631,4.05,4.0507,4.0466,4.0274,0.0,3.9615,3.9426,3.9274,3.9018,3.8691,0.0,0.0,3.8822,3.8209,3.9398,4.0193,4.0383,4.0416,4.1059,4.2427,4.1834,4.1363,4.1034,4.1018,4.0987,4.0922,4.0299,4.0231,4.0535,3.9926,3.9653,3.9638,3.9638,3.9273,3.8707,3.8707,3.8707,3.8707,3.8707,3.8707,3.8707,5.6591,5.6602,5.6607,5.6592,5.6595,5.6441,5.5976,5.5566,5.4824,5.3476,5.2949,5.2207,5.0898,4.9648,4.8711,4.8242,4.7031,4.6308,4.6308,4.6308,4.6308,4.6308,4.6308,4.6074,4.5605,4.5195,4.4141,4.2402,4.193,4.1497,4.1104,4.1073,4.1056,4.104,4.0989,4.0947,4.0958,4.0922,4.0898,4.0846,4.0858,4.0829,4.0809,4.0809,4.08,4.0797,4.0797,4.0797,4.0797,4.0797,4.0797,4.079,4.0752,4.0752,4.0746,4.0713,4.0739,4.0752,4.0752,4.0739,4.07,4.066,4.0928,4.1304,4.174,4.2156,4.2579,4.3017,4.3393,4.3508,4.3028,4.2643,4.2231,4.1723,4.0968,4.0427,4.0334,4.0261,4.0272,4.0441,4.0287,4.0265,4.0525,4.036,3.99,3.9101,3.9788,0.0,3.9082,4.0253,4.0954,4.0954,4.1311,4.2062,4.3249,4.2356,4.2071,4.2357,4.1956,4.1724,4.1691,4.125,4.1071,4.1077,4.0653,4.023,3.9918,4.0304,3.9974,3.9294,3.9662,3.9808,3.9808,3.9808,3.9808,3.9793,5.6603,5.6609,5.6595,5.6599,5.66,5.6562,5.6426,5.5664,5.4785,5.3926,5.3047,5.2187,5.1308,4.9941,4.9043,4.8906,4.7422,4.6445,4.6308,4.6308,4.6308,4.6308,4.6308,4.6308,4.6308,4.5312,4.4062,4.2574,4.2268,4.1726,4.1007,4.0989,4.0984,4.0974,4.0917,4.0887,4.0875,4.083,4.0809,4.0798,4.0808,4.0797,4.0797,4.0797,4.0797,4.0797,4.079,4.0784,4.0784,4.0765,4.0759,4.0752,4.07,4.0674,4.0668,4.0621,4.0724,4.0854,4.0725,4.0744,4.0824,4.0942,4.1524,4.2094,4.217,4.2758,4.3316,4.3451,4.4008,4.4451,4.4316,4.3643,4.306,4.3007,4.1506,4.0326,4.0272,0.0,4.0355,4.088,4.0911,4.1145,4.18,4.1706,4.1311,4.0624,4.12,4.1293,4.062,4.133,4.1761,4.1761,4.2429,4.3144,4.3849,4.3,4.2918,4.3582,4.2834,4.2488,4.2488,4.2359,4.1992,4.1462,4.1334,4.0891,4.0322,4.1001,4.0818,4.0139,4.082,4.1095,4.1079,4.1079,4.1027,4.0961,5.661,5.6596,5.6599,5.6599,5.6601,5.6347,5.5605,5.4765,5.3887,5.3027,5.2148,5.1289,5.0488,5.0156,4.9707,4.8965,4.7988,4.709,4.6348,4.6308,4.6308,4.6308,4.6308,4.6308,4.6308,4.4726,4.3743,4.3409,4.1938,4.1139,4.1003,4.0942,4.0926,4.0911,4.0844,4.0814,4.0806,4.0808,4.0796,4.0796,4.0803,4.0797,4.0797,4.0797,4.0797,4.079,4.0739,4.0726,4.07,4.0654,4.0628,4.0628,4.0621,4.0621,4.0621,4.0595,4.1133,4.1562,4.0819,4.1152,4.1867,4.2533,4.2818,4.3094,4.3758,4.4028,4.4316,4.5056,4.5306,4.5171,4.4432,4.3598,4.2979,4.2926,4.1351,4.0348,4.095,0.0,4.0793,4.0678,4.1269,4.1698,4.1645,4.1619,4.1553,4.1423,4.1534,4.1553,4.1423,4.2124,4.2523,4.2523,4.2653,4.3019,4.3649,4.3437,4.3403,4.3513,4.3386,4.3296,4.3277,4.2598,4.2598,4.3075,4.2415,4.2047,4.1937,4.2066,4.1644,4.093,4.104,4.1026,4.0923,4.0923,4.072,4.042,5.6597,5.66,5.6601,5.6601,5.6601,5.6465,5.6055,5.4863,5.3867,5.3457,5.2226,5.1269,5.0898,5.0469,5.0039,4.9648,4.8808,4.793,4.7051,4.6562,4.6308,4.6308,4.6308,4.6307,4.6307,4.5477,4.4564,4.3606,4.3182,4.2272,4.0889,4.1311,4.1265,4.084,4.0804,4.0794,4.0797,4.0797,4.0797,4.0797,4.0797,4.0797,4.079,4.0752,4.0746,4.0739,4.0668,4.0654,4.0635,4.0614,4.0595,4.0607,4.0605,4.0598,4.0687,4.1127,4.157,4.1917,4.1936,4.2248,4.2637,4.3002,4.3429,4.3835,4.422,4.4662,4.5114,4.5518,4.5594,4.5479,4.5075,4.3906,4.3124,4.3521,4.1609,0.0,4.1582,4.1192,4.1027,4.1707,4.2145,4.2526,4.2868,4.289,4.2705,4.2277,4.2603,4.2662,4.2217,4.2884,4.3264,4.3197,4.318,4.3314,4.3599,4.3531,4.3515,4.3515,4.3515,4.3515,4.3496,4.3112,4.3149,4.3478,4.3112,4.269,4.2323,4.2763,4.247,4.1791,4.2213,4.2361,4.2292,4.2259,4.2013,4.1685,5.66,5.6601,5.6601,5.6601,5.6601,5.6601,5.6601,5.5293,5.4238,5.4023,5.2656,5.1621,5.1426,5.0859,5.0391,5.0215,4.9394,4.8535,4.7656,4.6777,4.6308,4.6308,4.6307,4.6305,4.63,4.6044,4.5236,4.3888,4.4014,4.3169,4.1394,4.1615,4.1487,4.1067,4.0874,4.0797,4.0797,4.0784,4.0784,4.0784,4.0752,4.0752,4.0752,4.07,4.0687,4.0661,4.0626,4.06,4.0631,4.0817,4.0875,4.0906,4.112,4.1189,4.1297,4.192,4.2263,4.2587,4.3209,4.3374,4.3431,4.3624,4.4143,4.4605,4.4605,4.5133,4.5594,4.5594,4.5594,4.5605,4.5577,4.4285,4.3474,4.4269,0.0,4.0889,4.2203,4.1798,4.1739,4.2683,4.3132,4.354,4.3968,4.3989,4.3714,4.3101,4.3579,4.3606,4.2995,4.3453,4.3703,4.3582,4.3565,4.3565,4.3565,4.3532,4.3515,4.3515,4.3515,4.3515,4.3515,4.3515,4.3515,4.3515,4.3515,4.3149,4.2635,4.3223,4.3061,4.2498,4.3084,4.325,4.3142,4.3087,4.2863,4.2536,5.6601,5.6601,5.6601,5.6601,5.6601,5.6601,5.6601,5.5801,5.4902,5.4101,5.3183,5.2305,5.1484,5.1348,5.1016,5.0273,4.9394,4.8535,4.7656,4.6777,4.6308,4.6307,4.6305,4.63,4.6294,4.5447,4.489,4.4705,4.3088,4.2571,4.3079,4.159,4.1255,4.1874,4.1126,4.0797,4.079,4.0739,4.07,4.07,4.0635,4.0602,4.0621,4.0614,4.0614,4.0607,4.061,4.0595,4.0703,4.1466,4.1708,4.1862,4.267,4.292,4.2931,4.2989,4.3528,4.4152,4.4201,4.4201,4.4412,4.521,4.546,4.5498,4.5498,4.5556,4.5594,4.5594,4.5594,4.5577,4.5513,4.4585,4.4075,4.4821,0.0,0.0,4.2829,4.3416,4.3519,4.2872,4.4172,4.4822,4.4079,4.3926,4.3878,4.3804,4.3798,4.3767,4.3712,4.3647,4.3582,4.3515,4.3515,4.3515,4.3515,4.3496,4.3515,4.3515,4.3515,4.3515,4.3515,4.3515,4.3515,4.3515,4.3515,4.3478,4.3406,4.341,4.3178,4.2847,4.2789,4.248,4.2098,4.2098,4.1842,4.1507,5.6601,5.6601,5.6601,5.6601,5.6601,5.6601,5.6601,5.5859,5.498,5.4101,5.3242,5.2363,5.1504,5.1406,5.1289,5.0976,5.0195,4.9336,4.8457,4.7598,4.6855,4.6326,4.6304,4.6274,4.6249,4.5845,4.5347,4.4739,4.4515,4.4021,4.3305,4.3208,4.3001,4.2723,4.2421,4.2001,4.151,4.2037,4.1933,4.1451,4.1417,4.1719,4.2143,4.16,4.1708,4.2152,4.2144,4.2148,4.2205,4.2489,4.2604,4.2662,4.3008,4.3104,4.3201,4.3701,4.4432,4.5114,4.5114,4.5114,4.519,4.5518,4.5594,4.5594,4.5594,4.5594,4.574,4.6242,4.6348,4.6282,4.6096,4.569,4.5258,4.4876,0.0,4.3666,4.4504,4.4255,4.4079,4.4321,4.4915,4.4936,4.4019,4.4376,4.442,4.3872,4.4214,4.4183,4.3704,4.36,4.3532,4.3515,4.3515,4.3515,4.3515,4.3515,4.3515,4.3515,4.3515,4.3515,4.3515,4.3515,4.3515,4.3515,4.3515,4.3515,4.3497,4.3463,4.3358,4.3178,4.292,4.2673,4.24,4.2115,4.1778,4.1445,5.6601,5.6601,5.6601,5.6601,5.6601,5.6601,5.6601,5.5859,5.498,5.4101,5.3242,5.2363,5.1504,5.1406,5.1308,5.1055,5.0273,4.9414,4.8555,4.7676,4.6913,4.6325,4.6276,4.6255,4.6201,4.6119,4.5745,4.5118,4.5312,4.4961,4.4077,4.4135,4.396,4.3569,4.3299,4.2859,4.2355,4.2919,4.2822,4.2275,4.2287,4.2626,4.3108,4.2506,4.2614,4.3107,4.3094,4.3104,4.3143,4.3393,4.347,4.3528,4.3797,4.3893,4.3989,4.4547,4.5133,4.5671,4.5932,4.6009,4.5932,4.5671,4.5806,4.6009,4.6009,4.6192,4.652,4.705,4.7185,4.7086,4.6793,4.6666,4.631,4.5485,4.5138,4.5189,4.5798,4.5472,4.5194,4.5287,4.5751,4.5605,4.4445,4.501,4.5201,4.4598,4.4922,4.4907,4.4355,4.4046,4.3993,4.425,4.3772,4.3608,4.3864,4.3643,4.3515,4.3515,4.3515,4.3515,4.3515,4.3515,4.3515,4.3515,4.348,4.3463,4.3445,4.3286,4.3123,4.292,4.2575,4.2297,4.2113,4.1756,4.1512,4.1305,5.6601,5.6601,5.6601,5.6601,5.6601,5.6601,5.6601,5.5879,5.498,5.4121,5.3242,5.2383,5.1504,5.1406,5.1074,5.0273,4.9414,4.8535,4.7656,4.6777,4.6305,4.6301,4.6243,4.6203,4.6203,4.6061,4.5997,4.5997,4.508,4.5025,4.5769,4.4042,4.3646,4.438,4.359,4.3223,4.3196,4.3146,4.3111,4.3111,4.3102,4.3104,4.3124,4.3104,4.3104,4.3124,4.3124,4.3124,4.3239,4.4047,4.4316,4.4451,4.5325,4.5594,4.5594,4.5614,4.5614,4.5806,4.6682,4.6904,4.6701,4.5845,4.6278,4.6904,4.6904,4.7491,4.7991,4.801,4.8019,4.7905,4.7581,4.7346,4.7121,4.6844,4.6637,4.6513,4.6513,4.72,4.7107,4.5509,4.6735,4.707,4.5454,4.5845,4.6205,4.6205,4.601,4.5902,4.5902,4.5149,4.5076,4.5865,4.4342,4.3901,4.4691,4.3901,4.3515,4.3515,4.3515,4.3515,4.3515,4.3515,4.3515,4.3497,4.3429,4.3394,4.334,4.2823,4.2356,4.1969,4.1574,4.1203,4.0894,4.0912,4.0912,4.0912,5.6601,5.6601,5.6601,5.6601,5.6601,5.6601,5.6601,5.6387,5.5683,5.4199,5.3769,5.3047,5.1562,5.1406,5.1308,5.1055,4.9726,4.8261,4.6777,4.641,4.6234,4.623,4.6211,4.617,4.606,4.6016,4.595,4.5852,4.5585,4.5529,4.5723,4.5202,4.5082,4.5313,4.5062,4.4595,4.4003,4.4592,4.4496,4.3929,4.394,4.4316,4.4786,4.4162,4.4316,4.4863,4.4863,4.4863,4.4902,4.5133,4.521,4.5267,4.5518,4.5594,4.5729,4.6336,4.6509,4.6701,4.7528,4.774,4.7682,4.7413,4.7548,4.774,4.774,4.7876,4.8154,4.8729,4.8684,4.8476,4.8172,4.8428,4.8227,4.6824,4.7491,4.7999,4.7423,4.7553,4.7516,4.7033,4.7372,4.7174,4.6032,4.6557,4.669,4.6029,4.5938,4.5902,4.5902,4.5663,4.5388,4.5076,4.4599,4.4727,4.5535,4.4176,4.3515,4.3515,4.3515,4.3515,4.3515,4.3515,4.348,4.3411,4.316,4.2994,4.2882,4.2496,4.2195,4.1952,4.1622,4.1373,4.1209,4.0989,4.0912,4.0912,5.6094,5.6367,5.6601,5.6601,5.6601,5.6601,5.6601,5.6308,5.5586,5.418,5.3691,5.2949,5.1543,5.1406,5.1406,5.1406,4.9863,4.8298,4.688,4.6399,4.6141,4.6088,4.6056,4.6017,4.5969,4.5918,4.584,4.5765,4.5765,4.5743,4.5703,4.5703,4.5698,4.5657,4.5657,4.5351,4.4855,4.5383,4.5306,4.4797,4.4797,4.5133,4.5537,4.5017,4.5152,4.5594,4.5594,4.5594,4.5594,4.5594,4.5594,4.5671,4.6009,4.6105,4.6278,4.7124,4.7375,4.7567,4.8394,4.8587,4.8721,4.9394,4.9067,4.8548,4.847,4.8905,4.9315,4.9384,4.9772,4.9938,4.934,4.9531,4.9377,4.8142,4.8481,4.8723,4.824,4.815,4.8021,4.7706,4.7861,4.7642,4.6776,4.7334,4.7519,4.6893,4.6856,4.6856,4.6856,4.6562,4.6305,4.6122,4.5186,4.5241,4.6361,4.4782,4.3975,4.3975,4.3975,4.3809,4.3515,4.3515,4.348,4.3429,4.3142,4.2901,4.2673,4.2257,4.1966,4.1731,4.1378,4.1232,4.118,4.0965,4.0912,4.0912,5.5273,5.5879,5.6426,5.6562,5.6543,5.6504,5.6582,5.5859,5.5019,5.4219,5.3281,5.2402,5.1601,5.1445,5.1406,5.1406,4.992,4.856,4.7555,4.6745,4.6184,4.5892,4.59,4.5893,4.5886,4.5757,4.5708,4.57,4.57,4.5695,4.5693,4.5693,4.5657,4.5594,4.5594,4.5594,4.5594,4.5594,4.5594,4.5594,4.5594,4.5594,4.5594,4.5594,4.5594,4.5594,4.5594,4.5594,4.5614,4.5691,4.5729,4.5883,4.674,4.7,4.7173,4.799,4.8212,4.8404,4.9365,4.9547,4.9871,5.1474,5.0705,4.951,4.9358,5.0386,5.1093,5.0118,5.1065,5.1776,5.0783,5.0586,5.0486,5.0263,4.9523,4.9003,4.9003,4.8877,4.8509,4.7787,4.8216,4.831,4.7571,4.809,4.8438,4.8306,4.8306,4.8269,4.8214,4.7571,4.7498,4.8177,4.6067,4.5645,4.7186,4.5682,4.4874,4.4801,4.4801,4.4415,4.3717,4.3664,4.3647,4.3629,4.336,4.3081,4.2753,4.2242,4.1851,4.1532,4.1226,4.1067,4.0998,4.0998,4.0963,4.0912,5.5176,5.4902,5.498,5.6367,5.6035,5.5801,5.6504,5.5859,5.5234,5.5039,5.3652,5.2637,5.2441,5.1816,5.1406,5.1405,5.0344,4.9031,4.7515,4.7723,4.7288,4.5874,4.636,4.6367,4.5766,4.5708,4.5711,4.5698,4.5698,4.5673,4.5631,4.5631,4.5603,4.5594,4.5594,4.5594,4.5594,4.5594,4.5594,4.5594,4.5594,4.5594,4.5594,4.5594,4.5594,4.5594,4.5594,4.5594,4.571,4.6394,4.6624,4.6759,4.7586,4.7836,4.8009,4.8875,4.9077,4.9365,5.0873,5.1127,5.1183,5.2176,5.2011,5.1611,5.1777,5.1923,5.1939,5.1706,5.1723,5.1717,5.1482,5.1312,5.1191,5.1137,5.0359,4.9767,4.9767,4.9121,4.8568,4.8402,4.8477,4.8439,4.8274,4.8309,4.8325,4.8306,4.8306,4.8012,4.7388,4.7791,4.7828,4.7369,4.6856,4.7039,4.8031,4.7058,4.625,4.5645,4.5645,4.5553,4.5369,4.4999,4.4788,4.4708,4.3989,4.3593,4.3452,4.3067,4.2885,4.2812,4.2714,4.2327,4.1774,4.1774,4.1412,4.0912,5.5137,5.4922,5.4902,5.582,5.5605,5.5449,5.5918,5.5586,5.5156,5.4726,5.3516,5.2539,5.2129,5.1679,5.1363,5.1302,5.0413,4.9454,4.8516,4.8387,4.792,4.6986,4.7279,4.7276,4.6852,4.6474,4.6069,4.5648,4.5648,4.564,4.5594,4.5594,4.5594,4.5594,4.5594,4.5594,4.5594,4.5594,4.5594,4.5594,4.5594,4.5594,4.5594,4.5594,4.5864,4.622,4.622,4.6471,4.6855,4.7317,4.7471,4.7625,4.8471,4.8721,4.8885,4.9731,4.9852,5.0005,5.1266,5.1389,5.1454,5.2688,5.2764,5.2485,5.2284,5.239,5.2409,5.1919,5.2294,5.2564,5.2119,5.1955,5.1862,5.1843,5.1102,5.0509,5.0509,5.0046,4.9712,4.9712,4.9635,4.9595,4.9595,4.9519,4.9499,4.9499,4.9499,4.9315,4.8874,4.8893,4.8728,4.8306,4.7516,4.748,4.8306,4.7498,4.7076,4.704,4.6617,4.612,4.5566,4.5236,4.4993,4.4785,4.4267,4.3921,4.3728,4.3523,4.3346,4.3189,4.3189,4.2706,4.2016,4.2016,4.1533,4.0963,5.4902,5.4961,5.5,5.5449,5.5273,5.5137,5.5273,5.5176,5.4824,5.4082,5.3105,5.2246,5.1678,5.1459,5.1299,5.1183,5.0437,4.9879,4.9611,4.9034,4.8541,4.8207,4.8278,4.8259,4.8105,4.7451,4.6682,4.5825,4.5671,4.5594,4.5594,4.5594,4.5594,4.5594,4.5594,4.5594,4.5594,4.5594,4.5594,4.5594,4.5594,4.5594,4.5594,4.5594,4.6144,4.6904,4.6904,4.7432,4.8125,4.8279,4.8413,4.8702,4.9538,4.9904,5.0154,5.0753,5.0776,5.0758,5.1535,5.1504,5.1617,5.3141,5.328,5.2929,5.2456,5.2704,5.2805,5.1955,5.2846,5.3513,5.2731,5.2601,5.2581,5.2522,5.1799,5.1282,5.1282,5.1036,5.0885,5.0885,5.0824,5.0802,5.0802,5.0802,5.0802,5.0802,5.0802,5.0802,5.0802,5.016,4.9812,4.9812,4.8471,4.8048,4.8728,4.8067,4.7993,4.8508,4.7731,4.6787,4.5693,4.5431,4.5158,4.4854,4.4607,4.4331,4.4065,4.401,4.3739,4.3396,4.3534,4.3017,4.2223,4.2223,4.1802,4.133,5.4004,5.3574,5.3769,5.6035,5.5176,5.4433,5.5176,5.4668,5.4121,5.4023,5.2577,5.1792,5.2372,5.1665,5.1102,5.1021,5.0862,5.0422,4.9644,5.0089,4.9692,4.8172,4.8836,4.8875,4.8125,4.799,4.7548,4.6721,4.597,4.5594,4.5594,4.5594,4.5594,4.5594,4.5594,4.5594,4.5594,4.5594,4.5594,4.5594,4.5594,4.5594,4.5594,4.5594,4.6144,4.6904,4.6904,4.7432,4.8221,4.8971,4.9721,5.0491,5.1248,5.1996,5.2557,5.2384,5.226,5.2327,5.2973,5.2878,5.2863,5.3854,5.3886,5.3832,5.4427,5.4053,5.355,5.3418,5.3469,5.3502,5.3372,5.3353,5.3353,5.3333,5.2572,5.1959,5.1959,5.1307,5.0822,5.0822,5.0802,5.0802,5.0802,5.0802,5.0802,5.0802,5.0802,5.0802,5.0802,5.071,5.0637,5.0637,5.0417,5.0362,5.0472,5.0362,4.9994,4.9427,4.9062,4.8506,4.7779,4.6985,4.6564,4.634,4.5598,4.5226,4.5191,4.5165,4.4785,4.4225,4.4854,4.4251,4.3034,4.3034,4.2873,4.2644,5.5273,5.4746,5.4355,5.5039,5.4512,5.3965,5.3867,5.3515,5.3259,5.3227,5.2085,5.1403,5.1723,5.1307,5.0972,5.0946,5.0863,5.0629,5.0244,5.0528,5.0366,4.9586,4.9913,4.9952,4.9548,4.9086,4.8644,4.8298,4.7413,4.699,4.699,4.6547,4.6567,4.6951,4.6018,4.5883,4.6336,4.6336,4.6336,4.6374,4.6817,4.699,4.699,4.699,4.7548,4.8355,4.8856,4.924,4.9606,4.999,5.0663,5.1364,5.1708,5.2272,5.2815,5.2766,5.2458,5.2285,5.3119,5.3042,5.2938,5.3776,5.3889,5.3887,5.4258,5.4289,5.4411,5.4934,5.4576,5.4162,5.4064,5.3695,5.3378,5.3334,5.298,5.27,5.27,5.2364,5.2142,5.2142,5.2142,5.2142,5.2142,5.2142,5.2142,5.2142,5.2142,5.2142,5.2142,5.172,5.1463,5.1463,5.1041,5.0743,5.0703,5.0703,5.0357,4.9704,4.9597,4.8818,4.7457,4.6949,4.6459,4.5945,4.5563,4.5397,4.5397,4.5397,4.5207,4.4958,4.5259,4.4751,4.3759,4.3345,4.3122,4.3123]}]]